﻿<?xml version="1.0" encoding="utf-8"?><gpx creator="Garmin Desktop App" version="1.1" xsi:schemaLocation="http://www.topografix.com/GPX/1/1 http://www.topografix.com/GPX/1/1/gpx.xsd http://www.garmin.com/xmlschemas/WaypointExtension/v1 http://www8.garmin.com/xmlschemas/WaypointExtensionv1.xsd http://www.garmin.com/xmlschemas/TrackPointExtension/v1 http://www.garmin.com/xmlschemas/TrackPointExtensionv1.xsd http://www.garmin.com/xmlschemas/GpxExtensions/v3 http://www8.garmin.com/xmlschemas/GpxExtensionsv3.xsd http://www.garmin.com/xmlschemas/ActivityExtension/v1 http://www8.garmin.com/xmlschemas/ActivityExtensionv1.xsd http://www.garmin.com/xmlschemas/AdventuresExtensions/v1 http://www8.garmin.com/xmlschemas/AdventuresExtensionv1.xsd http://www.garmin.com/xmlschemas/PressureExtension/v1 http://www.garmin.com/xmlschemas/PressureExtensionv1.xsd http://www.garmin.com/xmlschemas/TripExtensions/v1 http://www.garmin.com/xmlschemas/TripExtensionsv1.xsd http://www.garmin.com/xmlschemas/TripMetaDataExtensions/v1 http://www.garmin.com/xmlschemas/TripMetaDataExtensionsv1.xsd http://www.garmin.com/xmlschemas/ViaPointTransportationModeExtensions/v1 http://www.garmin.com/xmlschemas/ViaPointTransportationModeExtensionsv1.xsd http://www.garmin.com/xmlschemas/CreationTimeExtension/v1 http://www.garmin.com/xmlschemas/CreationTimeExtensionsv1.xsd http://www.garmin.com/xmlschemas/AccelerationExtension/v1 http://www.garmin.com/xmlschemas/AccelerationExtensionv1.xsd http://www.garmin.com/xmlschemas/PowerExtension/v1 http://www.garmin.com/xmlschemas/PowerExtensionv1.xsd http://www.garmin.com/xmlschemas/VideoExtension/v1 http://www.garmin.com/xmlschemas/VideoExtensionv1.xsd" xmlns="http://www.topografix.com/GPX/1/1" xmlns:xsi="http://www.w3.org/2001/XMLSchema-instance" xmlns:wptx1="http://www.garmin.com/xmlschemas/WaypointExtension/v1" xmlns:gpxtrx="http://www.garmin.com/xmlschemas/GpxExtensions/v3" xmlns:gpxtpx="http://www.garmin.com/xmlschemas/TrackPointExtension/v1" xmlns:gpxx="http://www.garmin.com/xmlschemas/GpxExtensions/v3" xmlns:trp="http://www.garmin.com/xmlschemas/TripExtensions/v1" xmlns:adv="http://www.garmin.com/xmlschemas/AdventuresExtensions/v1" xmlns:prs="http://www.garmin.com/xmlschemas/PressureExtension/v1" xmlns:tmd="http://www.garmin.com/xmlschemas/TripMetaDataExtensions/v1" xmlns:vptm="http://www.garmin.com/xmlschemas/ViaPointTransportationModeExtensions/v1" xmlns:ctx="http://www.garmin.com/xmlschemas/CreationTimeExtension/v1" xmlns:gpxacc="http://www.garmin.com/xmlschemas/AccelerationExtension/v1" xmlns:gpxpx="http://www.garmin.com/xmlschemas/PowerExtension/v1" xmlns:vidx1="http://www.garmin.com/xmlschemas/VideoExtension/v1">

  <metadata>
    <link href="http://www.garmin.com">
      <text>Garmin International</text>
    </link>
    <time>2021-02-13T13:00:05Z</time>
    <bounds maxlat="46.224656151607633" maxlon="10.903297076001763" minlat="46.171043906360865" minlon="10.827459711581469" />
  </metadata>

  <trk>
    <name>tucket bocchette alte palu</name>
    <extensions>
      <gpxx:TrackExtension>
        <gpxx:DisplayColor>Yellow</gpxx:DisplayColor>
      </gpxx:TrackExtension>
    </extensions>
    <trkseg>
      <trkpt lat="46.191953318193555" lon="10.882472405210137">
        <ele>2270.77</ele>
        <time>2012-06-17T05:32:05Z</time>
      </trkpt>
      <trkpt lat="46.191910235211253" lon="10.882472991943359">
        <ele>2270.77</ele>
        <time>2012-06-17T05:32:29Z</time>
      </trkpt>
      <trkpt lat="46.191914509981871" lon="10.882464777678251">
        <ele>2271.25</ele>
        <time>2012-06-17T05:32:42Z</time>
      </trkpt>
      <trkpt lat="46.191920880228281" lon="10.88245446793735">
        <ele>2271.73</ele>
        <time>2012-06-17T05:33:01Z</time>
      </trkpt>
      <trkpt lat="46.191905625164509" lon="10.882472405210137">
        <ele>2271.73</ele>
        <time>2012-06-17T05:33:15Z</time>
      </trkpt>
      <trkpt lat="46.191914677619934" lon="10.882485313341022">
        <ele>2271.73</ele>
        <time>2012-06-17T05:33:38Z</time>
      </trkpt>
      <trkpt lat="46.191909732297063" lon="10.882492689415812">
        <ele>2271.73</ele>
        <time>2012-06-17T05:33:57Z</time>
      </trkpt>
      <trkpt lat="46.191912163048983" lon="10.882462430745363">
        <ele>2271.73</ele>
        <time>2012-06-17T05:34:18Z</time>
      </trkpt>
      <trkpt lat="46.191929848864675" lon="10.882462346926332">
        <ele>2271.73</ele>
        <time>2012-06-17T05:34:38Z</time>
      </trkpt>
      <trkpt lat="46.191919790580869" lon="10.882473830133677">
        <ele>2272.21</ele>
        <time>2012-06-17T05:35:02Z</time>
      </trkpt>
      <trkpt lat="46.191913755610585" lon="10.882462095469236">
        <ele>2272.6900000000001</ele>
        <time>2012-06-17T05:35:22Z</time>
      </trkpt>
      <trkpt lat="46.191916521638632" lon="10.882472237572074">
        <ele>2272.21</ele>
        <time>2012-06-17T05:35:45Z</time>
      </trkpt>
      <trkpt lat="46.191920209676027" lon="10.882456982508302">
        <ele>2272.21</ele>
        <time>2012-06-17T05:36:10Z</time>
      </trkpt>
      <trkpt lat="46.191896488890052" lon="10.882442984730005">
        <ele>2272.21</ele>
        <time>2012-06-17T05:36:25Z</time>
      </trkpt>
      <trkpt lat="46.191898500546813" lon="10.882433261722326">
        <ele>2272.6900000000001</ele>
        <time>2012-06-17T05:36:44Z</time>
      </trkpt>
      <trkpt lat="46.191900512203574" lon="10.882447343319654">
        <ele>2272.6900000000001</ele>
        <time>2012-06-17T05:37:02Z</time>
      </trkpt>
      <trkpt lat="46.191891962662339" lon="10.882431333884597">
        <ele>2273.1700000000001</ele>
        <time>2012-06-17T05:37:27Z</time>
      </trkpt>
      <trkpt lat="46.19189690798521" lon="10.882463017478585">
        <ele>2273.1700000000001</ele>
        <time>2012-06-17T05:37:47Z</time>
      </trkpt>
      <trkpt lat="46.191902188584208" lon="10.882486822083592">
        <ele>2273.1700000000001</ele>
        <time>2012-06-17T05:38:06Z</time>
      </trkpt>
      <trkpt lat="46.191906295716763" lon="10.882450863718987">
        <ele>2273.1700000000001</ele>
        <time>2012-06-17T05:38:26Z</time>
      </trkpt>
      <trkpt lat="46.19190176948905" lon="10.882429992780089">
        <ele>2273.6599999999999</ele>
        <time>2012-06-17T05:38:42Z</time>
      </trkpt>
      <trkpt lat="46.191897159442306" lon="10.882434770464897">
        <ele>2273.1700000000001</ele>
        <time>2012-06-17T05:39:04Z</time>
      </trkpt>
      <trkpt lat="46.191898584365845" lon="10.882437201216817">
        <ele>2273.6599999999999</ele>
        <time>2012-06-17T05:39:20Z</time>
      </trkpt>
      <trkpt lat="46.191897494718432" lon="10.882430411875248">
        <ele>2273.1700000000001</ele>
        <time>2012-06-17T05:39:40Z</time>
      </trkpt>
      <trkpt lat="46.191886346787214" lon="10.882428148761392">
        <ele>2273.6599999999999</ele>
        <time>2012-06-17T05:39:59Z</time>
      </trkpt>
      <trkpt lat="46.191904284060001" lon="10.882429238408804">
        <ele>2273.6599999999999</ele>
        <time>2012-06-17T05:40:23Z</time>
      </trkpt>
      <trkpt lat="46.191900009289384" lon="10.882428735494614">
        <ele>2273.6599999999999</ele>
        <time>2012-06-17T05:40:44Z</time>
      </trkpt>
      <trkpt lat="46.191888609901071" lon="10.88242806494236">
        <ele>2273.6599999999999</ele>
        <time>2012-06-17T05:41:07Z</time>
      </trkpt>
      <trkpt lat="46.191892884671688" lon="10.882423371076584">
        <ele>2273.6599999999999</ele>
        <time>2012-06-17T05:41:24Z</time>
      </trkpt>
      <trkpt lat="46.191883077844977" lon="10.882470645010471">
        <ele>2273.1700000000001</ele>
        <time>2012-06-17T05:41:42Z</time>
      </trkpt>
      <trkpt lat="46.191892717033625" lon="10.882553290575743">
        <ele>2274.1399999999999</ele>
        <time>2012-06-17T05:42:03Z</time>
      </trkpt>
      <trkpt lat="46.191909732297063" lon="10.882566617801785">
        <ele>2274.6199999999999</ele>
        <time>2012-06-17T05:42:18Z</time>
      </trkpt>
      <trkpt lat="46.191902104765177" lon="10.882554044947028">
        <ele>2274.6199999999999</ele>
        <time>2012-06-17T05:42:42Z</time>
      </trkpt>
      <trkpt lat="46.191904032602906" lon="10.882554547861218">
        <ele>2274.6199999999999</ele>
        <time>2012-06-17T05:43:03Z</time>
      </trkpt>
      <trkpt lat="46.191894225776196" lon="10.882582040503621">
        <ele>2274.6199999999999</ele>
        <time>2012-06-17T05:43:20Z</time>
      </trkpt>
      <trkpt lat="46.191883999854326" lon="10.88258882984519">
        <ele>2274.6199999999999</ele>
        <time>2012-06-17T05:43:41Z</time>
      </trkpt>
      <trkpt lat="46.19189296849072" lon="10.882582627236843">
        <ele>2275.0999999999999</ele>
        <time>2012-06-17T05:43:52Z</time>
      </trkpt>
      <trkpt lat="46.191943930462003" lon="10.88262302801013">
        <ele>2275.0999999999999</ele>
        <time>2012-06-17T05:43:57Z</time>
      </trkpt>
      <trkpt lat="46.191994808614254" lon="10.882647167891264">
        <ele>2274.1399999999999</ele>
        <time>2012-06-17T05:44:04Z</time>
      </trkpt>
      <trkpt lat="46.191979302093387" lon="10.882843220606446">
        <ele>2276.0599999999999</ele>
        <time>2012-06-17T05:44:24Z</time>
      </trkpt>
      <trkpt lat="46.191939152777195" lon="10.882983701303601">
        <ele>2277.5</ele>
        <time>2012-06-17T05:44:42Z</time>
      </trkpt>
      <trkpt lat="46.1918905377388" lon="10.883097192272544">
        <ele>2279.4200000000001</ele>
        <time>2012-06-17T05:45:03Z</time>
      </trkpt>
      <trkpt lat="46.191908391192555" lon="10.883169863373041">
        <ele>2279.9000000000001</ele>
        <time>2012-06-17T05:45:11Z</time>
      </trkpt>
      <trkpt lat="46.191904032602906" lon="10.883321994915605">
        <ele>2281.8299999999999</ele>
        <time>2012-06-17T05:45:26Z</time>
      </trkpt>
      <trkpt lat="46.191899087280035" lon="10.883350996300578">
        <ele>2282.3099999999999</ele>
        <time>2012-06-17T05:45:29Z</time>
      </trkpt>
      <trkpt lat="46.19188173674047" lon="10.883414698764682">
        <ele>2282.79</ele>
        <time>2012-06-17T05:45:36Z</time>
      </trkpt>
      <trkpt lat="46.191894393414259" lon="10.883459625765681">
        <ele>2283.75</ele>
        <time>2012-06-17T05:45:40Z</time>
      </trkpt>
      <trkpt lat="46.1918905377388" lon="10.883605806156993">
        <ele>2285.1900000000001</ele>
        <time>2012-06-17T05:45:53Z</time>
      </trkpt>
      <trkpt lat="46.191877964884043" lon="10.883690295740962">
        <ele>2285.6700000000001</ele>
        <time>2012-06-17T05:46:05Z</time>
      </trkpt>
      <trkpt lat="46.191863548010588" lon="10.883807642385364">
        <ele>2287.5900000000001</ele>
        <time>2012-06-17T05:46:18Z</time>
      </trkpt>
      <trkpt lat="46.191823314875364" lon="10.883928928524256">
        <ele>2287.1100000000001</ele>
        <time>2012-06-17T05:46:32Z</time>
      </trkpt>
      <trkpt lat="46.191819962114096" lon="10.884001348167658">
        <ele>2288.0799999999999</ele>
        <time>2012-06-17T05:46:42Z</time>
      </trkpt>
      <trkpt lat="46.191781321540475" lon="10.884175859391689">
        <ele>2288.5599999999999</ele>
        <time>2012-06-17T05:46:57Z</time>
      </trkpt>
      <trkpt lat="46.191761707887053" lon="10.884273676201701">
        <ele>2290.48</ele>
        <time>2012-06-17T05:47:12Z</time>
      </trkpt>
      <trkpt lat="46.191763551905751" lon="10.88437425903976">
        <ele>2292.4000000000001</ele>
        <time>2012-06-17T05:47:26Z</time>
      </trkpt>
      <trkpt lat="46.191770760342479" lon="10.884433770552278">
        <ele>2293.3600000000001</ele>
        <time>2012-06-17T05:47:35Z</time>
      </trkpt>
      <trkpt lat="46.191788613796234" lon="10.884547093883157">
        <ele>2294.8000000000002</ele>
        <time>2012-06-17T05:47:48Z</time>
      </trkpt>
      <trkpt lat="46.191770257428288" lon="10.884718587622046">
        <ele>2295.77</ele>
        <time>2012-06-17T05:48:04Z</time>
      </trkpt>
      <trkpt lat="46.191771598532796" lon="10.884825205430388">
        <ele>2297.6900000000001</ele>
        <time>2012-06-17T05:48:19Z</time>
      </trkpt>
      <trkpt lat="46.19177084416151" lon="10.885002482682467">
        <ele>2300.0900000000001</ele>
        <time>2012-06-17T05:48:34Z</time>
      </trkpt>
      <trkpt lat="46.191685684025288" lon="10.885143047198653">
        <ele>2301.5300000000002</ele>
        <time>2012-06-17T05:48:48Z</time>
      </trkpt>
      <trkpt lat="46.191682415083051" lon="10.885264249518514">
        <ele>2303.46</ele>
        <time>2012-06-17T05:49:00Z</time>
      </trkpt>
      <trkpt lat="46.191666489467025" lon="10.885407580062747">
        <ele>2304.9000000000001</ele>
        <time>2012-06-17T05:49:16Z</time>
      </trkpt>
      <trkpt lat="46.191676212474704" lon="10.885490644723177">
        <ele>2306.8200000000002</ele>
        <time>2012-06-17T05:49:28Z</time>
      </trkpt>
      <trkpt lat="46.191639080643654" lon="10.885648559778929">
        <ele>2308.7399999999998</ele>
        <time>2012-06-17T05:49:44Z</time>
      </trkpt>
      <trkpt lat="46.191612174734473" lon="10.885703042149544">
        <ele>2309.6999999999998</ele>
        <time>2012-06-17T05:49:58Z</time>
      </trkpt>
      <trkpt lat="46.191558446735144" lon="10.885859532281756">
        <ele>2311.6300000000001</ele>
        <time>2012-06-17T05:50:13Z</time>
      </trkpt>
      <trkpt lat="46.191561883315444" lon="10.885886438190937">
        <ele>2312.1100000000001</ele>
        <time>2012-06-17T05:50:15Z</time>
      </trkpt>
      <trkpt lat="46.191540509462357" lon="10.886075282469392">
        <ele>2313.5500000000002</ele>
        <time>2012-06-17T05:50:30Z</time>
      </trkpt>
      <trkpt lat="46.191546963527799" lon="10.886287512257695">
        <ele>2315.9499999999998</ele>
        <time>2012-06-17T05:50:47Z</time>
      </trkpt>
      <trkpt lat="46.19148937985301" lon="10.88646562770009">
        <ele>2317.8800000000001</ele>
        <time>2012-06-17T05:51:04Z</time>
      </trkpt>
      <trkpt lat="46.191448895260692" lon="10.886658076196909">
        <ele>2317.8800000000001</ele>
        <time>2012-06-17T05:51:19Z</time>
      </trkpt>
      <trkpt lat="46.191421486437321" lon="10.886825965717435">
        <ele>2317.4000000000001</ele>
        <time>2012-06-17T05:51:33Z</time>
      </trkpt>
      <trkpt lat="46.191404387354851" lon="10.886991424486041">
        <ele>2317.4000000000001</ele>
        <time>2012-06-17T05:51:47Z</time>
      </trkpt>
      <trkpt lat="46.191404387354851" lon="10.887070130556822">
        <ele>2317.4000000000001</ele>
        <time>2012-06-17T05:52:00Z</time>
      </trkpt>
      <trkpt lat="46.191393071785569" lon="10.887208683416247">
        <ele>2318.3600000000001</ele>
        <time>2012-06-17T05:52:17Z</time>
      </trkpt>
      <trkpt lat="46.191392904147506" lon="10.887300129979849">
        <ele>2319.8000000000002</ele>
        <time>2012-06-17T05:52:33Z</time>
      </trkpt>
      <trkpt lat="46.191374799236655" lon="10.88731873780489">
        <ele>2319.3200000000002</ele>
        <time>2012-06-17T05:52:37Z</time>
      </trkpt>
      <trkpt lat="46.19135208427906" lon="10.887360479682684">
        <ele>2319.3200000000002</ele>
        <time>2012-06-17T05:52:41Z</time>
      </trkpt>
      <trkpt lat="46.19133741594851" lon="10.887406161054969">
        <ele>2320.2800000000002</ele>
        <time>2012-06-17T05:52:45Z</time>
      </trkpt>
      <trkpt lat="46.191346300765872" lon="10.887577822431922">
        <ele>2322.1999999999998</ele>
        <time>2012-06-17T05:53:00Z</time>
      </trkpt>
      <trkpt lat="46.191302631050348" lon="10.887634567916393">
        <ele>2321.7199999999998</ele>
        <time>2012-06-17T05:53:16Z</time>
      </trkpt>
      <trkpt lat="46.191305480897427" lon="10.887708747759461">
        <ele>2322.1999999999998</ele>
        <time>2012-06-17T05:53:24Z</time>
      </trkpt>
      <trkpt lat="46.191283855587244" lon="10.887882253155112">
        <ele>2322.6799999999998</ele>
        <time>2012-06-17T05:53:40Z</time>
      </trkpt>
      <trkpt lat="46.191303972154856" lon="10.887921815738082">
        <ele>2322.6799999999998</ele>
        <time>2012-06-17T05:53:51Z</time>
      </trkpt>
      <trkpt lat="46.191379576921463" lon="10.888106804341078">
        <ele>2325.0900000000001</ele>
        <time>2012-06-17T05:54:10Z</time>
      </trkpt>
      <trkpt lat="46.191333057358861" lon="10.888425149023533">
        <ele>2326.5300000000002</ele>
        <time>2012-06-17T05:54:33Z</time>
      </trkpt>
      <trkpt lat="46.191290309652686" lon="10.888503100723028">
        <ele>2327.0100000000002</ele>
        <time>2012-06-17T05:54:49Z</time>
      </trkpt>
      <trkpt lat="46.191266337409616" lon="10.888556577265263">
        <ele>2327.0100000000002</ele>
        <time>2012-06-17T05:55:00Z</time>
      </trkpt>
      <trkpt lat="46.191220823675394" lon="10.888627991080284">
        <ele>2328.9299999999998</ele>
        <time>2012-06-17T05:55:10Z</time>
      </trkpt>
      <trkpt lat="46.191150667145848" lon="10.888682892546058">
        <ele>2328.9299999999998</ele>
        <time>2012-06-17T05:55:19Z</time>
      </trkpt>
      <trkpt lat="46.191110769286752" lon="10.888769309967756">
        <ele>2327.4899999999998</ele>
        <time>2012-06-17T05:55:31Z</time>
      </trkpt>
      <trkpt lat="46.191105656325817" lon="10.888877101242542">
        <ele>2339.8046875</ele>
      </trkpt>
      <trkpt lat="46.191074224188924" lon="10.888969134539366">
        <ele>2338.8671875</ele>
      </trkpt>
      <trkpt lat="46.190992500633001" lon="10.889102909713984">
        <ele>2337.859375</ele>
      </trkpt>
      <trkpt lat="46.190935922786593" lon="10.889178263023496">
        <ele>2337.55078125</ele>
      </trkpt>
      <trkpt lat="46.190879344940186" lon="10.889245150610805">
        <ele>2337.45703125</ele>
      </trkpt>
      <trkpt lat="46.190866772085428" lon="10.8893455658108">
        <ele>2340.08203125</ele>
      </trkpt>
      <trkpt lat="46.190854115411639" lon="10.889454279094934">
        <ele>2343.0546875</ele>
      </trkpt>
      <trkpt lat="46.190778678283095" lon="10.889596436172724">
        <ele>2345.26953125</ele>
      </trkpt>
      <trkpt lat="46.190678095445037" lon="10.889721913263202">
        <ele>2346.55859375</ele>
      </trkpt>
      <trkpt lat="46.190602658316493" lon="10.889822328463197">
        <ele>2348.84375</ele>
      </trkpt>
      <trkpt lat="46.190552283078432" lon="10.889939423650503">
        <ele>2352.26953125</ele>
      </trkpt>
      <trkpt lat="46.190495705232024" lon="10.890023075044155">
        <ele>2353.9765625</ele>
      </trkpt>
      <trkpt lat="46.190457986667752" lon="10.890106726437807">
        <ele>2356.20703125</ele>
      </trkpt>
      <trkpt lat="46.190413981676102" lon="10.890181995928288">
        <ele>2358.14453125</ele>
      </trkpt>
      <trkpt lat="46.190413981676102" lon="10.890274029225111">
        <ele>2361.5</ele>
      </trkpt>
      <trkpt lat="46.190363690257072" lon="10.890341000631452">
        <ele>2363.2421875</ele>
      </trkpt>
      <trkpt lat="46.190325971692801" lon="10.890432950109243">
        <ele>2366.2578125</ele>
      </trkpt>
      <trkpt lat="46.190275680273771" lon="10.890483157709241">
        <ele>2367.55078125</ele>
      </trkpt>
      <trkpt lat="46.190219018608332" lon="10.890508303418756">
        <ele>2367.55078125</ele>
      </trkpt>
      <trkpt lat="46.190143581479788" lon="10.890566809102893">
        <ele>2368.5234375</ele>
      </trkpt>
      <trkpt lat="46.190105862915516" lon="10.890675606206059">
        <ele>2372</ele>
      </trkpt>
      <trkpt lat="46.190049285069108" lon="10.890792701393366">
        <ele>2374.96875</ele>
      </trkpt>
      <trkpt lat="46.190024139359593" lon="10.890809381380677">
        <ele>2375</ele>
      </trkpt>
      <trkpt lat="46.189998993650079" lon="10.890859588980675">
        <ele>2376.22265625</ele>
      </trkpt>
      <trkpt lat="46.189961191266775" lon="10.890943240374327">
        <ele>2378.5234375</ele>
      </trkpt>
      <trkpt lat="46.189936045557261" lon="10.891018509864807">
        <ele>2380.71484375</ele>
      </trkpt>
      <trkpt lat="46.189936045557261" lon="10.891077099367976">
        <ele>2382.87890625</ele>
      </trkpt>
      <trkpt lat="46.189910899847746" lon="10.891102161258459">
        <ele>2383.19140625</ele>
      </trkpt>
      <trkpt lat="46.18989204056561" lon="10.891194194555283">
        <ele>2386.2890625</ele>
      </trkpt>
      <trkpt lat="46.189866894856095" lon="10.891219256445765">
        <ele>2386.61328125</ele>
      </trkpt>
      <trkpt lat="46.189841749146581" lon="10.891269464045763">
        <ele>2387.91796875</ele>
      </trkpt>
      <trkpt lat="46.189778884872794" lon="10.891328053548932">
        <ele>2388.55859375</ele>
      </trkpt>
      <trkpt lat="46.189684588462114" lon="10.891411704942584">
        <ele>2389.13671875</ele>
      </trkpt>
      <trkpt lat="46.189646786078811" lon="10.891495356336236">
        <ele>2391.078125</ele>
      </trkpt>
      <trkpt lat="46.189596494659781" lon="10.891579007729888">
        <ele>2392.66796875</ele>
      </trkpt>
      <trkpt lat="46.189565062522888" lon="10.891712866723537">
        <ele>2396.9296875</ele>
      </trkpt>
      <trkpt lat="46.189533630385995" lon="10.891829961910844">
        <ele>2400.671875</ele>
      </trkpt>
      <trkpt lat="46.189483338966966" lon="10.891938675194979">
        <ele>2403.33203125</ele>
      </trkpt>
      <trkpt lat="46.189426761120558" lon="10.891997264698148">
        <ele>2403.45703125</ele>
      </trkpt>
      <trkpt lat="46.189370099455118" lon="10.892105977982283">
        <ele>2405.5546875</ele>
      </trkpt>
      <trkpt lat="46.189332380890846" lon="10.892206393182278">
        <ele>2407.83203125</ele>
      </trkpt>
      <trkpt lat="46.189288375899196" lon="10.892298342660069">
        <ele>2411.2578125</ele>
      </trkpt>
      <trkpt lat="46.189231798052788" lon="10.892423819750547">
        <ele>2416.26171875</ele>
      </trkpt>
      <trkpt lat="46.189200365915895" lon="10.892540998756886">
        <ele>2421.58984375</ele>
      </trkpt>
      <trkpt lat="46.189194079488516" lon="10.892616268247366">
        <ele>2425.8671875</ele>
      </trkpt>
      <trkpt lat="46.189137501642108" lon="10.892658093944192">
        <ele>2423.796875</ele>
      </trkpt>
      <trkpt lat="46.18907455354929" lon="10.892733363434672">
        <ele>2424.59765625</ele>
      </trkpt>
      <trkpt lat="46.18902426213026" lon="10.892800251021981">
        <ele>2425.578125</ele>
      </trkpt>
      <trkpt lat="46.189030548557639" lon="10.892883902415633">
        <ele>2429.9296875</ele>
      </trkpt>
      <trkpt lat="46.189030548557639" lon="10.892925728112459">
        <ele>2431.95703125</ele>
      </trkpt>
      <trkpt lat="46.189011689275503" lon="10.892959255725145">
        <ele>2433.45703125</ele>
      </trkpt>
      <trkpt lat="46.188999116420746" lon="10.893017761409283">
        <ele>2437.10546875</ele>
      </trkpt>
      <trkpt lat="46.188973970711231" lon="10.893026143312454">
        <ele>2436.09765625</ele>
      </trkpt>
      <trkpt lat="46.188961397856474" lon="10.892975935712457">
        <ele>2431.79296875</ele>
      </trkpt>
      <trkpt lat="46.188942538574338" lon="10.892950873821974">
        <ele>2429.015625</ele>
      </trkpt>
      <trkpt lat="46.188898282125592" lon="10.892902091145515">
        <ele>2424.05859375</ele>
      </trkpt>
      <trkpt lat="46.188879422843456" lon="10.892912903800607">
        <ele>2424.01171875</ele>
      </trkpt>
      <trkpt lat="46.188871376216412" lon="10.89295950718224">
        <ele>2426.30078125</ele>
      </trkpt>
      <trkpt lat="46.188857881352305" lon="10.892998902127147">
        <ele>2428.15234375</ele>
      </trkpt>
      <trkpt lat="46.188847068697214" lon="10.892995297908783">
        <ele>2427.62109375</ele>
      </trkpt>
      <trkpt lat="46.188828209415078" lon="10.89295950718224">
        <ele>2425.1875</ele>
      </trkpt>
      <trkpt lat="46.188820162788033" lon="10.89291650801897">
        <ele>2422.89453125</ele>
      </trkpt>
      <trkpt lat="46.188803985714912" lon="10.892898570746183">
        <ele>2421.80078125</ele>
      </trkpt>
      <trkpt lat="46.188785126432776" lon="10.892945174127817">
        <ele>2423.4140625</ele>
      </trkpt>
      <trkpt lat="46.188755454495549" lon="10.892873425036669">
        <ele>2419.75390625</ele>
      </trkpt>
      <trkpt lat="46.188720418140292" lon="10.892877029255033">
        <ele>2419.171875</ele>
      </trkpt>
      <trkpt lat="46.18868806399405" lon="10.892923632636666">
        <ele>2420.34375</ele>
      </trkpt>
      <trkpt lat="46.188666522502899" lon="10.892934361472726">
        <ele>2420.24609375</ele>
      </trkpt>
      <trkpt lat="46.1885991320014" lon="10.892945174127817">
        <ele>2420.19140625</ele>
      </trkpt>
      <trkpt lat="46.188574908301234" lon="10.893059838563204">
        <ele>2423.16796875</ele>
      </trkpt>
      <trkpt lat="46.188494022935629" lon="10.893153045326471">
        <ele>2424.65234375</ele>
      </trkpt>
      <trkpt lat="46.188475163653493" lon="10.89322479441762">
        <ele>2426.75390625</ele>
      </trkpt>
      <trkpt lat="46.188437445089221" lon="10.893249856308103">
        <ele>2426.84375</ele>
      </trkpt>
      <trkpt lat="46.188407773151994" lon="10.89331079274416">
        <ele>2428.57421875</ele>
      </trkpt>
      <trkpt lat="46.188353877514601" lon="10.893325125798583">
        <ele>2428.890625</ele>
      </trkpt>
      <trkpt lat="46.188340466469526" lon="10.893403999507427">
        <ele>2430.984375</ele>
      </trkpt>
      <trkpt lat="46.188308112323284" lon="10.893504414707422">
        <ele>2433.40234375</ele>
      </trkpt>
      <trkpt lat="46.188259581103921" lon="10.893561746925116">
        <ele>2434.34765625</ele>
      </trkpt>
      <trkpt lat="46.188235357403755" lon="10.8936298917979">
        <ele>2435.6484375</ele>
      </trkpt>
      <trkpt lat="46.188213815912604" lon="10.893708765506744">
        <ele>2437.1015625</ele>
      </trkpt>
      <trkpt lat="46.188205685466528" lon="10.893758973106742">
        <ele>2438.06640625</ele>
      </trkpt>
      <trkpt lat="46.188216498121619" lon="10.893855700269341">
        <ele>2440.51171875</ele>
      </trkpt>
      <trkpt lat="46.188192190602422" lon="10.893941782414913">
        <ele>2443.84765625</ele>
      </trkpt>
      <trkpt lat="46.188175594434142" lon="10.89397287927568">
        <ele>2445.0546875</ele>
      </trkpt>
      <trkpt lat="46.188162099570036" lon="10.894037336111069">
        <ele>2447.73046875</ele>
      </trkpt>
      <trkpt lat="46.188129745423794" lon="10.894073210656643">
        <ele>2449.00390625</ele>
      </trkpt>
      <trkpt lat="46.188113568350673" lon="10.894137751311064">
        <ele>2451.08203125</ele>
      </trkpt>
      <trkpt lat="46.188102839514613" lon="10.894180750474334">
        <ele>2452.390625</ele>
      </trkpt>
      <trkpt lat="46.188086662441492" lon="10.894263228401542">
        <ele>2454.8984375</ele>
      </trkpt>
      <trkpt lat="46.188070485368371" lon="10.894313436001539">
        <ele>2456.3046875</ele>
      </trkpt>
      <trkpt lat="46.188056990504265" lon="10.894367164000869">
        <ele>2457.0859375</ele>
      </trkpt>
      <trkpt lat="46.188013907521963" lon="10.894413767382503">
        <ele>2457.109375</ele>
      </trkpt>
      <trkpt lat="46.187981553375721" lon="10.894453246146441">
        <ele>2457.0390625</ele>
      </trkpt>
      <trkpt lat="46.187889939174056" lon="10.894467579200864">
        <ele>2455.83984375</ele>
      </trkpt>
      <trkpt lat="46.187849538400769" lon="10.894535724073648">
        <ele>2456.30078125</ele>
      </trkpt>
      <trkpt lat="46.187806371599436" lon="10.894614513963461">
        <ele>2458.37890625</ele>
      </trkpt>
      <trkpt lat="46.187774017453194" lon="10.894722137600183">
        <ele>2462.0859375</ele>
      </trkpt>
      <trkpt lat="46.187763288617134" lon="10.894818864762783">
        <ele>2465.98046875</ele>
      </trkpt>
      <trkpt lat="46.187744429334998" lon="10.894922884181142">
        <ele>2470.48046875</ele>
      </trkpt>
      <trkpt lat="46.187738981097937" lon="10.894980216398835">
        <ele>2472.9609375</ele>
      </trkpt>
      <trkpt lat="46.187712075188756" lon="10.895037548616529">
        <ele>2475.2421875</ele>
      </trkpt>
      <trkpt lat="46.187679721042514" lon="10.895116422325373">
        <ele>2477.98828125</ele>
      </trkpt>
      <trkpt lat="46.187666226178408" lon="10.895173838362098">
        <ele>2479.8984375</ele>
      </trkpt>
      <trkpt lat="46.18761501275003" lon="10.895238379016519">
        <ele>2481.4609375</ele>
      </trkpt>
      <trkpt lat="46.187579976394773" lon="10.895302835851908">
        <ele>2482.84765625</ele>
      </trkpt>
      <trkpt lat="46.187555752694607" lon="10.895374584943056">
        <ele>2484.45703125</ele>
      </trkpt>
      <trkpt lat="46.187531528994441" lon="10.895439125597477">
        <ele>2485.74609375</ele>
      </trkpt>
      <trkpt lat="46.187496492639184" lon="10.89549645781517">
        <ele>2487.515625</ele>
      </trkpt>
      <trkpt lat="46.187442597001791" lon="10.895557394251227">
        <ele>2490.4375</ele>
      </trkpt>
      <trkpt lat="46.187410242855549" lon="10.895578935742378">
        <ele>2491.41015625</ele>
      </trkpt>
      <trkpt lat="46.18736975826323" lon="10.89567574672401">
        <ele>2495.51953125</ele>
      </trkpt>
      <trkpt lat="46.187326675280929" lon="10.895747411996126">
        <ele>2497.80078125</ele>
      </trkpt>
      <trkpt lat="46.187267415225506" lon="10.89582628570497">
        <ele>2500.08984375</ele>
      </trkpt>
      <trkpt lat="46.187237743288279" lon="10.895876493304968">
        <ele>2502.078125</ele>
      </trkpt>
      <trkpt lat="46.187200024724007" lon="10.895955367013812">
        <ele>2505.24609375</ele>
      </trkpt>
      <trkpt lat="46.187178483232856" lon="10.896059302613139">
        <ele>2508.7734375</ele>
      </trkpt>
      <trkpt lat="46.187145793810487" lon="10.896185031160712">
        <ele>2512.94921875</ele>
      </trkpt>
      <trkpt lat="46.187129616737366" lon="10.896281842142344">
        <ele>2515.3203125</ele>
      </trkpt>
      <trkpt lat="46.187097262591124" lon="10.896382173523307">
        <ele>2517.66796875</ele>
      </trkpt>
      <trkpt lat="46.187078403308988" lon="10.896453922614455">
        <ele>2518.515625</ele>
      </trkpt>
      <trkpt lat="46.18702182546258" lon="10.896550649777055">
        <ele>2519.84765625</ele>
      </trkpt>
      <trkpt lat="46.186967929825187" lon="10.896636731922626">
        <ele>2521.87109375</ele>
      </trkpt>
      <trkpt lat="46.186919398605824" lon="10.896722730249166">
        <ele>2524.94921875</ele>
      </trkpt>
      <trkpt lat="46.186884362250566" lon="10.896776542067528">
        <ele>2526.95703125</ele>
      </trkpt>
      <trkpt lat="46.186873549595475" lon="10.896844686940312">
        <ele>2528.91796875</ele>
      </trkpt>
      <trkpt lat="46.186846643686295" lon="10.896948622539639">
        <ele>2532.515625</ele>
      </trkpt>
      <trkpt lat="46.186825102195144" lon="10.89702389203012">
        <ele>2535.171875</ele>
      </trkpt>
      <trkpt lat="46.18678193539381" lon="10.897195972502232">
        <ele>2541.7265625</ele>
      </trkpt>
      <trkpt lat="46.186746899038553" lon="10.897314241155982">
        <ele>2546.65234375</ele>
      </trkpt>
      <trkpt lat="46.186701133847237" lon="10.897407531738281">
        <ele>2550.47265625</ele>
      </trkpt>
      <trkpt lat="46.186684956774116" lon="10.897489925846457">
        <ele>2553.32421875</ele>
      </trkpt>
      <trkpt lat="46.186663331463933" lon="10.897568799555302">
        <ele>2556.2265625</ele>
      </trkpt>
      <trkpt lat="46.186647238209844" lon="10.897662006318569">
        <ele>2559.5</ele>
      </trkpt>
      <trkpt lat="46.186612201854587" lon="10.897766025736928">
        <ele>2563.3828125</ele>
      </trkpt>
      <trkpt lat="46.186585212126374" lon="10.897844899445772">
        <ele>2566.58984375</ele>
      </trkpt>
      <trkpt lat="46.186533998697996" lon="10.89793810620904">
        <ele>2571.046875</ele>
      </trkpt>
      <trkpt lat="46.186507092788815" lon="10.898042041808367">
        <ele>2575.6640625</ele>
      </trkpt>
      <trkpt lat="46.186485467478633" lon="10.898153185844421">
        <ele>2581.453125</ele>
      </trkpt>
      <trkpt lat="46.186442384496331" lon="10.898253517225385">
        <ele>2586.73828125</ele>
      </trkpt>
      <trkpt lat="46.18639930151403" lon="10.898325266316533">
        <ele>2589.9921875</ele>
      </trkpt>
      <trkpt lat="46.186361499130726" lon="10.898404140025377">
        <ele>2592.92578125</ele>
      </trkpt>
      <trkpt lat="46.186345405876637" lon="10.898422077298164">
        <ele>2593.6953125</ele>
      </trkpt>
      <trkpt lat="46.186321014538407" lon="10.898493742570281">
        <ele>2596.68359375</ele>
      </trkpt>
      <trkpt lat="46.186283295974135" lon="10.898604886606336">
        <ele>2601.46875</ele>
      </trkpt>
      <trkpt lat="46.186253624036908" lon="10.898687364533544">
        <ele>2604.71484375</ele>
      </trkpt>
      <trkpt lat="46.186242895200849" lon="10.898737572133541">
        <ele>2606.5703125</ele>
      </trkpt>
      <trkpt lat="46.186223952099681" lon="10.89880202896893">
        <ele>2608.8359375</ele>
      </trkpt>
      <trkpt lat="46.186180869117379" lon="10.898891715332866">
        <ele>2611.57421875</ele>
      </trkpt>
      <trkpt lat="46.186143150553107" lon="10.898966984823346">
        <ele>2613.71484375</ele>
      </trkpt>
      <trkpt lat="46.186099983751774" lon="10.899074524641037">
        <ele>2617.74609375</ele>
      </trkpt>
      <trkpt lat="46.186051536351442" lon="10.899157002568245">
        <ele>2621.32421875</ele>
      </trkpt>
      <trkpt lat="46.186016499996185" lon="10.899221543222666">
        <ele>2623.9375</ele>
      </trkpt>
      <trkpt lat="46.185978781431913" lon="10.899289604276419">
        <ele>2625.95703125</ele>
      </trkpt>
      <trkpt lat="46.185954473912716" lon="10.89937568642199">
        <ele>2627.76953125</ele>
      </trkpt>
      <trkpt lat="46.185932932421565" lon="10.899454560130835">
        <ele>2630.12890625</ele>
      </trkpt>
      <trkpt lat="46.185919437557459" lon="10.899533433839679">
        <ele>2632.68359375</ele>
      </trkpt>
      <trkpt lat="46.185906026512384" lon="10.899605099111795">
        <ele>2634.8671875</ele>
      </trkpt>
      <trkpt lat="46.185870990157127" lon="10.89971624314785">
        <ele>2638.171875</ele>
      </trkpt>
      <trkpt lat="46.185860177502036" lon="10.899802325293422">
        <ele>2640.87890625</ele>
      </trkpt>
      <trkpt lat="46.185862859711051" lon="10.899881115183234">
        <ele>2643.546875</ele>
      </trkpt>
      <trkpt lat="46.185849364846945" lon="10.899967197328806">
        <ele>2646.21484375</ele>
      </trkpt>
      <trkpt lat="46.185833187773824" lon="10.900021009147167">
        <ele>2647.69921875</ele>
      </trkpt>
      <trkpt lat="46.185833187773824" lon="10.900060404092073">
        <ele>2649.01953125</ele>
      </trkpt>
      <trkpt lat="46.185822458937764" lon="10.900121340528131">
        <ele>2650.87890625</ele>
      </trkpt>
      <trkpt lat="46.185822458937764" lon="10.900193089619279">
        <ele>2653.3671875</ele>
      </trkpt>
      <trkpt lat="46.18583595380187" lon="10.900282692164183">
        <ele>2656.765625</ele>
      </trkpt>
      <trkpt lat="46.185822458937764" lon="10.900347232818604">
        <ele>2660.08984375</ele>
      </trkpt>
      <trkpt lat="46.185782058164477" lon="10.900436835363507">
        <ele>2664.83203125</ele>
      </trkpt>
      <trkpt lat="46.185784740373492" lon="10.900497771799564">
        <ele>2668.9453125</ele>
      </trkpt>
      <trkpt lat="46.185744255781174" lon="10.900587374344468">
        <ele>2673.96875</ele>
      </trkpt>
      <trkpt lat="46.185693126171827" lon="10.900623248890042">
        <ele>2673.5703125</ele>
      </trkpt>
      <trkpt lat="46.185647277161479" lon="10.900666248053312">
        <ele>2674.84375</ele>
      </trkpt>
      <trkpt lat="46.185633782297373" lon="10.900683095678687">
        <ele>2676.125</ele>
      </trkpt>
      <trkpt lat="46.185621041804552" lon="10.90077705681324">
        <ele>2682.98046875</ele>
      </trkpt>
      <trkpt lat="46.185623724013567" lon="10.90082005597651">
        <ele>2685.6015625</ele>
      </trkpt>
      <trkpt lat="46.185610312968493" lon="10.900920471176505">
        <ele>2691.3203125</ele>
      </trkpt>
      <trkpt lat="46.185602182522416" lon="10.901067489758134">
        <ele>2697.65625</ele>
      </trkpt>
      <trkpt lat="46.185567146167159" lon="10.90106388553977">
        <ele>2696.26171875</ele>
      </trkpt>
      <trkpt lat="46.185537474229932" lon="10.901010073721409">
        <ele>2693.78515625</ele>
      </trkpt>
      <trkpt lat="46.18549975566566" lon="10.900992136448622">
        <ele>2691.8203125</ele>
      </trkpt>
      <trkpt lat="46.185475531965494" lon="10.900985011830926">
        <ele>2690.6953125</ele>
      </trkpt>
      <trkpt lat="46.185459354892373" lon="10.9010208863765">
        <ele>2691.296875</ele>
      </trkpt>
      <trkpt lat="46.185418954119086" lon="10.901024406775832">
        <ele>2690.6015625</ele>
      </trkpt>
      <trkpt lat="46.185427000746131" lon="10.901049552485347">
        <ele>2691.07421875</ele>
      </trkpt>
      <trkpt lat="46.185397412627935" lon="10.901085343211889">
        <ele>2691.90234375</ele>
      </trkpt>
      <trkpt lat="46.185327339917421" lon="10.901067489758134">
        <ele>2691.82421875</ele>
      </trkpt>
      <trkpt lat="46.185292303562164" lon="10.90110688470304">
        <ele>2692.38671875</ele>
      </trkpt>
      <trkpt lat="46.185265313833952" lon="10.901088947430253">
        <ele>2692.25</ele>
      </trkpt>
      <trkpt lat="46.185192558914423" lon="10.901067489758134">
        <ele>2692.9609375</ele>
      </trkpt>
      <trkpt lat="46.185171017423272" lon="10.901038739830256">
        <ele>2694.19921875</ele>
      </trkpt>
      <trkpt lat="46.18514402769506" lon="10.901092551648617">
        <ele>2695.87109375</ele>
      </trkpt>
      <trkpt lat="46.185133298859" lon="10.90107461437583">
        <ele>2696.51171875</ele>
      </trkpt>
      <trkpt lat="46.185090132057667" lon="10.90106388553977">
        <ele>2699.12890625</ele>
      </trkpt>
      <trkpt lat="46.185025507584214" lon="10.901006553322077">
        <ele>2703.55078125</ele>
      </trkpt>
      <trkpt lat="46.184952752664685" lon="10.9010208863765">
        <ele>2708.18359375</ele>
      </trkpt>
      <trkpt lat="46.184885362163186" lon="10.900985011830926">
        <ele>2712.328125</ele>
      </trkpt>
      <trkpt lat="46.184874549508095" lon="10.9010208863765">
        <ele>2713.6953125</ele>
      </trkpt>
      <trkpt lat="46.184850325807929" lon="10.901010073721409">
        <ele>2715.46484375</ele>
      </trkpt>
      <trkpt lat="46.184817971661687" lon="10.901053156703711">
        <ele>2717.54296875</ele>
      </trkpt>
      <trkpt lat="46.184764076024294" lon="10.901121217757463">
        <ele>2721.35546875</ele>
      </trkpt>
      <trkpt lat="46.184734404087067" lon="10.901160696521401">
        <ele>2723.421875</ele>
      </trkpt>
      <trkpt lat="46.184723675251007" lon="10.901203695684671">
        <ele>2724.02734375</ele>
      </trkpt>
      <trkpt lat="46.184653602540493" lon="10.901282569393516">
        <ele>2727.7734375</ele>
      </trkpt>
      <trkpt lat="46.184583529829979" lon="10.901264632120728">
        <ele>2732.01953125</ele>
      </trkpt>
      <trkpt lat="46.184553857892752" lon="10.901300506666303">
        <ele>2733.94921875</ele>
      </trkpt>
      <trkpt lat="46.184502644464374" lon="10.901278965175152">
        <ele>2736.81640625</ele>
      </trkpt>
      <trkpt lat="46.184491915628314" lon="10.901332776993513">
        <ele>2737.80859375</ele>
      </trkpt>
      <trkpt lat="46.184446066617966" lon="10.901343505829573">
        <ele>2740.0859375</ele>
      </trkpt>
      <trkpt lat="46.184446066617966" lon="10.90140444226563">
        <ele>2740.765625</ele>
      </trkpt>
      <trkpt lat="46.184402983635664" lon="10.901472587138414">
        <ele>2743.73828125</ele>
      </trkpt>
      <trkpt lat="46.184381358325481" lon="10.901569398120046">
        <ele>2745.828125</ele>
      </trkpt>
      <trkpt lat="46.184378676116467" lon="10.901651792228222">
        <ele>2746.8125</ele>
      </trkpt>
      <trkpt lat="46.184394853189588" lon="10.901709208264947">
        <ele>2745.9765625</ele>
      </trkpt>
      <trkpt lat="46.184351770207286" lon="10.901773665100336">
        <ele>2748.67578125</ele>
      </trkpt>
      <trkpt lat="46.184362499043345" lon="10.901870476081967">
        <ele>2747.2734375</ele>
      </trkpt>
      <trkpt lat="46.184386806562543" lon="10.901942225173116">
        <ele>2744.58984375</ele>
      </trkpt>
      <trkpt lat="46.1844218429178" lon="10.90205336920917">
        <ele>2740.3671875</ele>
      </trkpt>
      <trkpt lat="46.184443384408951" lon="10.902125034481287">
        <ele>2738.02734375</ele>
      </trkpt>
      <trkpt lat="46.184443384408951" lon="10.902168033644557">
        <ele>2738.18359375</ele>
      </trkpt>
      <trkpt lat="46.18433291092515" lon="10.902157304808497">
        <ele>2745.46484375</ele>
      </trkpt>
      <trkpt lat="46.184305921196938" lon="10.902125034481287">
        <ele>2747.875</ele>
      </trkpt>
      <trkpt lat="46.184295108541846" lon="10.902078431099653">
        <ele>2749.609375</ele>
      </trkpt>
      <trkpt lat="46.184257389977574" lon="10.902039036154747">
        <ele>2753.77734375</ele>
      </trkpt>
      <trkpt lat="46.1842439789325" lon="10.902056889608502">
        <ele>2754.64453125</ele>
      </trkpt>
      <trkpt lat="46.184216989204288" lon="10.902006765827537">
        <ele>2758.41015625</ele>
      </trkpt>
      <trkpt lat="46.184203494340181" lon="10.902006765827537">
        <ele>2759.7109375</ele>
      </trkpt>
      <trkpt lat="46.18418195284903" lon="10.902049764990807">
        <ele>2760.703125</ele>
      </trkpt>
      <trkpt lat="46.184168457984924" lon="10.902067702263594">
        <ele>2761.51953125</ele>
      </trkpt>
      <trkpt lat="46.184149598702788" lon="10.902046160772443">
        <ele>2763.87109375</ele>
      </trkpt>
      <trkpt lat="46.184067958965898" lon="10.902017494663596">
        <ele>2772.48828125</ele>
      </trkpt>
      <trkpt lat="46.184051781892776" lon="10.902039119973779">
        <ele>2773.390625</ele>
      </trkpt>
      <trkpt lat="46.18403828702867" lon="10.902031995356083">
        <ele>2774.62109375</ele>
      </trkpt>
      <trkpt lat="46.184027558192611" lon="10.902021182700992">
        <ele>2775.71484375</ele>
      </trkpt>
      <trkpt lat="46.184005932882428" lon="10.902021182700992">
        <ele>2777.28125</ele>
      </trkpt>
      <trkpt lat="46.183968214318156" lon="10.902024786919355">
        <ele>2779.921875</ele>
      </trkpt>
      <trkpt lat="46.183946672827005" lon="10.902035515755415">
        <ele>2781.2421875</ele>
      </trkpt>
      <trkpt lat="46.183946672827005" lon="10.902057057246566">
        <ele>2780.7578125</ele>
      </trkpt>
      <trkpt lat="46.183957485482097" lon="10.902089327573776">
        <ele>2779.19140625</ele>
      </trkpt>
      <trkpt lat="46.183954803273082" lon="10.902114389464259">
        <ele>2778.8203125</ele>
      </trkpt>
      <trkpt lat="46.183925131335855" lon="10.902139535173774">
        <ele>2780.64453125</ele>
      </trkpt>
      <trkpt lat="46.183895459398627" lon="10.902160992845893">
        <ele>2782.859375</ele>
      </trkpt>
      <trkpt lat="46.183879282325506" lon="10.90217893011868">
        <ele>2784.484375</ele>
      </trkpt>
      <trkpt lat="46.183868553489447" lon="10.902275741100311">
        <ele>2786.96484375</ele>
      </trkpt>
      <trkpt lat="46.183857740834355" lon="10.902315136045218">
        <ele>2788.53515625</ele>
      </trkpt>
      <trkpt lat="46.18385505862534" lon="10.902340281754732">
        <ele>2789.18359375</ele>
      </trkpt>
      <trkpt lat="46.183868553489447" lon="10.902411947026849">
        <ele>2789.41015625</ele>
      </trkpt>
      <trkpt lat="46.18385505862534" lon="10.902444217354059">
        <ele>2791.32421875</ele>
      </trkpt>
      <trkpt lat="46.183814657852054" lon="10.902451425790787">
        <ele>2794.75390625</ele>
      </trkpt>
      <trkpt lat="46.183782303705812" lon="10.902526695281267">
        <ele>2798.2578125</ele>
      </trkpt>
      <trkpt lat="46.183763444423676" lon="10.902594840154052">
        <ele>2800.5546875</ele>
      </trkpt>
      <trkpt lat="46.183763444423676" lon="10.902612693607807">
        <ele>2800.8671875</ele>
      </trkpt>
      <trkpt lat="46.183774173259735" lon="10.902644963935018">
        <ele>2799.9765625</ele>
      </trkpt>
      <trkpt lat="46.183757996186614" lon="10.902702379971743">
        <ele>2799.99609375</ele>
      </trkpt>
      <trkpt lat="46.18376612663269" lon="10.902770441025496">
        <ele>2798.6328125</ele>
      </trkpt>
      <trkpt lat="46.18377149105072" lon="10.902820648625493">
        <ele>2797.66796875</ele>
      </trkpt>
      <trkpt lat="46.183755313977599" lon="10.902856523171067">
        <ele>2797.78125</ele>
      </trkpt>
      <trkpt lat="46.183755313977599" lon="10.902874460443854">
        <ele>2797.2265625</ele>
      </trkpt>
      <trkpt lat="46.183739136904478" lon="10.902903126552701">
        <ele>2797.046875</ele>
      </trkpt>
      <trkpt lat="46.183741819113493" lon="10.902946125715971">
        <ele>2795.55859375</ele>
      </trkpt>
      <trkpt lat="46.183736454695463" lon="10.902985604479909">
        <ele>2794.5</ele>
      </trkpt>
      <trkpt lat="46.183728408068419" lon="10.903007062152028">
        <ele>2794.09765625</ele>
      </trkpt>
      <trkpt lat="46.183709548786283" lon="10.902982000261545">
        <ele>2795.62890625</ele>
      </trkpt>
      <trkpt lat="46.183706866577268" lon="10.902960458770394">
        <ele>2796.47265625</ele>
      </trkpt>
      <trkpt lat="46.183698736131191" lon="10.902953334152699">
        <ele>2797.0390625</ele>
      </trkpt>
      <trkpt lat="46.183690689504147" lon="10.902885189279914">
        <ele>2799.79296875</ele>
      </trkpt>
      <trkpt lat="46.18367719464004" lon="10.902867252007127">
        <ele>2801.05859375</ele>
      </trkpt>
      <trkpt lat="46.183658335357904" lon="10.902877980843186">
        <ele>2801.51953125</ele>
      </trkpt>
      <trkpt lat="46.183642158284783" lon="10.90288158506155">
        <ele>2802.109375</ele>
      </trkpt>
      <trkpt lat="46.183647522702813" lon="10.90283858589828">
        <ele>2803.3515625</ele>
      </trkpt>
      <trkpt lat="46.183631345629692" lon="10.902834981679916">
        <ele>2804.18359375</ele>
      </trkpt>
      <trkpt lat="46.183612486347556" lon="10.902870856225491">
        <ele>2803.89453125</ele>
      </trkpt>
      <trkpt lat="46.183615168556571" lon="10.902906730771065">
        <ele>2802.28515625</ele>
      </trkpt>
      <trkpt lat="46.183631345629692" lon="10.902913855388761">
        <ele>2801.30078125</ele>
      </trkpt>
      <trkpt lat="46.183631345629692" lon="10.902971187606454">
        <ele>2799</ele>
      </trkpt>
      <trkpt lat="46.183623299002647" lon="10.903021395206451">
        <ele>2797.2578125</ele>
      </trkpt>
      <trkpt lat="46.183590944856405" lon="10.903042936697602">
        <ele>2797.4453125</ele>
      </trkpt>
      <trkpt lat="46.183545095846057" lon="10.902974791824818">
        <ele>2801.44140625</ele>
      </trkpt>
      <trkpt lat="46.183531684800982" lon="10.902999937534332">
        <ele>2800.45703125</ele>
      </trkpt>
      <trkpt lat="46.183491200208664" lon="10.902992729097605">
        <ele>2801.62890625</ele>
      </trkpt>
      <trkpt lat="46.183477789163589" lon="10.902971187606454">
        <ele>2803.14453125</ele>
      </trkpt>
      <trkpt lat="46.183469658717513" lon="10.902978396043181">
        <ele>2802.90234375</ele>
      </trkpt>
      <trkpt lat="46.183442752808332" lon="10.902953334152699">
        <ele>2805.0546875</ele>
      </trkpt>
      <trkpt lat="46.18341039866209" lon="10.902971187606454">
        <ele>2804.671875</ele>
      </trkpt>
      <trkpt lat="46.183343008160591" lon="10.902917459607124">
        <ele>2810.26953125</ele>
      </trkpt>
      <trkpt lat="46.18332146666944" lon="10.902942521497607">
        <ele>2808.94140625</ele>
      </trkpt>
      <trkpt lat="46.183224404230714" lon="10.902946125715971">
        <ele>2811.1796875</ele>
      </trkpt>
      <trkpt lat="46.183135472238064" lon="10.902888793498278">
        <ele>2819.3984375</ele>
      </trkpt>
      <trkpt lat="46.183097753673792" lon="10.902817044407129">
        <ele>2826.65234375</ele>
      </trkpt>
      <trkpt lat="46.182968420907855" lon="10.902641443535686">
        <ele>2842.0703125</ele>
      </trkpt>
      <trkpt lat="46.182941431179643" lon="10.902652172371745">
        <ele>2842.6484375</ele>
      </trkpt>
      <trkpt lat="46.182914525270462" lon="10.902616297826171">
        <ele>2846.16796875</ele>
      </trkpt>
      <trkpt lat="46.182903712615371" lon="10.902713108807802">
        <ele>2840.4296875</ele>
      </trkpt>
      <trkpt lat="46.182717802003026" lon="10.90250875800848">
        <ele>2854.25390625</ele>
      </trkpt>
      <trkpt lat="46.182598359882832" lon="10.902447821572423">
        <ele>2859.91015625</ele>
      </trkpt>
      <trkpt lat="46.18255284614861" lon="10.9024369250983">
        <ele>2861.7734375</ele>
      </trkpt>
      <trkpt lat="46.182331899181008" lon="10.902526527643204">
        <ele>2867.7265625</ele>
      </trkpt>
      <trkpt lat="46.182304909452796" lon="10.902519403025508">
        <ele>2869.63671875</ele>
      </trkpt>
      <trkpt lat="46.182288732379675" lon="10.902540860697627">
        <ele>2869.328125</ele>
      </trkpt>
      <trkpt lat="46.182283367961645" lon="10.902576735243201">
        <ele>2867.5546875</ele>
      </trkpt>
      <trkpt lat="46.182261826470494" lon="10.902630463242531">
        <ele>2864.875</ele>
      </trkpt>
      <trkpt lat="46.182170212268829" lon="10.902626942843199">
        <ele>2870.484375</ele>
      </trkpt>
      <trkpt lat="46.182127045467496" lon="10.902673546224833">
        <ele>2868.97265625</ele>
      </trkpt>
      <trkpt lat="46.18200852535665" lon="10.90273448266089">
        <ele>2872.0703125</ele>
      </trkpt>
      <trkpt lat="46.181881790980697" lon="10.902702212333679">
        <ele>2887.44921875</ele>
      </trkpt>
      <trkpt lat="46.181790176779032" lon="10.902601797133684">
        <ele>2905.8125</ele>
      </trkpt>
      <trkpt lat="46.181749776005745" lon="10.902605401352048">
        <ele>2909.80859375</ele>
      </trkpt>
      <trkpt lat="46.181703926995397" lon="10.902641275897622">
        <ele>2910.71484375</ele>
      </trkpt>
      <trkpt lat="46.181566547602415" lon="10.90279902331531">
        <ele>2905.80078125</ele>
      </trkpt>
      <trkpt lat="46.181515334174037" lon="10.902816960588098">
        <ele>2907.83203125</ele>
      </trkpt>
      <trkpt lat="46.181477615609765" lon="10.90279902331531">
        <ele>2908.6171875</ele>
      </trkpt>
      <trkpt lat="46.181420953944325" lon="10.90282048098743">
        <ele>2904.71484375</ele>
      </trkpt>
      <trkpt lat="46.181380553171039" lon="10.902856355533004">
        <ele>2899.83203125</ele>
      </trkpt>
      <trkpt lat="46.181369824334979" lon="10.902899354696274">
        <ele>2894.296875</ele>
      </trkpt>
      <trkpt lat="46.181356329470873" lon="10.902956770732999">
        <ele>2887.1328125</ele>
      </trkpt>
      <trkpt lat="46.181323975324631" lon="10.902999769896269">
        <ele>2881.75390625</ele>
      </trkpt>
      <trkpt lat="46.181232361122966" lon="10.903014102950692">
        <ele>2880.48046875</ele>
      </trkpt>
      <trkpt lat="46.181167652830482" lon="10.902974624186754">
        <ele>2884.4921875</ele>
      </trkpt>
      <trkpt lat="46.181135298684239" lon="10.902974624186754">
        <ele>2884.578125</ele>
      </trkpt>
      <trkpt lat="46.18106254376471" lon="10.903032040223479">
        <ele>2881.40625</ele>
      </trkpt>
      <trkpt lat="46.181000601500273" lon="10.903057102113962">
        <ele>2883.73046875</ele>
      </trkpt>
      <trkpt lat="46.180984424427152" lon="10.903049977496266">
        <ele>2885.171875</ele>
      </trkpt>
      <trkpt lat="46.180979060009122" lon="10.902949562296271">
        <ele>2889.828125</ele>
      </trkpt>
      <trkpt lat="46.18089197203517" lon="10.902935229241848">
        <ele>2894.52734375</ele>
      </trkpt>
      <trkpt lat="46.180816618725657" lon="10.902884854003787">
        <ele>2898.640625</ele>
      </trkpt>
      <trkpt lat="46.180803123861551" lon="10.902845375239849">
        <ele>2899.89453125</ele>
      </trkpt>
      <trkpt lat="46.180776134133339" lon="10.902863312512636">
        <ele>2900.36328125</ele>
      </trkpt>
      <trkpt lat="46.180773451924324" lon="10.902931457385421">
        <ele>2898.77734375</ele>
      </trkpt>
      <trkpt lat="46.180770769715309" lon="10.903010331094265">
        <ele>2896.83203125</ele>
      </trkpt>
      <trkpt lat="46.180738415569067" lon="10.903042517602444">
        <ele>2895.734375</ele>
      </trkpt>
      <trkpt lat="46.180662978440523" lon="10.903071267530322">
        <ele>2893.59375</ele>
      </trkpt>
      <trkpt lat="46.180622577667236" lon="10.903031788766384">
        <ele>2895.3828125</ele>
      </trkpt>
      <trkpt lat="46.180536327883601" lon="10.903078392148018">
        <ele>2890.296875</ele>
      </trkpt>
      <trkpt lat="46.180409677326679" lon="10.903089120984077">
        <ele>2885.57421875</ele>
      </trkpt>
      <trkpt lat="46.180334240198135" lon="10.903099933639169">
        <ele>2885.30859375</ele>
      </trkpt>
      <trkpt lat="46.180261401459575" lon="10.903157265856862">
        <ele>2883.921875</ele>
      </trkpt>
      <trkpt lat="46.180188646540046" lon="10.90320747345686">
        <ele>2879.6015625</ele>
      </trkpt>
      <trkpt lat="46.180142881348729" lon="10.903254076838493">
        <ele>2872.29296875</ele>
      </trkpt>
      <trkpt lat="46.180118573829532" lon="10.903286347165704">
        <ele>2866.30078125</ele>
      </trkpt>
      <trkpt lat="46.180024277418852" lon="10.903297076001763">
        <ele>2865.08984375</ele>
      </trkpt>
      <trkpt lat="46.17998119443655" lon="10.903264805674553">
        <ele>2871.71875</ele>
      </trkpt>
      <trkpt lat="46.179946158081293" lon="10.903211077675223">
        <ele>2882.484375</ele>
      </trkpt>
      <trkpt lat="46.179894944652915" lon="10.903132203966379">
        <ele>2898.20703125</ele>
      </trkpt>
      <trkpt lat="46.179886814206839" lon="10.903056934475899">
        <ele>2911.37109375</ele>
      </trkpt>
      <trkpt lat="46.179927298799157" lon="10.90298518538475">
        <ele>2921.859375</ele>
      </trkpt>
      <trkpt lat="46.17990299127996" lon="10.902978060767055">
        <ele>2923.5625</ele>
      </trkpt>
      <trkpt lat="46.179878767579794" lon="10.90298518538475">
        <ele>2921.2265625</ele>
      </trkpt>
      <trkpt lat="46.179859908297658" lon="10.902999518439174">
        <ele>2917.8515625</ele>
      </trkpt>
      <trkpt lat="46.179843731224537" lon="10.902978060767055">
        <ele>2919.6875</ele>
      </trkpt>
      <trkpt lat="46.179843731224537" lon="10.902945790439844">
        <ele>2924.1484375</ele>
      </trkpt>
      <trkpt lat="46.179816741496325" lon="10.902934977784753">
        <ele>2923.46875</ele>
      </trkpt>
      <trkpt lat="46.179792517796159" lon="10.902931457385421">
        <ele>2921.97265625</ele>
      </trkpt>
      <trkpt lat="46.179779022932053" lon="10.902934977784753">
        <ele>2920.43359375</ele>
      </trkpt>
      <trkpt lat="46.179757481440902" lon="10.902917040511966">
        <ele>2920.9140625</ele>
      </trkpt>
      <trkpt lat="46.179757481440902" lon="10.902891978621483">
        <ele>2924.01171875</ele>
      </trkpt>
      <trkpt lat="46.179752117022872" lon="10.902891978621483">
        <ele>2923.5390625</ele>
      </trkpt>
      <trkpt lat="46.17972512729466" lon="10.902906311675906">
        <ele>2919.4765625</ele>
      </trkpt>
      <trkpt lat="46.179703585803509" lon="10.90289918705821">
        <ele>2918.453125</ele>
      </trkpt>
      <trkpt lat="46.179698221385479" lon="10.902870437130332">
        <ele>2921.25390625</ele>
      </trkpt>
      <trkpt lat="46.179727809503675" lon="10.902809500694275">
        <ele>2928.85546875</ele>
      </trkpt>
      <trkpt lat="46.179787153378129" lon="10.902777230367064">
        <ele>2936.65234375</ele>
      </trkpt>
      <trkpt lat="46.179789835587144" lon="10.902752168476582">
        <ele>2938.453125</ele>
      </trkpt>
      <trkpt lat="46.179711632430553" lon="10.902755772694945">
        <ele>2930.23828125</ele>
      </trkpt>
      <trkpt lat="46.179671231657267" lon="10.902755772694945">
        <ele>2926.109375</ele>
      </trkpt>
      <trkpt lat="46.179628148674965" lon="10.902727106586099">
        <ele>2923.65234375</ele>
      </trkpt>
      <trkpt lat="46.179609289392829" lon="10.902691232040524">
        <ele>2923.96484375</ele>
      </trkpt>
      <trkpt lat="46.179549945518374" lon="10.902669690549374">
        <ele>2920.0546875</ele>
      </trkpt>
      <trkpt lat="46.179425977170467" lon="10.9025370888412">
        <ele>2922.3671875</ele>
      </trkpt>
      <trkpt lat="46.179425977170467" lon="10.902465339750051">
        <ele>2930.0234375</ele>
      </trkpt>
      <trkpt lat="46.179382894188166" lon="10.902433069422841">
        <ele>2931.90625</ele>
      </trkpt>
      <trkpt lat="46.179322712123394" lon="10.902447486296296">
        <ele>2928.41015625</ele>
      </trkpt>
      <trkpt lat="46.179290441796184" lon="10.902422340586782">
        <ele>2929.484375</ele>
      </trkpt>
      <trkpt lat="46.17930930107832" lon="10.902361404150724">
        <ele>2935.83984375</ele>
      </trkpt>
      <trkpt lat="46.179320029914379" lon="10.902286134660244">
        <ele>2943.64453125</ele>
      </trkpt>
      <trkpt lat="46.179306535050273" lon="10.902214385569096">
        <ele>2950.1015625</ele>
      </trkpt>
      <trkpt lat="46.179328160360456" lon="10.902114054188132">
        <ele>2962.0078125</ele>
      </trkpt>
      <trkpt lat="46.179395467042923" lon="10.901949098333716">
        <ele>2986.57421875</ele>
      </trkpt>
      <trkpt lat="46.179433269426227" lon="10.901906099170446">
        <ele>2993.22265625</ele>
      </trkpt>
      <trkpt lat="46.179522201418877" lon="10.901780622079968">
        <ele>3002.34375</ele>
      </trkpt>
      <trkpt lat="46.179522201418877" lon="10.901723289862275">
        <ele>3006.17578125</ele>
      </trkpt>
      <trkpt lat="46.17950870655477" lon="10.901687415316701">
        <ele>3008.58984375</ele>
      </trkpt>
      <trkpt lat="46.179470987990499" lon="10.901694623753428">
        <ele>3009.1953125</ele>
      </trkpt>
      <trkpt lat="46.17943050339818" lon="10.901705352589488">
        <ele>3008.6171875</ele>
      </trkpt>
      <trkpt lat="46.179395467042923" lon="10.901737622916698">
        <ele>3003.6796875</ele>
      </trkpt>
      <trkpt lat="46.179355066269636" lon="10.901741227135062">
        <ele>3000.6171875</ele>
      </trkpt>
      <trkpt lat="46.179317347705364" lon="10.901762684807181">
        <ele>2996.5703125</ele>
      </trkpt>
      <trkpt lat="46.179212657734752" lon="10.901801828294992">
        <ele>2987.3046875</ele>
      </trkpt>
      <trkpt lat="46.179193630814552" lon="10.901787327602506">
        <ele>2986.3203125</ele>
      </trkpt>
      <trkpt lat="46.179104698821902" lon="10.901837535202503">
        <ele>2973.6015625</ele>
      </trkpt>
      <trkpt lat="46.179058849811554" lon="10.901826722547412">
        <ele>2969.14453125</ele>
      </trkpt>
      <trkpt lat="46.178999589756131" lon="10.901765786111355">
        <ele>2966.24609375</ele>
      </trkpt>
      <trkpt lat="46.178959188982844" lon="10.901772994548082">
        <ele>2961.87109375</ele>
      </trkpt>
      <trkpt lat="46.178929517045617" lon="10.901794452220201">
        <ele>2958.0703125</ele>
      </trkpt>
      <trkpt lat="46.178886434063315" lon="10.901794452220201">
        <ele>2954.51171875</ele>
      </trkpt>
      <trkpt lat="46.178794736042619" lon="10.901708453893661">
        <ele>2954.203125</ele>
      </trkpt>
      <trkpt lat="46.178695075213909" lon="10.901686912402511">
        <ele>2952.59765625</ele>
      </trkpt>
      <trkpt lat="46.178670767694712" lon="10.901747848838568">
        <ele>2946.296875</ele>
      </trkpt>
      <trkpt lat="46.178598012775183" lon="10.901751453056931">
        <ele>2945.1484375</ele>
      </trkpt>
      <trkpt lat="46.178525257855654" lon="10.901801660656929">
        <ele>2938.54296875</ele>
      </trkpt>
      <trkpt lat="46.178487539291382" lon="10.901719182729721">
        <ele>2947.3046875</ele>
      </trkpt>
      <trkpt lat="46.178471362218261" lon="10.901726391166449">
        <ele>2946.08203125</ele>
      </trkpt>
      <trkpt lat="46.178430961444974" lon="10.901658246293664">
        <ele>2953.13671875</ele>
      </trkpt>
      <trkpt lat="46.178387794643641" lon="10.901636788621545">
        <ele>2954.6953125</ele>
      </trkpt>
      <trkpt lat="46.178320487961173" lon="10.901704849675298">
        <ele>2944.13671875</ele>
      </trkpt>
      <trkpt lat="46.17827732115984" lon="10.901758661493659">
        <ele>2938.38671875</ele>
      </trkpt>
      <trkpt lat="46.178207248449326" lon="10.901740724220872">
        <ele>2937.0078125</ele>
      </trkpt>
      <trkpt lat="46.178207248449326" lon="10.901661850512028">
        <ele>2944.93359375</ele>
      </trkpt>
      <trkpt lat="46.178207248449326" lon="10.901582976803184">
        <ele>2954.625</ele>
      </trkpt>
      <trkpt lat="46.178199201822281" lon="10.901547102257609">
        <ele>2958.54296875</ele>
      </trkpt>
      <trkpt lat="46.178172212094069" lon="10.901572247967124">
        <ele>2953.9375</ele>
      </trkpt>
      <trkpt lat="46.178153352811933" lon="10.901615247130394">
        <ele>2947.921875</ele>
      </trkpt>
      <trkpt lat="46.17812099866569" lon="10.901618851348758">
        <ele>2945.87890625</ele>
      </trkpt>
      <trkpt lat="46.178083280101418" lon="10.901697725057602">
        <ele>2935.8203125</ele>
      </trkpt>
      <trkpt lat="46.177956629544497" lon="10.901765786111355">
        <ele>2922.5078125</ele>
      </trkpt>
      <trkpt lat="46.177940452471375" lon="10.901672579348087">
        <ele>2931.20703125</ele>
      </trkpt>
      <trkpt lat="46.177900051698089" lon="10.901665454730392">
        <ele>2929.77734375</ele>
      </trkpt>
      <trkpt lat="46.177883874624968" lon="10.901697725057602">
        <ele>2925.74609375</ele>
      </trkpt>
      <trkpt lat="46.177862333133817" lon="10.901651121675968">
        <ele>2929.171875</ele>
      </trkpt>
      <trkpt lat="46.177813801914454" lon="10.901651121675968">
        <ele>2926.94140625</ele>
      </trkpt>
      <trkpt lat="46.177781447768211" lon="10.901597309857607">
        <ele>2931.78125</ele>
      </trkpt>
      <trkpt lat="46.177754541859031" lon="10.90153637342155">
        <ele>2937.6328125</ele>
      </trkpt>
      <trkpt lat="46.177711375057697" lon="10.901504103094339">
        <ele>2940.7421875</ele>
      </trkpt>
      <trkpt lat="46.177603583782911" lon="10.901482561603189">
        <ele>2942.81640625</ele>
      </trkpt>
      <trkpt lat="46.177565949037671" lon="10.901411650702357">
        <ele>2947.19921875</ele>
      </trkpt>
      <trkpt lat="46.177517417818308" lon="10.901354318484664">
        <ele>2948.52734375</ele>
      </trkpt>
      <trkpt lat="46.177463522180915" lon="10.901368651539087">
        <ele>2944.65234375</ele>
      </trkpt>
      <trkpt lat="46.177406944334507" lon="10.90143671259284">
        <ele>2937.125</ele>
      </trkpt>
      <trkpt lat="46.177379954606295" lon="10.901465378701687">
        <ele>2933.73828125</ele>
      </trkpt>
      <trkpt lat="46.177344918251038" lon="10.901458254083991">
        <ele>2931.9140625</ele>
      </trkpt>
      <trkpt lat="46.177301835268736" lon="10.901468982920051">
        <ele>2927.30859375</ele>
      </trkpt>
      <trkpt lat="46.177229080349207" lon="10.901526398956776">
        <ele>2916.3828125</ele>
      </trkpt>
      <trkpt lat="46.177191277965903" lon="10.901555065065622">
        <ele>2911.3515625</ele>
      </trkpt>
      <trkpt lat="46.177121205255389" lon="10.901551460847259">
        <ele>2907</ele>
      </trkpt>
      <trkpt lat="46.17701618000865" lon="10.901468982920051">
        <ele>2908.25</ele>
      </trkpt>
      <trkpt lat="46.17695415392518" lon="10.901465378701687">
        <ele>2906.02734375</ele>
      </trkpt>
      <trkpt lat="46.176862539723516" lon="10.901547856628895">
        <ele>2899.890625</ele>
      </trkpt>
      <trkpt lat="46.176789784803987" lon="10.901644667610526">
        <ele>2894.640625</ele>
      </trkpt>
      <trkpt lat="46.176703535020351" lon="10.901770144701004">
        <ele>2888.19921875</ele>
      </trkpt>
      <trkpt lat="46.176655003800988" lon="10.901863351464272">
        <ele>2884.5078125</ele>
      </trkpt>
      <trkpt lat="46.176595743745565" lon="10.901884892955422">
        <ele>2885.484375</ele>
      </trkpt>
      <trkpt lat="46.176469093188643" lon="10.902049764990807">
        <ele>2886.4375</ele>
      </trkpt>
      <trkpt lat="46.176417879760265" lon="10.902060493826866">
        <ele>2888.53125</ele>
      </trkpt>
      <trkpt lat="46.176323499530554" lon="10.902135847136378">
        <ele>2895.66796875</ele>
      </trkpt>
      <trkpt lat="46.176191484555602" lon="10.902214720845222">
        <ele>2906.04296875</ele>
      </trkpt>
      <trkpt lat="46.176102552562952" lon="10.902272053062916">
        <ele>2917.01953125</ele>
      </trkpt>
      <trkpt lat="46.176056703552604" lon="10.902304323390126">
        <ele>2923.57421875</ele>
      </trkpt>
      <trkpt lat="46.176013620570302" lon="10.90236165560782">
        <ele>2930.58984375</ele>
      </trkpt>
      <trkpt lat="46.17596073076129" lon="10.90238319709897">
        <ele>2937.02734375</ele>
      </trkpt>
      <trkpt lat="46.175931058824062" lon="10.902408258989453">
        <ele>2935.75390625</ele>
      </trkpt>
      <trkpt lat="46.175885293632746" lon="10.902415467426181">
        <ele>2935.2578125</ele>
      </trkpt>
      <trkpt lat="46.175825949758291" lon="10.9024369250983">
        <ele>2933.4609375</ele>
      </trkpt>
      <trkpt lat="46.175815220922232" lon="10.902462070807815">
        <ele>2931.30859375</ele>
      </trkpt>
      <trkpt lat="46.175734587013721" lon="10.902476571500301">
        <ele>2928.27734375</ele>
      </trkpt>
      <trkpt lat="46.175721175968647" lon="10.902501633390784">
        <ele>2924.7109375</ele>
      </trkpt>
      <trkpt lat="46.175694186240435" lon="10.902505237609148">
        <ele>2921.98046875</ele>
      </trkpt>
      <trkpt lat="46.175616066902876" lon="10.902591235935688">
        <ele>2907.484375</ele>
      </trkpt>
      <trkpt lat="46.17559720762074" lon="10.902573382481933">
        <ele>2907.45703125</ele>
      </trkpt>
      <trkpt lat="46.175564853474498" lon="10.902576902881265">
        <ele>2904.4140625</ele>
      </trkpt>
      <trkpt lat="46.175519004464149" lon="10.902584111317992">
        <ele>2899.94140625</ele>
      </trkpt>
      <trkpt lat="46.175492098554969" lon="10.902566174045205">
        <ele>2900.6953125</ele>
      </trkpt>
      <trkpt lat="46.175470557063818" lon="10.902566174045205">
        <ele>2900.29296875</ele>
      </trkpt>
      <trkpt lat="46.175492098554969" lon="10.902598444372416">
        <ele>2898.125</ele>
      </trkpt>
      <trkpt lat="46.175486650317907" lon="10.902623506262898">
        <ele>2896.2109375</ele>
      </trkpt>
      <trkpt lat="46.175467791035771" lon="10.902627110481262">
        <ele>2895.8046875</ele>
      </trkpt>
      <trkpt lat="46.17545161396265" lon="10.90263431891799">
        <ele>2895.28125</ele>
      </trkpt>
      <trkpt lat="46.175440885126591" lon="10.902587715536356">
        <ele>2898.1484375</ele>
      </trkpt>
      <trkpt lat="46.175435520708561" lon="10.902558965608478">
        <ele>2900.16796875</ele>
      </trkpt>
      <trkpt lat="46.175416661426425" lon="10.902562569826841">
        <ele>2899.54296875</ele>
      </trkpt>
      <trkpt lat="46.175386989489198" lon="10.902558965608478">
        <ele>2899.22265625</ele>
      </trkpt>
      <trkpt lat="46.175368130207062" lon="10.902530299499631">
        <ele>2900.73828125</ele>
      </trkpt>
      <trkpt lat="46.175359999760985" lon="10.902498029172421">
        <ele>2902.6484375</ele>
      </trkpt>
      <trkpt lat="46.175346588715911" lon="10.902501633390784">
        <ele>2902.06640625</ele>
      </trkpt>
      <trkpt lat="46.175319598987699" lon="10.902469363063574">
        <ele>2903.30859375</ele>
      </trkpt>
      <trkpt lat="46.175306104123592" lon="10.902440696954727">
        <ele>2904.59375</ele>
      </trkpt>
      <trkpt lat="46.175276516005397" lon="10.902415635064244">
        <ele>2905.55859375</ele>
      </trkpt>
      <trkpt lat="46.175244161859155" lon="10.902404822409153">
        <ele>2907.05859375</ele>
      </trkpt>
      <trkpt lat="46.175238713622093" lon="10.902429968118668">
        <ele>2905.90234375</ele>
      </trkpt>
      <trkpt lat="46.175225302577019" lon="10.90246575884521">
        <ele>2904.48828125</ele>
      </trkpt>
      <trkpt lat="46.175209125503898" lon="10.902480175718665">
        <ele>2904.32421875</ele>
      </trkpt>
      <trkpt lat="46.1751848179847" lon="10.902458634227514">
        <ele>2906.18359375</ele>
      </trkpt>
      <trkpt lat="46.175165958702564" lon="10.902440696954727">
        <ele>2907.61328125</ele>
      </trkpt>
      <trkpt lat="46.175160594284534" lon="10.902415635064244">
        <ele>2908.8984375</ele>
      </trkpt>
      <trkpt lat="46.17515791207552" lon="10.90239048935473">
        <ele>2910.09375</ele>
      </trkpt>
      <trkpt lat="46.17517945356667" lon="10.902354698628187">
        <ele>2911.07421875</ele>
      </trkpt>
      <trkpt lat="46.1751848179847" lon="10.902318824082613">
        <ele>2912.53125</ele>
      </trkpt>
      <trkpt lat="46.175192948430777" lon="10.902272220700979">
        <ele>2914.515625</ele>
      </trkpt>
      <trkpt lat="46.175160594284534" lon="10.902239950373769">
        <ele>2916.015625</ele>
      </trkpt>
      <trkpt lat="46.175136370584369" lon="10.902229221537709">
        <ele>2916.4296875</ele>
      </trkpt>
      <trkpt lat="46.175104016438127" lon="10.902150347828865">
        <ele>2918.67578125</ele>
      </trkpt>
      <trkpt lat="46.175120193511248" lon="10.902121597900987">
        <ele>2919</ele>
      </trkpt>
      <trkpt lat="46.175050120800734" lon="10.9020069334656">
        <ele>2919.98828125</ele>
      </trkpt>
      <trkpt lat="46.174990860745311" lon="10.901992600411177">
        <ele>2921.1953125</ele>
      </trkpt>
      <trkpt lat="46.174899162724614" lon="10.901945997029543">
        <ele>2924.3125</ele>
      </trkpt>
      <trkpt lat="46.174821043387055" lon="10.901902914047241">
        <ele>2927.796875</ele>
      </trkpt>
      <trkpt lat="46.174786007031798" lon="10.901902914047241">
        <ele>2927.2265625</ele>
      </trkpt>
      <trkpt lat="46.174702439457178" lon="10.901809707283974">
        <ele>2927.80859375</ele>
      </trkpt>
      <trkpt lat="46.174653992056847" lon="10.901759583503008">
        <ele>2927.01953125</ele>
      </trkpt>
      <trkpt lat="46.174627002328634" lon="10.901738042011857">
        <ele>2926.203125</ele>
      </trkpt>
      <trkpt lat="46.174613507464528" lon="10.901748770847917">
        <ele>2925.5703125</ele>
      </trkpt>
      <trkpt lat="46.174594648182392" lon="10.901738042011857">
        <ele>2924.875</ele>
      </trkpt>
      <trkpt lat="46.174581153318286" lon="10.901738042011857">
        <ele>2923.83203125</ele>
      </trkpt>
      <trkpt lat="46.174570424482226" lon="10.90170937590301">
        <ele>2922.9453125</ele>
      </trkpt>
      <trkpt lat="46.174513846635818" lon="10.901755979284644">
        <ele>2918.453125</ele>
      </trkpt>
      <trkpt lat="46.174432961270213" lon="10.901841977611184">
        <ele>2914.25</ele>
      </trkpt>
      <trkpt lat="46.174362888559699" lon="10.901874247938395">
        <ele>2911.078125</ele>
      </trkpt>
      <trkpt lat="46.174311675131321" lon="10.901967454701662">
        <ele>2909.85546875</ele>
      </trkpt>
      <trkpt lat="46.174308992922306" lon="10.901920851320028">
        <ele>2908.2265625</ele>
      </trkpt>
      <trkpt lat="46.174306310713291" lon="10.901874247938395">
        <ele>2905.98046875</ele>
      </trkpt>
      <trkpt lat="46.174279320985079" lon="10.901874247938395">
        <ele>2903.53515625</ele>
      </trkpt>
      <trkpt lat="46.174249732866883" lon="10.901881456375122">
        <ele>2901.203125</ele>
      </trkpt>
      <trkpt lat="46.174222743138671" lon="10.901892185211182">
        <ele>2899.3046875</ele>
      </trkpt>
      <trkpt lat="46.174198435619473" lon="10.901928227394819">
        <ele>2898.9296875</ele>
      </trkpt>
      <trkpt lat="46.174174128100276" lon="10.902021434158087">
        <ele>2900.23828125</ele>
      </trkpt>
      <trkpt lat="46.174133727326989" lon="10.902100307866931">
        <ele>2900.02734375</ele>
      </trkpt>
      <trkpt lat="46.174112185835838" lon="10.902125369757414">
        <ele>2898.58984375</ele>
      </trkpt>
      <trkpt lat="46.174090644344687" lon="10.902164848521352">
        <ele>2897.11328125</ele>
      </trkpt>
      <trkpt lat="46.174079831689596" lon="10.902186390012503">
        <ele>2895.68359375</ele>
      </trkpt>
      <trkpt lat="46.174071785062551" lon="10.902211451902986">
        <ele>2894.578125</ele>
      </trkpt>
      <trkpt lat="46.174063654616475" lon="10.902218660339713">
        <ele>2893.62109375</ele>
      </trkpt>
      <trkpt lat="46.174052925780416" lon="10.902236513793468">
        <ele>2892.33203125</ele>
      </trkpt>
      <trkpt lat="46.174033982679248" lon="10.902250846847892">
        <ele>2890.203125</ele>
      </trkpt>
      <trkpt lat="46.174033982679248" lon="10.902283117175102">
        <ele>2890.078125</ele>
      </trkpt>
      <trkpt lat="46.174001712352037" lon="10.902293929830194">
        <ele>2886.68359375</ele>
      </trkpt>
      <trkpt lat="46.173988217487931" lon="10.902308262884617">
        <ele>2885.28515625</ele>
      </trkpt>
      <trkpt lat="46.173961227759719" lon="10.902293929830194">
        <ele>2882.47265625</ele>
      </trkpt>
      <trkpt lat="46.17396667599678" lon="10.902250846847892">
        <ele>2882.9296875</ele>
      </trkpt>
      <trkpt lat="46.173990899696946" lon="10.902204243466258">
        <ele>2885.5390625</ele>
      </trkpt>
      <trkpt lat="46.174012441188097" lon="10.902186390012503">
        <ele>2887.9921875</ele>
      </trkpt>
      <trkpt lat="46.174025936052203" lon="10.902154119685292">
        <ele>2889.59765625</ele>
      </trkpt>
      <trkpt lat="46.174028618261218" lon="10.902121849358082">
        <ele>2888.77734375</ele>
      </trkpt>
      <trkpt lat="46.174047477543354" lon="10.902053704485297">
        <ele>2888.515625</ele>
      </trkpt>
      <trkpt lat="46.174042113125324" lon="10.901978434994817">
        <ele>2885.2265625</ele>
      </trkpt>
      <trkpt lat="46.174025936052203" lon="10.901978434994817">
        <ele>2883.4375</ele>
      </trkpt>
      <trkpt lat="46.173993581905961" lon="10.901989163830876">
        <ele>2880.23046875</ele>
      </trkpt>
      <trkpt lat="46.173969358205795" lon="10.902021434158087">
        <ele>2878.609375</ele>
      </trkpt>
      <trkpt lat="46.173947816714644" lon="10.902068037539721">
        <ele>2877.69140625</ele>
      </trkpt>
      <trkpt lat="46.173939686268568" lon="10.902111036702991">
        <ele>2878.1328125</ele>
      </trkpt>
      <trkpt lat="46.173923509195447" lon="10.902125369757414">
        <ele>2876.71484375</ele>
      </trkpt>
      <trkpt lat="46.173923509195447" lon="10.902139786630869">
        <ele>2877.1640625</ele>
      </trkpt>
      <trkpt lat="46.173910014331341" lon="10.902154119685292">
        <ele>2876.03125</ele>
      </trkpt>
      <trkpt lat="46.173896603286266" lon="10.902143307030201">
        <ele>2873.96875</ele>
      </trkpt>
      <trkpt lat="46.173880426213145" lon="10.902114640921354">
        <ele>2870.6640625</ele>
      </trkpt>
      <trkpt lat="46.17388310842216" lon="10.902082370594144">
        <ele>2870.15625</ele>
      </trkpt>
      <trkpt lat="46.173864249140024" lon="10.902075245976448">
        <ele>2867.1796875</ele>
      </trkpt>
      <trkpt lat="46.173866931349039" lon="10.90203576721251">
        <ele>2866.52734375</ele>
      </trkpt>
      <trkpt lat="46.17388310842216" lon="10.90194976888597">
        <ele>2866.3984375</ele>
      </trkpt>
      <trkpt lat="46.173963993787766" lon="10.901885228231549">
        <ele>2873.1171875</ele>
      </trkpt>
      <trkpt lat="46.174033982679248" lon="10.901809958741069">
        <ele>2876.80859375</ele>
      </trkpt>
      <trkpt lat="46.174052925780416" lon="10.901777688413858">
        <ele>2877.0703125</ele>
      </trkpt>
      <trkpt lat="46.174087878316641" lon="10.90170593932271">
        <ele>2876.66796875</ele>
      </trkpt>
      <trkpt lat="46.174044795334339" lon="10.901702418923378">
        <ele>2872.52734375</ele>
      </trkpt>
      <trkpt lat="46.174023253843188" lon="10.901666544377804">
        <ele>2869.75</ele>
      </trkpt>
      <trkpt lat="46.174004394561052" lon="10.901645002886653">
        <ele>2867.87109375</ele>
      </trkpt>
      <trkpt lat="46.173926191404462" lon="10.901609128341079">
        <ele>2861.34375</ele>
      </trkpt>
      <trkpt lat="46.173885790631175" lon="10.901616336777806">
        <ele>2858.109375</ele>
      </trkpt>
      <trkpt lat="46.173918144777417" lon="10.901584066450596">
        <ele>2860.7578125</ele>
      </trkpt>
      <trkpt lat="46.173961227759719" lon="10.901465797796845">
        <ele>2863.41015625</ele>
      </trkpt>
      <trkpt lat="46.173998946323991" lon="10.901462193578482">
        <ele>2865.52734375</ele>
      </trkpt>
      <trkpt lat="46.173998946323991" lon="10.901390444487333">
        <ele>2866.06640625</ele>
      </trkpt>
      <trkpt lat="46.174015123397112" lon="10.901325987651944">
        <ele>2867.3359375</ele>
      </trkpt>
      <trkpt lat="46.17406097240746" lon="10.901325987651944">
        <ele>2869.5625</ele>
      </trkpt>
      <trkpt lat="46.174028618261218" lon="10.901282904669642">
        <ele>2868.2421875</ele>
      </trkpt>
      <trkpt lat="46.173998946323991" lon="10.90127938427031">
        <ele>2866.89453125</ele>
      </trkpt>
      <trkpt lat="46.17397204041481" lon="10.90127938427031">
        <ele>2865.66015625</ele>
      </trkpt>
      <trkpt lat="46.173912780359387" lon="10.901221968233585">
        <ele>2863.47265625</ele>
      </trkpt>
      <trkpt lat="46.173907332122326" lon="10.901135969907045">
        <ele>2862.8828125</ele>
      </trkpt>
      <trkpt lat="46.173945050686598" lon="10.900999680161476">
        <ele>2864.23828125</ele>
      </trkpt>
      <trkpt lat="46.174050159752369" lon="10.900888619944453">
        <ele>2866.50390625</ele>
      </trkpt>
      <trkpt lat="46.174079831689596" lon="10.900838412344456">
        <ele>2866.5078125</ele>
      </trkpt>
      <trkpt lat="46.174117550253868" lon="10.900838412344456">
        <ele>2868.35546875</ele>
      </trkpt>
      <trkpt lat="46.174152586609125" lon="10.900824079290032">
        <ele>2869.72265625</ele>
      </trkpt>
      <trkpt lat="46.174192987382412" lon="10.900798933580518">
        <ele>2871.0703125</ele>
      </trkpt>
      <trkpt lat="46.174206482246518" lon="10.900752330198884">
        <ele>2869.73046875</ele>
      </trkpt>
      <trkpt lat="46.174206482246518" lon="10.900709331035614">
        <ele>2867.0546875</ele>
      </trkpt>
      <trkpt lat="46.174246883019805" lon="10.900648394599557">
        <ele>2865.5546875</ele>
      </trkpt>
      <trkpt lat="46.174314273521304" lon="10.900583853945136">
        <ele>2865.61328125</ele>
      </trkpt>
      <trkpt lat="46.174368169158697" lon="10.900504980236292">
        <ele>2864.15234375</ele>
      </trkpt>
      <trkpt lat="46.174405887722969" lon="10.900458376854658">
        <ele>2863.15625</ele>
      </trkpt>
      <trkpt lat="46.174419382587075" lon="10.900393836200237">
        <ele>2859.76171875</ele>
      </trkpt>
      <trkpt lat="46.174481408670545" lon="10.900411773473024">
        <ele>2863.81640625</ele>
      </trkpt>
      <trkpt lat="46.174513762816787" lon="10.900418981909752">
        <ele>2865.8203125</ele>
      </trkpt>
      <trkpt lat="46.174521809443831" lon="10.900383107364178">
        <ele>2863.8125</ele>
      </trkpt>
      <trkpt lat="46.174508314579725" lon="10.900340108200908">
        <ele>2860.34375</ele>
      </trkpt>
      <trkpt lat="46.17451099678874" lon="10.900314962491393">
        <ele>2858.796875</ele>
      </trkpt>
      <trkpt lat="46.174537986516953" lon="10.900329295545816">
        <ele>2860.9375</ele>
      </trkpt>
      <trkpt lat="46.174530358985066" lon="10.900296606123447">
        <ele>2858.37890625</ele>
      </trkpt>
      <trkpt lat="46.174543853849173" lon="10.900275064632297">
        <ele>2857.46875</ele>
      </trkpt>
      <trkpt lat="46.174530358985066" lon="10.900264335796237">
        <ele>2856.140625</ele>
      </trkpt>
      <trkpt lat="46.174530358985066" lon="10.90023566968739">
        <ele>2854.15234375</ele>
      </trkpt>
      <trkpt lat="46.174524994567037" lon="10.900214128196239">
        <ele>2852.42578125</ele>
      </trkpt>
      <trkpt lat="46.174508817493916" lon="10.900189066305757">
        <ele>2849.984375</ele>
      </trkpt>
      <trkpt lat="46.174514181911945" lon="10.90016040019691">
        <ele>2848.23046875</ele>
      </trkpt>
      <trkpt lat="46.174530358985066" lon="10.900142462924123">
        <ele>2847.6875</ele>
      </trkpt>
      <trkpt lat="46.174519546329975" lon="10.900120921432972">
        <ele>2845.72265625</ele>
      </trkpt>
      <trkpt lat="46.174506135284901" lon="10.900059984996915">
        <ele>2840.875</ele>
      </trkpt>
      <trkpt lat="46.174514181911945" lon="10.900013381615281">
        <ele>2837.92578125</ele>
      </trkpt>
      <trkpt lat="46.174530358985066" lon="10.899991923943162">
        <ele>2837.2109375</ele>
      </trkpt>
      <trkpt lat="46.174519546329975" lon="10.899973986670375">
        <ele>2835.40625</ele>
      </trkpt>
      <trkpt lat="46.174506135284901" lon="10.899970382452011">
        <ele>2834.4609375</ele>
      </trkpt>
      <trkpt lat="46.174498004838824" lon="10.899938112124801">
        <ele>2831.71484375</ele>
      </trkpt>
      <trkpt lat="46.17448995821178" lon="10.899909446015954">
        <ele>2829.1953125</ele>
      </trkpt>
      <trkpt lat="46.174487276002765" lon="10.89987357147038">
        <ele>2826.42578125</ele>
      </trkpt>
      <trkpt lat="46.174476463347673" lon="10.899866446852684">
        <ele>2825.265625</ele>
      </trkpt>
      <trkpt lat="46.174457604065537" lon="10.89986284263432">
        <ele>2823.875</ele>
      </trkpt>
      <trkpt lat="46.174444109201431" lon="10.899844905361533">
        <ele>2821.75</ele>
      </trkpt>
      <trkpt lat="46.174460286274552" lon="10.899816239252687">
        <ele>2820.94140625</ele>
      </trkpt>
      <trkpt lat="46.174460286274552" lon="10.899783968925476">
        <ele>2818.921875</ele>
      </trkpt>
      <trkpt lat="46.174457604065537" lon="10.899766031652689">
        <ele>2817.640625</ele>
      </trkpt>
      <trkpt lat="46.174452239647508" lon="10.899737365543842">
        <ele>2815.53515625</ele>
      </trkpt>
      <trkpt lat="46.174473781138659" lon="10.899715824052691">
        <ele>2815.4453125</ele>
      </trkpt>
      <trkpt lat="46.174492640420794" lon="10.899694366380572">
        <ele>2815.1875</ele>
      </trkpt>
      <trkpt lat="46.174500687047839" lon="10.899651283398271">
        <ele>2812.92578125</ele>
      </trkpt>
      <trkpt lat="46.174487276002765" lon="10.899629825726151">
        <ele>2810.80859375</ele>
      </trkpt>
      <trkpt lat="46.174519546329975" lon="10.89961901307106">
        <ele>2811.94921875</ele>
      </trkpt>
      <trkpt lat="46.174543853849173" lon="10.899611888453364">
        <ele>2813.03125</ele>
      </trkpt>
      <trkpt lat="46.174568077549338" lon="10.899604680016637">
        <ele>2814.12109375</ele>
      </trkpt>
      <trkpt lat="46.174576207995415" lon="10.89957601390779">
        <ele>2813.49609375</ele>
      </trkpt>
      <trkpt lat="46.174560030922294" lon="10.899558076635003">
        <ele>2812.00390625</ele>
      </trkpt>
      <trkpt lat="46.174546536058187" lon="10.89954374358058">
        <ele>2810.8203125</ele>
      </trkpt>
      <trkpt lat="46.174530358985066" lon="10.89954374358058">
        <ele>2810.0234375</ele>
      </trkpt>
      <trkpt lat="46.174514181911945" lon="10.899525806307793">
        <ele>2808.65625</ele>
      </trkpt>
      <trkpt lat="46.17451149970293" lon="10.899497140198946">
        <ele>2807.62890625</ele>
      </trkpt>
      <trkpt lat="46.174492640420794" lon="10.899475682526827">
        <ele>2806.14453125</ele>
      </trkpt>
      <trkpt lat="46.17448995821178" lon="10.899436203762889">
        <ele>2804.87109375</ele>
      </trkpt>
      <trkpt lat="46.174508817493916" lon="10.899389600381255">
        <ele>2804.1640625</ele>
      </trkpt>
      <trkpt lat="46.174524994567037" lon="10.899350205436349">
        <ele>2802.7578125</ele>
      </trkpt>
      <trkpt lat="46.174535723403096" lon="10.899325059726834">
        <ele>2801.7890625</ele>
      </trkpt>
      <trkpt lat="46.174546536058187" lon="10.899296393617988">
        <ele>2800.59765625</ele>
      </trkpt>
      <trkpt lat="46.174546536058187" lon="10.899260519072413">
        <ele>2798.703125</ele>
      </trkpt>
      <trkpt lat="46.174538405612111" lon="10.899249790236354">
        <ele>2797.9375</ele>
      </trkpt>
      <trkpt lat="46.174527676776052" lon="10.899242581799626">
        <ele>2797.3046875</ele>
      </trkpt>
      <trkpt lat="46.17451149970293" lon="10.899264123290777">
        <ele>2798</ele>
      </trkpt>
      <trkpt lat="46.174492640420794" lon="10.899285664781928">
        <ele>2798.57421875</ele>
      </trkpt>
      <trkpt lat="46.174468332901597" lon="10.899307122454047">
        <ele>2798.92578125</ele>
      </trkpt>
      <trkpt lat="46.174452239647508" lon="10.899325059726834">
        <ele>2799.28515625</ele>
      </trkpt>
      <trkpt lat="46.174444109201431" lon="10.899342996999621">
        <ele>2799.84765625</ele>
      </trkpt>
      <trkpt lat="46.174419885501266" lon="10.899339392781258">
        <ele>2798.93359375</ele>
      </trkpt>
      <trkpt lat="46.174395577982068" lon="10.899328663945198">
        <ele>2797.73046875</ele>
      </trkpt>
      <trkpt lat="46.174384849146008" lon="10.899296393617988">
        <ele>2796.09375</ele>
      </trkpt>
      <trkpt lat="46.174299689009786" lon="10.899446848779917">
        <ele>2799.6953125</ele>
      </trkpt>
      <trkpt lat="46.174286277964711" lon="10.899493452161551">
        <ele>2800.36328125</ele>
      </trkpt>
      <trkpt lat="46.174267418682575" lon="10.899568721652031">
        <ele>2801.4140625</ele>
      </trkpt>
      <trkpt lat="46.174256606027484" lon="10.899661928415298">
        <ele>2804.41796875</ele>
      </trkpt>
      <trkpt lat="46.174237746745348" lon="10.899704927578568">
        <ele>2806.3984375</ele>
      </trkpt>
      <trkpt lat="46.174205392599106" lon="10.89971574023366">
        <ele>2806.43359375</ele>
      </trkpt>
      <trkpt lat="46.17418653331697" lon="10.899776676669717">
        <ele>2809.02734375</ele>
      </trkpt>
      <trkpt lat="46.174162309616804" lon="10.899798134341836">
        <ele>2809.50390625</ele>
      </trkpt>
      <trkpt lat="46.174135319888592" lon="10.89974801056087">
        <ele>2806.71875</ele>
      </trkpt>
      <trkpt lat="46.174129955470562" lon="10.899694198742509">
        <ele>2804.33203125</ele>
      </trkpt>
      <trkpt lat="46.174121825024486" lon="10.899647595360875">
        <ele>2802.40625</ele>
      </trkpt>
      <trkpt lat="46.174113778397441" lon="10.899615325033665">
        <ele>2801.19921875</ele>
      </trkpt>
      <trkpt lat="46.174129955470562" lon="10.899600991979241">
        <ele>2800.8046875</ele>
      </trkpt>
      <trkpt lat="46.174094919115305" lon="10.899593867361546">
        <ele>2801.13671875</ele>
      </trkpt>
      <trkpt lat="46.174070695415139" lon="10.899575930088758">
        <ele>2801.15234375</ele>
      </trkpt>
      <trkpt lat="46.174067929387093" lon="10.899518514052033">
        <ele>2800.30078125</ele>
      </trkpt>
      <trkpt lat="46.174057200551033" lon="10.899497056379914">
        <ele>2800.0625</ele>
      </trkpt>
      <trkpt lat="46.174049070104957" lon="10.899446848779917">
        <ele>2799.3203125</ele>
      </trkpt>
      <trkpt lat="46.173968268558383" lon="10.899432515725493">
        <ele>2799.578125</ele>
      </trkpt>
      <trkpt lat="46.173908924683928" lon="10.899328496307135">
        <ele>2797.4453125</ele>
      </trkpt>
      <trkpt lat="46.173841618001461" lon="10.899271164089441">
        <ele>2796.1171875</ele>
      </trkpt>
      <trkpt lat="46.173784956336021" lon="10.899231769144535">
        <ele>2795.30078125</ele>
      </trkpt>
      <trkpt lat="46.173755368217826" lon="10.899213831871748">
        <ele>2794.96875</ele>
      </trkpt>
      <trkpt lat="46.17373650893569" lon="10.899145686998963">
        <ele>2793.35546875</ele>
      </trkpt>
      <trkpt lat="46.173709519207478" lon="10.899117020890117">
        <ele>2792.49609375</ele>
      </trkpt>
      <trkpt lat="46.173658305779099" lon="10.899081146344543">
        <ele>2791.30859375</ele>
      </trkpt>
      <trkpt lat="46.173623269423842" lon="10.899066813290119">
        <ele>2790.5</ele>
      </trkpt>
      <trkpt lat="46.173601727932692" lon="10.899020209908485">
        <ele>2788.40234375</ele>
      </trkpt>
      <trkpt lat="46.173582868650556" lon="10.898984419181943">
        <ele>2786.625</ele>
      </trkpt>
      <trkpt lat="46.173553196713328" lon="10.898973606526852">
        <ele>2785.65234375</ele>
      </trkpt>
      <trkpt lat="46.173518160358071" lon="10.898970002308488">
        <ele>2784.875</ele>
      </trkpt>
      <trkpt lat="46.173499301075935" lon="10.898948544636369">
        <ele>2783.453125</ele>
      </trkpt>
      <trkpt lat="46.173488572239876" lon="10.898909065872431">
        <ele>2781.328125</ele>
      </trkpt>
      <trkpt lat="46.173504749312997" lon="10.898866066709161">
        <ele>2779.75390625</ele>
      </trkpt>
      <trkpt lat="46.173510113731027" lon="10.89883379638195">
        <ele>2778.421875</ele>
      </trkpt>
      <trkpt lat="46.173493936657906" lon="10.898808734491467">
        <ele>2776.98828125</ele>
      </trkpt>
      <trkpt lat="46.173477759584785" lon="10.898808734491467">
        <ele>2776.671875</ele>
      </trkpt>
      <trkpt lat="46.173458900302649" lon="10.89880152605474">
        <ele>2775.9921875</ele>
      </trkpt>
      <trkpt lat="46.173418499529362" lon="10.898808734491467">
        <ele>2775.703125</ele>
      </trkpt>
      <trkpt lat="46.173375332728028" lon="10.898819463327527">
        <ele>2775.7109375</ele>
      </trkpt>
      <trkpt lat="46.173329567536712" lon="10.89884452521801">
        <ele>2776.359375</ele>
      </trkpt>
      <trkpt lat="46.173278354108334" lon="10.898823067545891">
        <ele>2774.84375</ele>
      </trkpt>
      <trkpt lat="46.173283718526363" lon="10.898783588781953">
        <ele>2773.07421875</ele>
      </trkpt>
      <trkpt lat="46.173283718526363" lon="10.898754922673106">
        <ele>2771.74609375</ele>
      </trkpt>
      <trkpt lat="46.173278354108334" lon="10.898744193837047">
        <ele>2771.18359375</ele>
      </trkpt>
      <trkpt lat="46.17329721339047" lon="10.898719048127532">
        <ele>2770.25390625</ele>
      </trkpt>
      <trkpt lat="46.173316072672606" lon="10.898690382018685">
        <ele>2769.18359375</ele>
      </trkpt>
      <trkpt lat="46.173281036317348" lon="10.898654591292143">
        <ele>2767.06640625</ele>
      </trkpt>
      <trkpt lat="46.173248682171106" lon="10.898647382855415">
        <ele>2766.28125</ele>
      </trkpt>
      <trkpt lat="46.173227140679955" lon="10.898622320964932">
        <ele>2764.796875</ele>
      </trkpt>
      <trkpt lat="46.173181291669607" lon="10.898622320964932">
        <ele>2764.09375</ele>
      </trkpt>
      <trkpt lat="46.173175927251577" lon="10.898568509146571">
        <ele>2761.47265625</ele>
      </trkpt>
      <trkpt lat="46.173149021342397" lon="10.898557780310512">
        <ele>2760.5703125</ele>
      </trkpt>
      <trkpt lat="46.173103172332048" lon="10.898568509146571">
        <ele>2760.38671875</ele>
      </trkpt>
      <trkpt lat="46.173081630840898" lon="10.898579237982631">
        <ele>2760.55078125</ele>
      </trkpt>
      <trkpt lat="46.173060089349747" lon="10.898568509146571">
        <ele>2759.7421875</ele>
      </trkpt>
      <trkpt lat="46.17305195890367" lon="10.898529114201665">
        <ele>2757.85546875</ele>
      </trkpt>
      <trkpt lat="46.173011558130383" lon="10.898539843037724">
        <ele>2757.75390625</ele>
      </trkpt>
      <trkpt lat="46.173003427684307" lon="10.898500364273787">
        <ele>2755.90625</ele>
      </trkpt>
      <trkpt lat="46.172987250611186" lon="10.898464573547244">
        <ele>2754.12890625</ele>
      </trkpt>
      <trkpt lat="46.17296302691102" lon="10.898450240492821">
        <ele>2753.19921875</ele>
      </trkpt>
      <trkpt lat="46.172960344702005" lon="10.898407157510519">
        <ele>2751.7265625</ele>
      </trkpt>
      <trkpt lat="46.172906449064612" lon="10.898392824456096">
        <ele>2750.4453125</ele>
      </trkpt>
      <trkpt lat="46.172890271991491" lon="10.898346221074462">
        <ele>2748.97265625</ele>
      </trkpt>
      <trkpt lat="46.1728794593364" lon="10.898321159183979">
        <ele>2748.22265625</ele>
      </trkpt>
      <trkpt lat="46.172863366082311" lon="10.898313950747252">
        <ele>2747.91796875</ele>
      </trkpt>
      <trkpt lat="46.172855403274298" lon="10.898324763402343">
        <ele>2748.109375</ele>
      </trkpt>
      <trkpt lat="46.172820366919041" lon="10.898281680420041">
        <ele>2746.953125</ele>
      </trkpt>
      <trkpt lat="46.172809554263949" lon="10.898253014311194">
        <ele>2746.36328125</ele>
      </trkpt>
      <trkpt lat="46.172785330563784" lon="10.898253014311194">
        <ele>2746.3203125</ele>
      </trkpt>
      <trkpt lat="46.172758340835571" lon="10.898235077038407">
        <ele>2746.01953125</ele>
      </trkpt>
      <trkpt lat="46.172750294208527" lon="10.898195682093501">
        <ele>2745.3359375</ele>
      </trkpt>
      <trkpt lat="46.172725986689329" lon="10.898177744820714">
        <ele>2745.26953125</ele>
      </trkpt>
      <trkpt lat="46.172707127407193" lon="10.898167015984654">
        <ele>2745.2421875</ele>
      </trkpt>
      <trkpt lat="46.172707127407193" lon="10.898113204166293">
        <ele>2744.0625</ele>
      </trkpt>
      <trkpt lat="46.172728752717376" lon="10.898120412603021">
        <ele>2744.12109375</ele>
      </trkpt>
      <trkpt lat="46.172758340835571" lon="10.898102475330234">
        <ele>2743.671875</ele>
      </trkpt>
      <trkpt lat="46.172817684710026" lon="10.898059476166964">
        <ele>2742.51953125</ele>
      </trkpt>
      <trkpt lat="46.172779966145754" lon="10.898019997403026">
        <ele>2742.03515625</ele>
      </trkpt>
      <trkpt lat="46.172790694981813" lon="10.897962665185332">
        <ele>2740.81640625</ele>
      </trkpt>
      <trkpt lat="46.172812236472964" lon="10.897930394858122">
        <ele>2740.04296875</ele>
      </trkpt>
      <trkpt lat="46.172820366919041" lon="10.897862249985337">
        <ele>2738.703125</ele>
      </trkpt>
      <trkpt lat="46.172860767692327" lon="10.897797709330916">
        <ele>2737.44140625</ele>
      </trkpt>
      <trkpt lat="46.17288775742054" lon="10.897786980494857">
        <ele>2737.2421875</ele>
      </trkpt>
      <trkpt lat="46.172884991392493" lon="10.89776904322207">
        <ele>2736.8125</ele>
      </trkpt>
      <trkpt lat="46.172890439629555" lon="10.897733168676496">
        <ele>2734.76953125</ele>
      </trkpt>
      <trkpt lat="46.17288775742054" lon="10.897708106786013">
        <ele>2733.33203125</ele>
      </trkpt>
      <trkpt lat="46.172866132110357" lon="10.897704502567649">
        <ele>2733.04296875</ele>
      </trkpt>
      <trkpt lat="46.172847272828221" lon="10.89771531522274">
        <ele>2733.61328125</ele>
      </trkpt>
      <trkpt lat="46.172832604497671" lon="10.897696204483509">
        <ele>2732.4140625</ele>
      </trkpt>
      <trkpt lat="46.172821875661612" lon="10.897678267210722">
        <ele>2731.27734375</ele>
      </trkpt>
      <trkpt lat="46.172797568142414" lon="10.897703412920237">
        <ele>2732.71484375</ele>
      </trkpt>
      <trkpt lat="46.172781474888325" lon="10.897710537537932">
        <ele>2733.1015625</ele>
      </trkpt>
      <trkpt lat="46.172762531787157" lon="10.897721350193024">
        <ele>2733.73046875</ele>
      </trkpt>
      <trkpt lat="46.172749120742083" lon="10.897706933319569">
        <ele>2732.75390625</ele>
      </trkpt>
      <trkpt lat="46.172735625877976" lon="10.89771774597466">
        <ele>2733.3125</ele>
      </trkpt>
      <trkpt lat="46.172730261459947" lon="10.897692600265145">
        <ele>2731.5859375</ele>
      </trkpt>
      <trkpt lat="46.172732943668962" lon="10.897649601101875">
        <ele>2728.79296875</ele>
      </trkpt>
      <trkpt lat="46.172735625877976" lon="10.897599393501878">
        <ele>2725.53515625</ele>
      </trkpt>
      <trkpt lat="46.172735625877976" lon="10.897545665502548">
        <ele>2722.00390625</ele>
      </trkpt>
      <trkpt lat="46.172735625877976" lon="10.897516999393702">
        <ele>2719.9921875</ele>
      </trkpt>
      <trkpt lat="46.17271676659584" lon="10.897538457065821">
        <ele>2721.09765625</ele>
      </trkpt>
      <trkpt lat="46.172697907313704" lon="10.897585060447454">
        <ele>2723.8671875</ele>
      </trkpt>
      <trkpt lat="46.172679048031569" lon="10.897620934993029">
        <ele>2725.9765625</ele>
      </trkpt>
      <trkpt lat="46.172665553167462" lon="10.897649601101875">
        <ele>2727.7421875</ele>
      </trkpt>
      <trkpt lat="46.172660188749433" lon="10.897681871429086">
        <ele>2729.9140625</ele>
      </trkpt>
      <trkpt lat="46.172630516812205" lon="10.897689079865813">
        <ele>2730.0234375</ele>
      </trkpt>
      <trkpt lat="46.172600844874978" lon="10.897692600265145">
        <ele>2729.8828125</ele>
      </trkpt>
      <trkpt lat="46.172573938965797" lon="10.897721350193024">
        <ele>2731.6796875</ele>
      </trkpt>
      <trkpt lat="46.172555079683661" lon="10.897767953574657">
        <ele>2735</ele>
      </trkpt>
      <trkpt lat="46.172555079683661" lon="10.8978037443012">
        <ele>2736.01171875</ele>
      </trkpt>
      <trkpt lat="46.172541584819555" lon="10.897839618846774">
        <ele>2736.671875</ele>
      </trkpt>
      <trkpt lat="46.17251736111939" lon="10.897875493392348">
        <ele>2737.23828125</ele>
      </trkpt>
      <trkpt lat="46.172511912882328" lon="10.897990157827735">
        <ele>2739.65234375</ele>
      </trkpt>
      <trkpt lat="46.172511912882328" lon="10.898065511137247">
        <ele>2742.59375</ele>
      </trkpt>
      <trkpt lat="46.172511912882328" lon="10.89812284335494">
        <ele>2745.02734375</ele>
      </trkpt>
      <trkpt lat="46.172490371391177" lon="10.898162238299847">
        <ele>2745.84375</ele>
      </trkpt>
      <trkpt lat="46.172471512109041" lon="10.898183779790998">
        <ele>2745.859375</ele>
      </trkpt>
      <trkpt lat="46.17242842912674" lon="10.898269778117537">
        <ele>2744.61328125</ele>
      </trkpt>
      <trkpt lat="46.172390626743436" lon="10.898323589935899">
        <ele>2741.48046875</ele>
      </trkpt>
      <trkpt lat="46.172358356416225" lon="10.898359464481473">
        <ele>2739.0234375</ele>
      </trkpt>
      <trkpt lat="46.172338742762804" lon="10.898391734808683">
        <ele>2737.3046875</ele>
      </trkpt>
      <trkpt lat="46.172322565689683" lon="10.898449067026377">
        <ele>2735.21875</ele>
      </trkpt>
      <trkpt lat="46.172309154644608" lon="10.898517211899161">
        <ele>2735.56640625</ele>
      </trkpt>
      <trkpt lat="46.172314519062638" lon="10.898578148335218">
        <ele>2737.4296875</ele>
      </trkpt>
      <trkpt lat="46.172314519062638" lon="10.898621147498488">
        <ele>2738.546875</ele>
      </trkpt>
      <trkpt lat="46.172298341989517" lon="10.89867495931685">
        <ele>2739.10546875</ele>
      </trkpt>
      <trkpt lat="46.172276800498366" lon="10.898678479716182">
        <ele>2738.06640625</ele>
      </trkpt>
      <trkpt lat="46.172233633697033" lon="10.89871795848012">
        <ele>2737.91015625</ele>
      </trkpt>
      <trkpt lat="46.172206727787852" lon="10.898642688989639">
        <ele>2733.1875</ele>
      </trkpt>
      <trkpt lat="46.172190550714731" lon="10.898596085608006">
        <ele>2730.734375</ele>
      </trkpt>
      <trkpt lat="46.172152832150459" lon="10.898596085608006">
        <ele>2728.4921875</ele>
      </trkpt>
      <trkpt lat="46.172125842422247" lon="10.898649813607335">
        <ele>2728.93359375</ele>
      </trkpt>
      <trkpt lat="46.172088123857975" lon="10.898646209388971">
        <ele>2726.6953125</ele>
      </trkpt>
      <trkpt lat="46.172020733356476" lon="10.898692812770605">
        <ele>2725.6953125</ele>
      </trkpt>
      <trkpt lat="46.171976812183857" lon="10.898714354261756">
        <ele>2725.49609375</ele>
      </trkpt>
      <trkpt lat="46.171889724209905" lon="10.898689292371273">
        <ele>2720.98046875</ele>
      </trkpt>
      <trkpt lat="46.171836163848639" lon="10.898757269605994">
        <ele>2723.18359375</ele>
      </trkpt>
      <trkpt lat="46.171795763075352" lon="10.898732207715511">
        <ele>2720.26171875</ele>
      </trkpt>
      <trkpt lat="46.171728372573853" lon="10.89875366538763">
        <ele>2719.5390625</ele>
      </trkpt>
      <trkpt lat="46.171677159145474" lon="10.898717874661088">
        <ele>2715.06640625</ele>
      </trkpt>
      <trkpt lat="46.171644804999232" lon="10.898735728114843">
        <ele>2715.41015625</ele>
      </trkpt>
      <trkpt lat="46.171639440581203" lon="10.898757269605994">
        <ele>2717.0625</ele>
      </trkpt>
      <trkpt lat="46.171596357598901" lon="10.898767998442054">
        <ele>2716.70703125</ele>
      </trkpt>
      <trkpt lat="46.171577498316765" lon="10.898739332333207">
        <ele>2714.15234375</ele>
      </trkpt>
      <trkpt lat="46.171569367870688" lon="10.898724999278784">
        <ele>2712.8828125</ele>
      </trkpt>
      <trkpt lat="46.171539695933461" lon="10.89872139506042">
        <ele>2712.72265625</ele>
      </trkpt>
      <trkpt lat="46.171528967097402" lon="10.898692728951573">
        <ele>2710.19921875</ele>
      </trkpt>
      <trkpt lat="46.171499295160174" lon="10.89871066622436">
        <ele>2711.921875</ele>
      </trkpt>
      <trkpt lat="46.171456212177873" lon="10.898724999278784">
        <ele>2713.5625</ele>
      </trkpt>
      <trkpt lat="46.171434670686722" lon="10.898724999278784">
        <ele>2713.6953125</ele>
      </trkpt>
      <trkpt lat="46.171421175822616" lon="10.89868912473321">
        <ele>2710.5078125</ele>
      </trkpt>
      <trkpt lat="46.171431904658675" lon="10.898656854405999">
        <ele>2709.1484375</ele>
      </trkpt>
      <trkpt lat="46.171418493613601" lon="10.898639000952244">
        <ele>2708.44921875</ele>
      </trkpt>
      <trkpt lat="46.171396868303418" lon="10.898653334006667">
        <ele>2709.1015625</ele>
      </trkpt>
      <trkpt lat="46.171367280185223" lon="10.898642521351576">
        <ele>2708.71484375</ele>
      </trkpt>
      <trkpt lat="46.17133492603898" lon="10.89864612556994">
        <ele>2709.078125</ele>
      </trkpt>
      <trkpt lat="46.171299889683723" lon="10.898671187460423">
        <ele>2710.46484375</ele>
      </trkpt>
      <trkpt lat="46.171278348192573" lon="10.898624584078789">
        <ele>2708.4609375</ele>
      </trkpt>
      <trkpt lat="46.17125135846436" lon="10.89864612556994">
        <ele>2709.6484375</ele>
      </trkpt>
      <trkpt lat="46.171227134764194" lon="10.898660458624363">
        <ele>2710.5078125</ele>
      </trkpt>
      <trkpt lat="46.171205593273044" lon="10.898671187460423">
        <ele>2711.1953125</ele>
      </trkpt>
      <trkpt lat="46.171183967962861" lon="10.898707062005997">
        <ele>2713.48828125</ele>
      </trkpt>
      <trkpt lat="46.171151697635651" lon="10.898739332333207">
        <ele>2716.0390625</ele>
      </trkpt>
      <trkpt lat="46.171097801998258" lon="10.898811081424356">
        <ele>2719.06640625</ele>
      </trkpt>
      <trkpt lat="46.171089671552181" lon="10.898778811097145">
        <ele>2716.6328125</ele>
      </trkpt>
      <trkpt lat="46.171086989343166" lon="10.898732207715511">
        <ele>2713.66796875</ele>
      </trkpt>
      <trkpt lat="46.171089671552181" lon="10.89864612556994">
        <ele>2709.15625</ele>
      </trkpt>
      <trkpt lat="46.171097801998258" lon="10.898606730625033">
        <ele>2707.48046875</ele>
      </trkpt>
      <trkpt lat="46.171097801998258" lon="10.898563647642732">
        <ele>2705.3828125</ele>
      </trkpt>
      <trkpt lat="46.171089671552181" lon="10.898474045097828">
        <ele>2700.90234375</ele>
      </trkpt>
      <trkpt lat="46.171076176688075" lon="10.898445378988981">
        <ele>2699.83203125</ele>
      </trkpt>
      <trkpt lat="46.171100484207273" lon="10.898352172225714">
        <ele>2698.078125</ele>
      </trkpt>
      <trkpt lat="46.171065447852015" lon="10.89827329851687">
        <ele>2695.73828125</ele>
      </trkpt>
      <trkpt lat="46.171062765643001" lon="10.898212362080812">
        <ele>2693.98046875</ele>
      </trkpt>
      <trkpt lat="46.171043906360865" lon="10.898147821426392">
        <ele>2691.25</ele>
      </trkpt>
      <trkpt lat="46.171086989343166" lon="10.89801874011755">
        <ele>2687.00390625</ele>
      </trkpt>
      <trkpt lat="46.171078942716122" lon="10.897982949391007">
        <ele>2685.515625</ele>
      </trkpt>
      <trkpt lat="46.171116661280394" lon="10.897943470627069">
        <ele>2684.46484375</ele>
      </trkpt>
      <trkpt lat="46.171100484207273" lon="10.897835930809379">
        <ele>2680.05859375</ele>
      </trkpt>
      <trkpt lat="46.171148931607604" lon="10.897771390154958">
        <ele>2678.390625</ele>
      </trkpt>
      <trkpt lat="46.171130072325468" lon="10.897714057937264">
        <ele>2676.44140625</ele>
      </trkpt>
      <trkpt lat="46.171189416199923" lon="10.897660246118903">
        <ele>2676.19921875</ele>
      </trkpt>
      <trkpt lat="46.171165108680725" lon="10.897599309682846">
        <ele>2674.0234375</ele>
      </trkpt>
      <trkpt lat="46.171194780617952" lon="10.897552706301212">
        <ele>2673.12890625</ele>
      </trkpt>
      <trkpt lat="46.171165108680725" lon="10.897495374083519">
        <ele>2671.3046875</ele>
      </trkpt>
      <trkpt lat="46.171202827244997" lon="10.897437958046794">
        <ele>2670.1171875</ele>
      </trkpt>
      <trkpt lat="46.171165108680725" lon="10.897412896156311">
        <ele>2669.31640625</ele>
      </trkpt>
      <trkpt lat="46.171178603544831" lon="10.897384230047464">
        <ele>2668.640625</ele>
      </trkpt>
      <trkpt lat="46.171178603544831" lon="10.897319689393044">
        <ele>2667.01953125</ele>
      </trkpt>
      <trkpt lat="46.171219004318118" lon="10.897247940301895">
        <ele>2664.78515625</ele>
      </trkpt>
      <trkpt lat="46.171227134764194" lon="10.897212149575353">
        <ele>2663.671875</ele>
      </trkpt>
      <trkpt lat="46.171291843056679" lon="10.897151213139296">
        <ele>2661.19921875</ele>
      </trkpt>
      <trkpt lat="46.171305254101753" lon="10.897118942812085">
        <ele>2660.015625</ele>
      </trkpt>
      <trkpt lat="46.171302571892738" lon="10.897083068266511">
        <ele>2658.8828125</ele>
      </trkpt>
      <trkpt lat="46.171324113383889" lon="10.897022131830454">
        <ele>2656.703125</ele>
      </trkpt>
      <trkpt lat="46.171367280185223" lon="10.896950466558337">
        <ele>2654.0546875</ele>
      </trkpt>
      <trkpt lat="46.171378009021282" lon="10.896903779357672">
        <ele>2652.66015625</ele>
      </trkpt>
      <trkpt lat="46.171448081731796" lon="10.896832114085555">
        <ele>2650.9375</ele>
      </trkpt>
      <trkpt lat="46.171456212177873" lon="10.896789114922285">
        <ele>2649.93359375</ele>
      </trkpt>
      <trkpt lat="46.171442717313766" lon="10.896756844595075">
        <ele>2649.06640625</ele>
      </trkpt>
      <trkpt lat="46.17147515527904" lon="10.896689370274544">
        <ele>2647.65234375</ele>
      </trkpt>
      <trkpt lat="46.17149761877954" lon="10.896659446880221">
        <ele>2647.11328125</ele>
      </trkpt>
      <trkpt lat="46.171488650143147" lon="10.896629607304931">
        <ele>2646.3359375</ele>
      </trkpt>
      <trkpt lat="46.171479681506753" lon="10.896581830456853">
        <ele>2644.796875</ele>
      </trkpt>
      <trkpt lat="46.171506587415934" lon="10.896545955911279">
        <ele>2643.828125</ele>
      </trkpt>
      <trkpt lat="46.17152008228004" lon="10.896498179063201">
        <ele>2642.3359375</ele>
      </trkpt>
      <trkpt lat="46.171556040644646" lon="10.896456353366375">
        <ele>2641.14453125</ele>
      </trkpt>
      <trkpt lat="46.171596441417933" lon="10.896408492699265">
        <ele>2639.73828125</ele>
      </trkpt>
      <trkpt lat="46.171618904918432" lon="10.896306904032826">
        <ele>2636.60546875</ele>
      </trkpt>
      <trkpt lat="46.171681769192219" lon="10.896163573488593">
        <ele>2632.72265625</ele>
      </trkpt>
      <trkpt lat="46.171668274328113" lon="10.896115712821484">
        <ele>2631.61328125</ele>
      </trkpt>
      <trkpt lat="46.171677326783538" lon="10.896067935973406">
        <ele>2631.0234375</ele>
      </trkpt>
      <trkpt lat="46.171713201329112" lon="10.895978333428502">
        <ele>2630.35546875</ele>
      </trkpt>
      <trkpt lat="46.171731222420931" lon="10.895936507731676">
        <ele>2630.109375</ele>
      </trkpt>
      <trkpt lat="46.171771623194218" lon="10.89589468203485">
        <ele>2630.2421875</ele>
      </trkpt>
      <trkpt lat="46.171807581558824" lon="10.895805079489946">
        <ele>2629.1015625</ele>
      </trkpt>
      <trkpt lat="46.171856950968504" lon="10.895721428096294">
        <ele>2628.26953125</ele>
      </trkpt>
      <trkpt lat="46.17187044583261" lon="10.895673567429185">
        <ele>2627.35546875</ele>
      </trkpt>
      <trkpt lat="46.172000700607896" lon="10.895566027611494">
        <ele>2626.5625</ele>
      </trkpt>
      <trkpt lat="46.172050070017576" lon="10.895482376217842">
        <ele>2624.5078125</ele>
      </trkpt>
      <trkpt lat="46.172086028382182" lon="10.895446501672268">
        <ele>2624.92578125</ele>
      </trkpt>
      <trkpt lat="46.172121986746788" lon="10.895392773672938">
        <ele>2625.55078125</ele>
      </trkpt>
      <trkpt lat="46.172144450247288" lon="10.895362850278616">
        <ele>2625.95703125</ele>
      </trkpt>
      <trkpt lat="46.172189293429255" lon="10.895231422036886">
        <ele>2625.55859375</ele>
      </trkpt>
      <trkpt lat="46.172184851020575" lon="10.895171659067273">
        <ele>2624.078125</ele>
      </trkpt>
      <trkpt lat="46.172229778021574" lon="10.895076105371118">
        <ele>2623.24609375</ele>
      </trkpt>
      <trkpt lat="46.172279147431254" lon="10.894968565553427">
        <ele>2621.4296875</ele>
      </trkpt>
      <trkpt lat="46.172297168523073" lon="10.894890865311027">
        <ele>2618.6015625</ele>
      </trkpt>
      <trkpt lat="46.172319548204541" lon="10.894801262766123">
        <ele>2614.98828125</ele>
      </trkpt>
      <trkpt lat="46.172351064160466" lon="10.894681736826897">
        <ele>2612.23828125</ele>
      </trkpt>
      <trkpt lat="46.172391464933753" lon="10.89461007155478">
        <ele>2611.03125</ele>
      </trkpt>
      <trkpt lat="46.172413928434253" lon="10.894526420161128">
        <ele>2610.0078125</ele>
      </trkpt>
      <trkpt lat="46.172472266480327" lon="10.89440094307065">
        <ele>2610.37890625</ele>
      </trkpt>
      <trkpt lat="46.172512751072645" lon="10.89432324282825">
        <ele>2610.91796875</ele>
      </trkpt>
      <trkpt lat="46.172530688345432" lon="10.894299354404211">
        <ele>2610.94140625</ele>
      </trkpt>
      <trkpt lat="46.172557678073645" lon="10.894161891192198">
        <ele>2610.234375</ele>
      </trkpt>
      <trkpt lat="46.172548625618219" lon="10.894120065495372">
        <ele>2610.05078125</ele>
      </trkpt>
      <trkpt lat="46.172571089118719" lon="10.894072288647294">
        <ele>2609.734375</ele>
      </trkpt>
      <trkpt lat="46.172571089118719" lon="10.893964748829603">
        <ele>2609.37890625</ele>
      </trkpt>
      <trkpt lat="46.172580057755113" lon="10.893910937011242">
        <ele>2609.1875</ele>
      </trkpt>
      <trkpt lat="46.172624984756112" lon="10.893845222890377">
        <ele>2609.01171875</ele>
      </trkpt>
      <trkpt lat="46.172651974484324" lon="10.893749669194221">
        <ele>2609.18359375</ele>
      </trkpt>
      <trkpt lat="46.17268793284893" lon="10.893713794648647">
        <ele>2609.15234375</ele>
      </trkpt>
      <trkpt lat="46.172777703031898" lon="10.893600219860673">
        <ele>2609.09765625</ele>
      </trkpt>
      <trkpt lat="46.17278222925961" lon="10.89348672889173">
        <ele>2608.890625</ele>
      </trkpt>
      <trkpt lat="46.17285406216979" lon="10.893373237922788">
        <ele>2607.65625</ele>
      </trkpt>
      <trkpt lat="46.172907957807183" lon="10.893289586529136">
        <ele>2604.83984375</ele>
      </trkpt>
      <trkpt lat="46.17294835858047" lon="10.893210712820292">
        <ele>2602.03125</ele>
      </trkpt>
      <trkpt lat="46.172979790717363" lon="10.893160505220294">
        <ele>2600.046875</ele>
      </trkpt>
      <trkpt lat="46.173030082136393" lon="10.89299320243299">
        <ele>2598.2421875</ele>
      </trkpt>
      <trkpt lat="46.173111889511347" lon="10.893060173839331">
        <ele>2598.6484375</ele>
      </trkpt>
      <trkpt lat="46.173155894502997" lon="10.893060173839331">
        <ele>2598.484375</ele>
      </trkpt>
      <trkpt lat="46.173325628042221" lon="10.892951376736164">
        <ele>2597.6171875</ele>
      </trkpt>
      <trkpt lat="46.173344487324357" lon="10.892884489148855">
        <ele>2596.08203125</ele>
      </trkpt>
      <trkpt lat="46.173394862562418" lon="10.892825899645686">
        <ele>2594.765625</ele>
      </trkpt>
      <trkpt lat="46.173420008271933" lon="10.892717186361551">
        <ele>2591.66015625</ele>
      </trkpt>
      <trkpt lat="46.173413721844554" lon="10.89256664738059">
        <ele>2591.9921875</ele>
      </trkpt>
      <trkpt lat="46.173388576135039" lon="10.892482995986938">
        <ele>2592.2578125</ele>
      </trkpt>
      <trkpt lat="46.173401148989797" lon="10.892399344593287">
        <ele>2591.86328125</ele>
      </trkpt>
      <trkpt lat="46.173438867554069" lon="10.892298929393291">
        <ele>2591.53125</ele>
      </trkpt>
      <trkpt lat="46.173545485362411" lon="10.892248721793294">
        <ele>2591.15625</ele>
      </trkpt>
      <trkpt lat="46.173576917499304" lon="10.89215668849647">
        <ele>2588.7265625</ele>
      </trkpt>
      <trkpt lat="46.173646068200469" lon="10.892114862799644">
        <ele>2587.37109375</ele>
      </trkpt>
      <trkpt lat="46.173746734857559" lon="10.891947643831372">
        <ele>2583.16015625</ele>
      </trkpt>
      <trkpt lat="46.173991905525327" lon="10.891780341044068">
        <ele>2584.046875</ele>
      </trkpt>
      <trkpt lat="46.174048567190766" lon="10.891738515347242">
        <ele>2585.0546875</ele>
      </trkpt>
      <trkpt lat="46.174092572182417" lon="10.891713369637728">
        <ele>2585.75390625</ele>
      </trkpt>
      <trkpt lat="46.174142863601446" lon="10.891721751540899">
        <ele>2587.34765625</ele>
      </trkpt>
      <trkpt lat="46.174174295738339" lon="10.891679925844073">
        <ele>2589.05078125</ele>
      </trkpt>
      <trkpt lat="46.174256019294262" lon="10.891571212559938">
        <ele>2592.08203125</ele>
      </trkpt>
      <trkpt lat="46.174287451431155" lon="10.891470797359943">
        <ele>2590.97265625</ele>
      </trkpt>
      <trkpt lat="46.174306310713291" lon="10.891336938366294">
        <ele>2587.76953125</ele>
      </trkpt>
      <trkpt lat="46.174300024285913" lon="10.89124490506947">
        <ele>2586.24609375</ele>
      </trkpt>
      <trkpt lat="46.174237160012126" lon="10.891194781288505">
        <ele>2583.62890625</ele>
      </trkpt>
      <trkpt lat="46.174199441447854" lon="10.891194781288505">
        <ele>2582.3203125</ele>
      </trkpt>
      <trkpt lat="46.174180582165718" lon="10.891077602282166">
        <ele>2580.734375</ele>
      </trkpt>
      <trkpt lat="46.174237160012126" lon="10.891019096598029">
        <ele>2582.9609375</ele>
      </trkpt>
      <trkpt lat="46.174243446439505" lon="10.890868473798037">
        <ele>2583.8359375</ele>
      </trkpt>
      <trkpt lat="46.174268592149019" lon="10.890734698623419">
        <ele>2584.46875</ele>
      </trkpt>
      <trkpt lat="46.174293737858534" lon="10.890584075823426">
        <ele>2584.19140625</ele>
      </trkpt>
      <trkpt lat="46.174262305721641" lon="10.890475362539291">
        <ele>2582.1953125</ele>
      </trkpt>
      <trkpt lat="46.174281165003777" lon="10.890416773036122">
        <ele>2581.40234375</ele>
      </trkpt>
      <trkpt lat="46.17431259714067" lon="10.890383329242468">
        <ele>2580.9140625</ele>
      </trkpt>
      <trkpt lat="46.174331540241838" lon="10.890299677848816">
        <ele>2579.91796875</ele>
      </trkpt>
      <trkpt lat="46.174394404515624" lon="10.890224408358335">
        <ele>2578.8125</ele>
      </trkpt>
      <trkpt lat="46.174501273781061" lon="10.890241172164679">
        <ele>2579.0859375</ele>
      </trkpt>
      <trkpt lat="46.174570424482226" lon="10.890232790261507">
        <ele>2578.89453125</ele>
      </trkpt>
      <trkpt lat="46.174708809703588" lon="10.890232790261507">
        <ele>2579.36328125</ele>
      </trkpt>
      <trkpt lat="46.174803106114268" lon="10.890232790261507">
        <ele>2579.74609375</ele>
      </trkpt>
      <trkpt lat="46.174928918480873" lon="10.890174200758338">
        <ele>2576.66015625</ele>
      </trkpt>
      <trkpt lat="46.175023214891553" lon="10.890098931267858">
        <ele>2573.4453125</ele>
      </trkpt>
      <trkpt lat="46.175086079165339" lon="10.890032043680549">
        <ele>2570.5</ele>
      </trkpt>
      <trkpt lat="46.175199234858155" lon="10.889981836080551">
        <ele>2566.9296875</ele>
      </trkpt>
      <trkpt lat="46.175337620079517" lon="10.88983959518373">
        <ele>2561.16015625</ele>
      </trkpt>
      <trkpt lat="46.17541934363544" lon="10.889747561886907">
        <ele>2557.80859375</ele>
      </trkpt>
      <trkpt lat="46.175482207909226" lon="10.889588641002774">
        <ele>2553.8828125</ele>
      </trkpt>
      <trkpt lat="46.175532583147287" lon="10.889463163912296">
        <ele>2550.19921875</ele>
      </trkpt>
      <trkpt lat="46.175538869574666" lon="10.889279181137681">
        <ele>2547.53515625</ele>
      </trkpt>
      <trkpt lat="46.175582874566317" lon="10.889120260253549">
        <ele>2543.05078125</ele>
      </trkpt>
      <trkpt lat="46.175545156002045" lon="10.888986401259899">
        <ele>2542.34375</ele>
      </trkpt>
      <trkpt lat="46.175532583147287" lon="10.888777272775769">
        <ele>2539.13671875</ele>
      </trkpt>
      <trkpt lat="46.175501067191362" lon="10.888685239478946">
        <ele>2538.59765625</ele>
      </trkpt>
      <trkpt lat="46.175501067191362" lon="10.888618351891637">
        <ele>2537.1484375</ele>
      </trkpt>
      <trkpt lat="46.175582874566317" lon="10.888618351891637">
        <ele>2533.08203125</ele>
      </trkpt>
      <trkpt lat="46.17561430670321" lon="10.888626649975777">
        <ele>2531.625</ele>
      </trkpt>
      <trkpt lat="46.17565831169486" lon="10.888559762388468">
        <ele>2527.88671875</ele>
      </trkpt>
      <trkpt lat="46.175714889541268" lon="10.888534700497985">
        <ele>2524.48046875</ele>
      </trkpt>
      <trkpt lat="46.175746321678162" lon="10.888484492897987">
        <ele>2522.20703125</ele>
      </trkpt>
      <trkpt lat="46.175777753815055" lon="10.888534700497985">
        <ele>2521.6328125</ele>
      </trkpt>
      <trkpt lat="46.175790326669812" lon="10.888442667201161">
        <ele>2519.9453125</ele>
      </trkpt>
      <trkpt lat="46.175821842625737" lon="10.88843428529799">
        <ele>2518.60546875</ele>
      </trkpt>
      <trkpt lat="46.175865847617388" lon="10.88850125670433">
        <ele>2517.76171875</ele>
      </trkpt>
      <trkpt lat="46.175928711891174" lon="10.888517936691642">
        <ele>2515.5234375</ele>
      </trkpt>
      <trkpt lat="46.175884706899524" lon="10.888375779613853">
        <ele>2515.39453125</ele>
      </trkpt>
      <trkpt lat="46.175859561190009" lon="10.888174949213862">
        <ele>2513.453125</ele>
      </trkpt>
      <trkpt lat="46.175834415480494" lon="10.888108061626554">
        <ele>2513.3203125</ele>
      </trkpt>
      <trkpt lat="46.175972716882825" lon="10.888166651129723">
        <ele>2509.2265625</ele>
      </trkpt>
      <trkpt lat="46.176079586148262" lon="10.888233538717031">
        <ele>2506.54296875</ele>
      </trkpt>
      <trkpt lat="46.17614253424108" lon="10.88830042630434">
        <ele>2505.1171875</ele>
      </trkpt>
      <trkpt lat="46.176205398514867" lon="10.888308808207512">
        <ele>2503.02734375</ele>
      </trkpt>
      <trkpt lat="46.176224257797003" lon="10.888325572013855">
        <ele>2502.10546875</ele>
      </trkpt>
      <trkpt lat="46.17623683065176" lon="10.888258600607514">
        <ele>2500.9296875</ele>
      </trkpt>
      <trkpt lat="46.176293408498168" lon="10.888241920620203">
        <ele>2497.76953125</ele>
      </trkpt>
      <trkpt lat="46.176349986344576" lon="10.888241920620203">
        <ele>2494.73828125</ele>
      </trkpt>
      <trkpt lat="46.176369013264775" lon="10.888124741613865">
        <ele>2493.41015625</ele>
      </trkpt>
      <trkpt lat="46.176387872546911" lon="10.888057854026556">
        <ele>2492.3828125</ele>
      </trkpt>
      <trkpt lat="46.176457023248076" lon="10.888057854026556">
        <ele>2488.62109375</ele>
      </trkpt>
      <trkpt lat="46.176507314667106" lon="10.88809129782021">
        <ele>2484.91796875</ele>
      </trkpt>
      <trkpt lat="46.176576549187303" lon="10.88809129782021">
        <ele>2479.8125</ele>
      </trkpt>
      <trkpt lat="46.17663312703371" lon="10.888174949213862">
        <ele>2475.64453125</ele>
      </trkpt>
      <trkpt lat="46.176702277734876" lon="10.888216774910688">
        <ele>2471.2890625</ele>
      </trkpt>
      <trkpt lat="46.176721137017012" lon="10.888308808207512">
        <ele>2470.5</ele>
      </trkpt>
      <trkpt lat="46.176721137017012" lon="10.888526234775782">
        <ele>2471.13671875</ele>
      </trkpt>
      <trkpt lat="46.176689704880118" lon="10.888626649975777">
        <ele>2472.984375</ele>
      </trkpt>
      <trkpt lat="46.176714850589633" lon="10.8887186832726">
        <ele>2472.91015625</ele>
      </trkpt>
      <trkpt lat="46.176758855581284" lon="10.888885986059904">
        <ele>2472.46484375</ele>
      </trkpt>
      <trkpt lat="46.176834376528859" lon="10.889011463150382">
        <ele>2469.86328125</ele>
      </trkpt>
      <trkpt lat="46.176859522238374" lon="10.889111794531345">
        <ele>2469.35546875</ele>
      </trkpt>
      <trkpt lat="46.176903527230024" lon="10.889254035428166">
        <ele>2468.4765625</ele>
      </trkpt>
      <trkpt lat="46.176947532221675" lon="10.889304243028164">
        <ele>2469.515625</ele>
      </trkpt>
      <trkpt lat="46.176928672939539" lon="10.889337686821818">
        <ele>2470.640625</ele>
      </trkpt>
      <trkpt lat="46.17697267793119" lon="10.889337686821818">
        <ele>2470.03515625</ele>
      </trkpt>
      <trkpt lat="46.176997823640704" lon="10.88935436680913">
        <ele>2470.04296875</ele>
      </trkpt>
      <trkpt lat="46.177123636007309" lon="10.889337686821818">
        <ele>2467.9609375</ele>
      </trkpt>
      <trkpt lat="46.177142495289445" lon="10.889262417331338">
        <ele>2467.54296875</ele>
      </trkpt>
      <trkpt lat="46.177173927426338" lon="10.889153620228171">
        <ele>2467.4765625</ele>
      </trkpt>
      <trkpt lat="46.177180213853717" lon="10.889053288847208">
        <ele>2466.87109375</ele>
      </trkpt>
      <trkpt lat="46.177199073135853" lon="10.888952873647213">
        <ele>2466.9453125</ele>
      </trkpt>
      <trkpt lat="46.177217932417989" lon="10.888844160363078">
        <ele>2467.12109375</ele>
      </trkpt>
      <trkpt lat="46.177224218845367" lon="10.888760508969426">
        <ele>2466.859375</ele>
      </trkpt>
      <trkpt lat="46.177199073135853" lon="10.888668475672603">
        <ele>2465.2265625</ele>
      </trkpt>
      <trkpt lat="46.177217932417989" lon="10.888609886169434">
        <ele>2465.0078125</ele>
      </trkpt>
      <trkpt lat="46.177186500281096" lon="10.888534616678953">
        <ele>2463.30859375</ele>
      </trkpt>
      <trkpt lat="46.17716764099896" lon="10.888409139588475">
        <ele>2461.1015625</ele>
      </trkpt>
      <trkpt lat="46.177217932417989" lon="10.888333870097995">
        <ele>2461.17578125</ele>
      </trkpt>
      <trkpt lat="46.177186500281096" lon="10.888275280594826">
        <ele>2459.53515625</ele>
      </trkpt>
      <trkpt lat="46.17716764099896" lon="10.888216774910688">
        <ele>2458.2578125</ele>
      </trkpt>
      <trkpt lat="46.177142495289445" lon="10.888166567310691">
        <ele>2457.19921875</ele>
      </trkpt>
      <trkpt lat="46.17711097933352" lon="10.88809129782021">
        <ele>2456.42578125</ele>
      </trkpt>
      <trkpt lat="46.17711097933352" lon="10.887982584536076">
        <ele>2454.24609375</ele>
      </trkpt>
      <trkpt lat="46.177136208862066" lon="10.887907231226563">
        <ele>2452.1328125</ele>
      </trkpt>
      <trkpt lat="46.177199073135853" lon="10.887773456051946">
        <ele>2449.671875</ele>
      </trkpt>
      <trkpt lat="46.177180213853717" lon="10.887689804658294">
        <ele>2448.8984375</ele>
      </trkpt>
      <trkpt lat="46.177236791700125" lon="10.887647978961468">
        <ele>2448.63671875</ele>
      </trkpt>
      <trkpt lat="46.177249364554882" lon="10.887581007555127">
        <ele>2446.421875</ele>
      </trkpt>
      <trkpt lat="46.177280796691775" lon="10.887539181858301">
        <ele>2444.31640625</ele>
      </trkpt>
      <trkpt lat="46.177255650982261" lon="10.887488974258304">
        <ele>2441.79296875</ele>
      </trkpt>
      <trkpt lat="46.177293369546533" lon="10.887455530464649">
        <ele>2439.9140625</ele>
      </trkpt>
      <trkpt lat="46.177236791700125" lon="10.887405322864652">
        <ele>2437.7265625</ele>
      </trkpt>
      <trkpt lat="46.177261937409639" lon="10.887296609580517">
        <ele>2431.53125</ele>
      </trkpt>
      <trkpt lat="46.177299655973911" lon="10.887229721993208">
        <ele>2427.70703125</ele>
      </trkpt>
      <trkpt lat="46.177312228828669" lon="10.887079099193215">
        <ele>2422.15234375</ele>
      </trkpt>
      <trkpt lat="46.177343660965562" lon="10.886970385909081">
        <ele>2421.41015625</ele>
      </trkpt>
      <trkpt lat="46.177393952384591" lon="10.886869970709085">
        <ele>2418.57421875</ele>
      </trkpt>
      <trkpt lat="46.177450614050031" lon="10.886803083121777">
        <ele>2416.453125</ele>
      </trkpt>
      <trkpt lat="46.177532337605953" lon="10.886711049824953">
        <ele>2414.51171875</ele>
      </trkpt>
      <trkpt lat="46.177570056170225" lon="10.886627398431301">
        <ele>2413.25390625</ele>
      </trkpt>
      <trkpt lat="46.177513478323817" lon="10.886627398431301">
        <ele>2409.08203125</ele>
      </trkpt>
      <trkpt lat="46.177444327622652" lon="10.886627398431301">
        <ele>2403.98828125</ele>
      </trkpt>
      <trkpt lat="46.177438041195273" lon="10.886577190831304">
        <ele>2401.34765625</ele>
      </trkpt>
      <trkpt lat="46.177482046186924" lon="10.886460095643997">
        <ele>2399.35546875</ele>
      </trkpt>
      <trkpt lat="46.177532337605953" lon="10.886351382359862">
        <ele>2397.203125</ele>
      </trkpt>
      <trkpt lat="46.177557483315468" lon="10.886259349063039">
        <ele>2394.6484375</ele>
      </trkpt>
      <trkpt lat="46.177588915452361" lon="10.886133871972561">
        <ele>2393.12890625</ele>
      </trkpt>
      <trkpt lat="46.17759520187974" lon="10.886025158688426">
        <ele>2390.0390625</ele>
      </trkpt>
      <trkpt lat="46.177651779726148" lon="10.885941507294774">
        <ele>2393.15234375</ele>
      </trkpt>
      <trkpt lat="46.177632920444012" lon="10.885916361585259">
        <ele>2389.59375</ele>
      </trkpt>
      <trkpt lat="46.177664352580905" lon="10.885824328288436">
        <ele>2388.6171875</ele>
      </trkpt>
      <trkpt lat="46.177614061161876" lon="10.885849473997951">
        <ele>2384.046875</ele>
      </trkpt>
      <trkpt lat="46.177557483315468" lon="10.885941507294774">
        <ele>2383.68359375</ele>
      </trkpt>
      <trkpt lat="46.177482046186924" lon="10.88599163107574">
        <ele>2381.15234375</ele>
      </trkpt>
      <trkpt lat="46.177469473332167" lon="10.886075282469392">
        <ele>2382.1484375</ele>
      </trkpt>
      <trkpt lat="46.177412811666727" lon="10.886133871972561">
        <ele>2378.34765625</ele>
      </trkpt>
      <trkpt lat="46.177362520247698" lon="10.886184079572558">
        <ele>2374.13671875</ele>
      </trkpt>
      <trkpt lat="46.177331088110805" lon="10.88620075955987">
        <ele>2374.23828125</ele>
      </trkpt>
      <trkpt lat="46.177299655973911" lon="10.886142253875732">
        <ele>2374.421875</ele>
      </trkpt>
      <trkpt lat="46.177318515256047" lon="10.886092046275735">
        <ele>2374.25</ele>
      </trkpt>
      <trkpt lat="46.177293369546533" lon="10.88605860248208">
        <ele>2374.35546875</ele>
      </trkpt>
      <trkpt lat="46.177293369546533" lon="10.886016776785254">
        <ele>2374.3046875</ele>
      </trkpt>
      <trkpt lat="46.177261937409639" lon="10.8859833329916">
        <ele>2373.4140625</ele>
      </trkpt>
      <trkpt lat="46.177274510264397" lon="10.885933125391603">
        <ele>2371.32421875</ele>
      </trkpt>
      <trkpt lat="46.177268223837018" lon="10.885866153985262">
        <ele>2368.61328125</ele>
      </trkpt>
      <trkpt lat="46.177268223837018" lon="10.885807648301125">
        <ele>2366.23046875</ele>
      </trkpt>
      <trkpt lat="46.177293369546533" lon="10.885732378810644">
        <ele>2364.078125</ele>
      </trkpt>
      <trkpt lat="46.177243078127503" lon="10.885715615004301">
        <ele>2363.796875</ele>
      </trkpt>
      <trkpt lat="46.177280796691775" lon="10.885573457926512">
        <ele>2360.88671875</ele>
      </trkpt>
      <trkpt lat="46.177274510264397" lon="10.885548312216997">
        <ele>2360.40625</ele>
      </trkpt>
      <trkpt lat="46.177243078127503" lon="10.885539930313826">
        <ele>2360.46875</ele>
      </trkpt>
      <trkpt lat="46.177236791700125" lon="10.885481424629688">
        <ele>2360.125</ele>
      </trkpt>
      <trkpt lat="46.177224218845367" lon="10.885439598932862">
        <ele>2359.9375</ele>
      </trkpt>
      <trkpt lat="46.17716764099896" lon="10.885422835126519">
        <ele>2360.21484375</ele>
      </trkpt>
      <trkpt lat="46.177123636007309" lon="10.885381009429693">
        <ele>2360.37890625</ele>
      </trkpt>
      <trkpt lat="46.17711097933352" lon="10.88528897613287">
        <ele>2359.21484375</ele>
      </trkpt>
      <trkpt lat="46.177041828632355" lon="10.885205324739218">
        <ele>2356.73828125</ele>
      </trkpt>
      <trkpt lat="46.176959769800305" lon="10.885198283940554">
        <ele>2364.98</ele>
        <time>2012-06-17T11:04:38Z</time>
      </trkpt>
      <trkpt lat="46.176931606605649" lon="10.885210186243057">
        <ele>2362.0999999999999</ele>
        <time>2012-06-17T11:04:51Z</time>
      </trkpt>
      <trkpt lat="46.176903191953897" lon="10.885173389688134">
        <ele>2361.6199999999999</ele>
        <time>2012-06-17T11:04:53Z</time>
      </trkpt>
      <trkpt lat="46.176854493096471" lon="10.885009523481131">
        <ele>2359.6900000000001</ele>
        <time>2012-06-17T11:05:00Z</time>
      </trkpt>
      <trkpt lat="46.17680948227644" lon="10.884914472699165">
        <ele>2357.29</ele>
        <time>2012-06-17T11:05:13Z</time>
      </trkpt>
      <trkpt lat="46.176803950220346" lon="10.884898127987981">
        <ele>2356.8099999999999</ele>
        <time>2012-06-17T11:05:14Z</time>
      </trkpt>
      <trkpt lat="46.176761202514172" lon="10.884808944538236">
        <ele>2354.8899999999999</ele>
        <time>2012-06-17T11:05:20Z</time>
      </trkpt>
      <trkpt lat="46.176743851974607" lon="10.884683048352599">
        <ele>2353.4400000000001</ele>
        <time>2012-06-17T11:05:27Z</time>
      </trkpt>
      <trkpt lat="46.176682412624359" lon="10.884566036984324">
        <ele>2351.04</ele>
        <time>2012-06-17T11:05:37Z</time>
      </trkpt>
      <trkpt lat="46.176663720980287" lon="10.884545752778649">
        <ele>2350.5599999999999</ele>
        <time>2012-06-17T11:05:39Z</time>
      </trkpt>
      <trkpt lat="46.17665559053421" lon="10.884457156062126">
        <ele>2349.1199999999999</ele>
        <time>2012-06-17T11:05:47Z</time>
      </trkpt>
      <trkpt lat="46.176573866978288" lon="10.884403260424733">
        <ele>2347.1999999999998</ele>
        <time>2012-06-17T11:05:56Z</time>
      </trkpt>
      <trkpt lat="46.176567748188972" lon="10.884378617629409">
        <ele>2346.7199999999998</ele>
        <time>2012-06-17T11:05:57Z</time>
      </trkpt>
      <trkpt lat="46.176566323265433" lon="10.884273173287511">
        <ele>2345.75</ele>
        <time>2012-06-17T11:06:04Z</time>
      </trkpt>
      <trkpt lat="46.176505303010345" lon="10.884255319833755">
        <ele>2343.8299999999999</ele>
        <time>2012-06-17T11:06:13Z</time>
      </trkpt>
      <trkpt lat="46.176469512283802" lon="10.88421206921339">
        <ele>2342.8699999999999</ele>
        <time>2012-06-17T11:06:18Z</time>
      </trkpt>
      <trkpt lat="46.176450904458761" lon="10.884132022038102">
        <ele>2341.9099999999999</ele>
        <time>2012-06-17T11:06:24Z</time>
      </trkpt>
      <trkpt lat="46.176440259441733" lon="10.884111737832427">
        <ele>2339.5100000000002</ele>
        <time>2012-06-17T11:06:38Z</time>
      </trkpt>
      <trkpt lat="46.176410336047411" lon="10.884116096422076">
        <ele>2337.5799999999999</ele>
        <time>2012-06-17T11:06:47Z</time>
      </trkpt>
      <trkpt lat="46.176389716565609" lon="10.884140739217401">
        <ele>2335.1799999999998</ele>
        <time>2012-06-17T11:06:57Z</time>
      </trkpt>
      <trkpt lat="46.176306065171957" lon="10.883994391188025">
        <ele>2333.7399999999998</ele>
        <time>2012-06-17T11:07:07Z</time>
      </trkpt>
      <trkpt lat="46.176266586408019" lon="10.88395843282342">
        <ele>2332.3000000000002</ele>
        <time>2012-06-17T11:07:13Z</time>
      </trkpt>
      <trkpt lat="46.176231633871794" lon="10.883889198303223">
        <ele>2330.3699999999999</ele>
        <time>2012-06-17T11:07:19Z</time>
      </trkpt>
      <trkpt lat="46.176242949441075" lon="10.883830776438117">
        <ele>2328.9299999999998</ele>
        <time>2012-06-17T11:07:24Z</time>
      </trkpt>
      <trkpt lat="46.176302963867784" lon="10.883737653493881">
        <ele>2325.5700000000002</ele>
        <time>2012-06-17T11:07:38Z</time>
      </trkpt>
      <trkpt lat="46.176317548379302" lon="10.883723823353648">
        <ele>2325.0900000000001</ele>
        <time>2012-06-17T11:07:40Z</time>
      </trkpt>
      <trkpt lat="46.176341436803341" lon="10.883877631276846">
        <ele>2323.6399999999999</ele>
        <time>2012-06-17T11:07:52Z</time>
      </trkpt>
      <trkpt lat="46.176546458154917" lon="10.884059267118573">
        <ele>2321.2399999999998</ele>
        <time>2012-06-17T11:08:02Z</time>
      </trkpt>
      <trkpt lat="46.17650899104774" lon="10.88404736481607">
        <ele>2319.8000000000002</ele>
        <time>2012-06-17T11:08:14Z</time>
      </trkpt>
      <trkpt lat="46.176467416808009" lon="10.883922055363655">
        <ele>2318.3600000000001</ele>
        <time>2012-06-17T11:08:20Z</time>
      </trkpt>
      <trkpt lat="46.176456017419696" lon="10.883895149454474">
        <ele>2318.3600000000001</ele>
        <time>2012-06-17T11:08:21Z</time>
      </trkpt>
      <trkpt lat="46.176449730992317" lon="10.883800853043795">
        <ele>2316.9099999999999</ele>
        <time>2012-06-17T11:08:25Z</time>
      </trkpt>
      <trkpt lat="46.176485940814018" lon="10.883712591603398">
        <ele>2314.5100000000002</ele>
        <time>2012-06-17T11:08:38Z</time>
      </trkpt>
      <trkpt lat="46.176476217806339" lon="10.883673448115587">
        <ele>2314.5100000000002</ele>
        <time>2012-06-17T11:08:42Z</time>
      </trkpt>
      <trkpt lat="46.17650605738163" lon="10.8835812471807">
        <ele>2311.1500000000001</ele>
        <time>2012-06-17T11:08:53Z</time>
      </trkpt>
      <trkpt lat="46.176509326323867" lon="10.883550066500902">
        <ele>2310.6700000000001</ele>
        <time>2012-06-17T11:08:56Z</time>
      </trkpt>
      <trkpt lat="46.176518462598324" lon="10.883477227762341">
        <ele>2309.6999999999998</ele>
        <time>2012-06-17T11:08:59Z</time>
      </trkpt>
      <trkpt lat="46.176493316888809" lon="10.883417716249824">
        <ele>2309.2199999999998</ele>
        <time>2012-06-17T11:09:03Z</time>
      </trkpt>
      <trkpt lat="46.176441768184304" lon="10.883361641317606">
        <ele>2307.7800000000002</ele>
        <time>2012-06-17T11:09:12Z</time>
      </trkpt>
      <trkpt lat="46.176413604989648" lon="10.883237505331635">
        <ele>2304.9000000000001</ele>
        <time>2012-06-17T11:09:24Z</time>
      </trkpt>
      <trkpt lat="46.176371024921536" lon="10.883119152858853">
        <ele>2302.4899999999998</ele>
        <time>2012-06-17T11:09:34Z</time>
      </trkpt>
      <trkpt lat="46.176325343549252" lon="10.882948916405439">
        <ele>2300.0900000000001</ele>
        <time>2012-06-17T11:09:46Z</time>
      </trkpt>
      <trkpt lat="46.176289217546582" lon="10.882864594459534">
        <ele>2299.6100000000001</ele>
        <time>2012-06-17T11:09:57Z</time>
      </trkpt>
      <trkpt lat="46.176284942775965" lon="10.882853278890252">
        <ele>2299.6100000000001</ele>
        <time>2012-06-17T11:09:59Z</time>
      </trkpt>
      <trkpt lat="46.176340179517865" lon="10.882830983027816">
        <ele>2297.21</ele>
        <time>2012-06-17T11:10:04Z</time>
      </trkpt>
      <trkpt lat="46.176384268328547" lon="10.882803574204445">
        <ele>2296.25</ele>
        <time>2012-06-17T11:10:10Z</time>
      </trkpt>
      <trkpt lat="46.176306568086147" lon="10.882705338299274">
        <ele>2294.3200000000002</ele>
        <time>2012-06-17T11:10:19Z</time>
      </trkpt>
      <trkpt lat="46.176274884492159" lon="10.882577514275908">
        <ele>2290.48</ele>
        <time>2012-06-17T11:10:32Z</time>
      </trkpt>
      <trkpt lat="46.17625443264842" lon="10.882548680528998">
        <ele>2287.5900000000001</ele>
        <time>2012-06-17T11:10:45Z</time>
      </trkpt>
      <trkpt lat="46.176269017159939" lon="10.882492773234844">
        <ele>2287.1100000000001</ele>
        <time>2012-06-17T11:10:47Z</time>
      </trkpt>
      <trkpt lat="46.176341772079468" lon="10.882438458502293">
        <ele>2285.1900000000001</ele>
        <time>2012-06-17T11:10:56Z</time>
      </trkpt>
      <trkpt lat="46.176316207274795" lon="10.882382048293948">
        <ele>2282.79</ele>
        <time>2012-06-17T11:11:04Z</time>
      </trkpt>
      <trkpt lat="46.176223922520876" lon="10.882420856505632">
        <ele>2280.3800000000001</ele>
        <time>2012-06-17T11:11:21Z</time>
      </trkpt>
      <trkpt lat="46.176229454576969" lon="10.882314741611481">
        <ele>2277.5</ele>
        <time>2012-06-17T11:11:35Z</time>
      </trkpt>
      <trkpt lat="46.176235741004348" lon="10.882291020825505">
        <ele>2275.5799999999999</ele>
        <time>2012-06-17T11:11:44Z</time>
      </trkpt>
      <trkpt lat="46.176244458183646" lon="10.882212901487947">
        <ele>2271.73</ele>
        <time>2012-06-17T11:11:55Z</time>
      </trkpt>
      <trkpt lat="46.176265915855765" lon="10.882184319198132">
        <ele>2270.29</ele>
        <time>2012-06-17T11:12:01Z</time>
      </trkpt>
      <trkpt lat="46.176268933340907" lon="10.882134782150388">
        <ele>2267.8899999999999</ele>
        <time>2012-06-17T11:12:11Z</time>
      </trkpt>
      <trkpt lat="46.176254348829389" lon="10.882077282294631">
        <ele>2266.9299999999998</ele>
        <time>2012-06-17T11:12:25Z</time>
      </trkpt>
      <trkpt lat="46.176269436255097" lon="10.882000336423516">
        <ele>2265.96</ele>
        <time>2012-06-17T11:12:37Z</time>
      </trkpt>
      <trkpt lat="46.176270190626383" lon="10.881987176835537">
        <ele>2265.48</ele>
        <time>2012-06-17T11:12:38Z</time>
      </trkpt>
      <trkpt lat="46.176274130120873" lon="10.881974436342716">
        <ele>2265.48</ele>
        <time>2012-06-17T11:12:39Z</time>
      </trkpt>
      <trkpt lat="46.176305310800672" lon="10.881916349753737">
        <ele>2263.5599999999999</ele>
        <time>2012-06-17T11:12:47Z</time>
      </trkpt>
      <trkpt lat="46.176300952211022" lon="10.881843846291304">
        <ele>2262.5999999999999</ele>
        <time>2012-06-17T11:12:51Z</time>
      </trkpt>
      <trkpt lat="46.1763262655586" lon="10.881818700581789">
        <ele>2261.6399999999999</ele>
        <time>2012-06-17T11:12:54Z</time>
      </trkpt>
      <trkpt lat="46.176361721009016" lon="10.88171711191535">
        <ele>2259.2399999999998</ele>
        <time>2012-06-17T11:13:04Z</time>
      </trkpt>
      <trkpt lat="46.176398685202003" lon="10.881600519642234">
        <ele>2256.3499999999999</ele>
        <time>2012-06-17T11:13:17Z</time>
      </trkpt>
      <trkpt lat="46.176385441794991" lon="10.881486861035228">
        <ele>2254.4299999999998</ele>
        <time>2012-06-17T11:13:27Z</time>
      </trkpt>
      <trkpt lat="46.176395500078797" lon="10.881463140249252">
        <ele>2253.4699999999998</ele>
        <time>2012-06-17T11:13:32Z</time>
      </trkpt>
      <trkpt lat="46.176318889483809" lon="10.881278151646256">
        <ele>2250.0999999999999</ele>
        <time>2012-06-17T11:13:47Z</time>
      </trkpt>
      <trkpt lat="46.176313273608685" lon="10.88125241920352">
        <ele>2249.6199999999999</ele>
        <time>2012-06-17T11:13:49Z</time>
      </trkpt>
      <trkpt lat="46.17632869631052" lon="10.881224172189832">
        <ele>2249.1399999999999</ele>
        <time>2012-06-17T11:13:52Z</time>
      </trkpt>
      <trkpt lat="46.176365073770285" lon="10.881192907691002">
        <ele>2248.1799999999998</ele>
        <time>2012-06-17T11:13:58Z</time>
      </trkpt>
      <trkpt lat="46.176370857283473" lon="10.881154350936413">
        <ele>2247.2199999999998</ele>
        <time>2012-06-17T11:14:03Z</time>
      </trkpt>
      <trkpt lat="46.176390470936894" lon="10.881037004292011">
        <ele>2243.8499999999999</ele>
        <time>2012-06-17T11:14:16Z</time>
      </trkpt>
      <trkpt lat="46.176389381289482" lon="10.880957124754786">
        <ele>2242.4099999999999</ele>
        <time>2012-06-17T11:14:29Z</time>
      </trkpt>
      <trkpt lat="46.176364403218031" lon="10.880883364006877">
        <ele>2240.4899999999998</ele>
        <time>2012-06-17T11:14:40Z</time>
      </trkpt>
      <trkpt lat="46.176352417096496" lon="10.880804741755128">
        <ele>2237.6100000000001</ele>
        <time>2012-06-17T11:14:55Z</time>
      </trkpt>
      <trkpt lat="46.176334228366613" lon="10.880714720115066">
        <ele>2234.2399999999998</ele>
        <time>2012-06-17T11:15:06Z</time>
      </trkpt>
      <trkpt lat="46.176344873383641" lon="10.880696279928088">
        <ele>2233.7600000000002</ele>
        <time>2012-06-17T11:15:16Z</time>
      </trkpt>
      <trkpt lat="46.17633406072855" lon="10.880632493644953">
        <ele>2231.3600000000001</ele>
        <time>2012-06-17T11:15:31Z</time>
      </trkpt>
      <trkpt lat="46.176339844241738" lon="10.880588907748461">
        <ele>2228.9499999999998</ele>
        <time>2012-06-17T11:15:42Z</time>
      </trkpt>
      <trkpt lat="46.176337245851755" lon="10.880565354600549">
        <ele>2226.5500000000002</ele>
        <time>2012-06-17T11:15:51Z</time>
      </trkpt>
      <trkpt lat="46.176277063786983" lon="10.880510872229934">
        <ele>2226.0700000000002</ele>
        <time>2012-06-17T11:15:58Z</time>
      </trkpt>
      <trkpt lat="46.176238087937236" lon="10.880327560007572">
        <ele>2223.6700000000001</ele>
        <time>2012-06-17T11:16:14Z</time>
      </trkpt>
      <trkpt lat="46.176246302202344" lon="10.880317417904735">
        <ele>2223.6700000000001</ele>
        <time>2012-06-17T11:16:17Z</time>
      </trkpt>
      <trkpt lat="46.176179833710194" lon="10.880167968571186">
        <ele>2221.7399999999998</ele>
        <time>2012-06-17T11:16:33Z</time>
      </trkpt>
      <trkpt lat="46.176158040761948" lon="10.880126226693392">
        <ele>2220.3000000000002</ele>
        <time>2012-06-17T11:16:43Z</time>
      </trkpt>
      <trkpt lat="46.176149658858776" lon="10.879990607500076">
        <ele>2219.8200000000002</ele>
        <time>2012-06-17T11:16:53Z</time>
      </trkpt>
      <trkpt lat="46.176118645817041" lon="10.879875775426626">
        <ele>2219.3400000000001</ele>
        <time>2012-06-17T11:17:04Z</time>
      </trkpt>
      <trkpt lat="46.176113784313202" lon="10.879828333854675">
        <ele>2219.3400000000001</ele>
        <time>2012-06-17T11:17:07Z</time>
      </trkpt>
      <trkpt lat="46.176032060757279" lon="10.879617612808943">
        <ele>2217.9000000000001</ele>
        <time>2012-06-17T11:17:23Z</time>
      </trkpt>
      <trkpt lat="46.176047818735242" lon="10.879572685807943">
        <ele>2217.9000000000001</ele>
        <time>2012-06-17T11:17:43Z</time>
      </trkpt>
      <trkpt lat="46.176013955846429" lon="10.879522226750851">
        <ele>2217.4200000000001</ele>
        <time>2012-06-17T11:17:58Z</time>
      </trkpt>
      <trkpt lat="46.175992665812373" lon="10.879523819312453">
        <ele>2216.9400000000001</ele>
        <time>2012-06-17T11:18:21Z</time>
      </trkpt>
      <trkpt lat="46.176037173718214" lon="10.879516443237662">
        <ele>2216.9400000000001</ele>
        <time>2012-06-17T11:18:39Z</time>
      </trkpt>
      <trkpt lat="46.1760672647506" lon="10.879525663331151">
        <ele>2217.4200000000001</ele>
        <time>2012-06-17T11:18:59Z</time>
      </trkpt>
      <trkpt lat="46.176052428781986" lon="10.879563046619296">
        <ele>2216.9400000000001</ele>
        <time>2012-06-17T11:19:01Z</time>
      </trkpt>
      <trkpt lat="46.176027785986662" lon="10.87936682626605">
        <ele>2215.98</ele>
        <time>2012-06-17T11:19:12Z</time>
      </trkpt>
      <trkpt lat="46.176004568114877" lon="10.879281247034669">
        <ele>2215.0100000000002</ele>
        <time>2012-06-17T11:19:17Z</time>
      </trkpt>
      <trkpt lat="46.175973135977983" lon="10.879001962020993">
        <ele>2214.0500000000002</ele>
        <time>2012-06-17T11:19:34Z</time>
      </trkpt>
      <trkpt lat="46.175977662205696" lon="10.878949575126171">
        <ele>2213.0900000000001</ele>
        <time>2012-06-17T11:19:40Z</time>
      </trkpt>
      <trkpt lat="46.176005741581321" lon="10.878847735002637">
        <ele>2211.6500000000001</ele>
        <time>2012-06-17T11:19:53Z</time>
      </trkpt>
      <trkpt lat="46.175997024402022" lon="10.878785876557231">
        <ele>2210.6900000000001</ele>
        <time>2012-06-17T11:20:05Z</time>
      </trkpt>
      <trkpt lat="46.175995264202356" lon="10.878789313137531">
        <ele>2210.6900000000001</ele>
        <time>2012-06-17T11:20:06Z</time>
      </trkpt>
      <trkpt lat="46.17595586925745" lon="10.878666685894132">
        <ele>2209.25</ele>
        <time>2012-06-17T11:20:20Z</time>
      </trkpt>
      <trkpt lat="46.175958216190338" lon="10.878635169938207">
        <ele>2208.29</ele>
        <time>2012-06-17T11:20:22Z</time>
      </trkpt>
      <trkpt lat="46.17600180208683" lon="10.878421515226364">
        <ele>2206.8400000000001</ele>
        <time>2012-06-17T11:20:36Z</time>
      </trkpt>
      <trkpt lat="46.176019068807364" lon="10.878200065344572">
        <ele>2205.4000000000001</ele>
        <time>2012-06-17T11:20:51Z</time>
      </trkpt>
      <trkpt lat="46.176051506772637" lon="10.877896640449762">
        <ele>2203</ele>
        <time>2012-06-17T11:21:10Z</time>
      </trkpt>
      <trkpt lat="46.176069779321551" lon="10.877897562459111">
        <ele>2202.52</ele>
        <time>2012-06-17T11:21:23Z</time>
      </trkpt>
      <trkpt lat="46.176034994423389" lon="10.877885827794671">
        <ele>2203</ele>
        <time>2012-06-17T11:21:43Z</time>
      </trkpt>
      <trkpt lat="46.176035329699516" lon="10.877871830016375">
        <ele>2203</ele>
        <time>2012-06-17T11:21:46Z</time>
      </trkpt>
      <trkpt lat="46.176028037443757" lon="10.877844002097845">
        <ele>2203</ele>
        <time>2012-06-17T11:21:48Z</time>
      </trkpt>
      <trkpt lat="46.175987720489502" lon="10.877686087042093">
        <ele>2202.52</ele>
        <time>2012-06-17T11:22:00Z</time>
      </trkpt>
      <trkpt lat="46.175976824015379" lon="10.877651469781995">
        <ele>2202.52</ele>
        <time>2012-06-17T11:22:03Z</time>
      </trkpt>
      <trkpt lat="46.175949750468135" lon="10.877564130350947">
        <ele>2201.0799999999999</ele>
        <time>2012-06-17T11:22:12Z</time>
      </trkpt>
      <trkpt lat="46.175963077694178" lon="10.87746312841773">
        <ele>2200.1100000000001</ele>
        <time>2012-06-17T11:22:19Z</time>
      </trkpt>
      <trkpt lat="46.17590700276196" lon="10.8773990906775">
        <ele>2198.6700000000001</ele>
        <time>2012-06-17T11:22:25Z</time>
      </trkpt>
      <trkpt lat="46.175834750756621" lon="10.877205887809396">
        <ele>2197.71</ele>
        <time>2012-06-17T11:22:42Z</time>
      </trkpt>
      <trkpt lat="46.175813795998693" lon="10.877161296084523">
        <ele>2197.71</ele>
        <time>2012-06-17T11:23:00Z</time>
      </trkpt>
      <trkpt lat="46.175839528441429" lon="10.877154925838113">
        <ele>2197.23</ele>
        <time>2012-06-17T11:23:22Z</time>
      </trkpt>
      <trkpt lat="46.175853861495852" lon="10.877136904746294">
        <ele>2197.23</ele>
        <time>2012-06-17T11:23:41Z</time>
      </trkpt>
      <trkpt lat="46.175842545926571" lon="10.876997765153646">
        <ele>2196.75</ele>
        <time>2012-06-17T11:24:04Z</time>
      </trkpt>
      <trkpt lat="46.17586936801672" lon="10.87694956921041">
        <ele>2196.75</ele>
        <time>2012-06-17T11:24:19Z</time>
      </trkpt>
      <trkpt lat="46.175866099074483" lon="10.876971362158656">
        <ele>2196.27</ele>
        <time>2012-06-17T11:24:42Z</time>
      </trkpt>
      <trkpt lat="46.175880096852779" lon="10.876796934753656">
        <ele>2195.79</ele>
        <time>2012-06-17T11:24:52Z</time>
      </trkpt>
      <trkpt lat="46.17589920759201" lon="10.876745972782373">
        <ele>2195.79</ele>
        <time>2012-06-17T11:25:08Z</time>
      </trkpt>
      <trkpt lat="46.175874564796686" lon="10.876736836507916">
        <ele>2195.3099999999999</ele>
        <time>2012-06-17T11:25:31Z</time>
      </trkpt>
      <trkpt lat="46.175881940871477" lon="10.876735579222441">
        <ele>2195.79</ele>
        <time>2012-06-17T11:25:47Z</time>
      </trkpt>
      <trkpt lat="46.17589526809752" lon="10.876700878143311">
        <ele>2195.3099999999999</ele>
        <time>2012-06-17T11:26:06Z</time>
      </trkpt>
      <trkpt lat="46.175923515111208" lon="10.876626614481211">
        <ele>2194.8299999999999</ele>
        <time>2012-06-17T11:26:20Z</time>
      </trkpt>
      <trkpt lat="46.175916977226734" lon="10.876591494306922">
        <ele>2194.8299999999999</ele>
        <time>2012-06-17T11:26:34Z</time>
      </trkpt>
      <trkpt lat="46.175917647778988" lon="10.876635499298573">
        <ele>2194.3499999999999</ele>
        <time>2012-06-17T11:26:47Z</time>
      </trkpt>
      <trkpt lat="46.175912618637085" lon="10.876646311953664">
        <ele>2193.8699999999999</ele>
        <time>2012-06-17T11:26:56Z</time>
      </trkpt>
      <trkpt lat="46.175935249775648" lon="10.876663578674197">
        <ele>2193.8699999999999</ele>
        <time>2012-06-17T11:27:24Z</time>
      </trkpt>
      <trkpt lat="46.175930220633745" lon="10.876645725220442">
        <ele>2194.8299999999999</ele>
        <time>2012-06-17T11:27:38Z</time>
      </trkpt>
      <trkpt lat="46.175923096016049" lon="10.876631056889892">
        <ele>2194.8299999999999</ele>
        <time>2012-06-17T11:27:43Z</time>
      </trkpt>
      <trkpt lat="46.17591043934226" lon="10.876610521227121">
        <ele>2193.8699999999999</ele>
        <time>2012-06-17T11:27:58Z</time>
      </trkpt>
      <trkpt lat="46.175948577001691" lon="10.876624351367354">
        <ele>2193.3899999999999</ele>
        <time>2012-06-17T11:28:26Z</time>
      </trkpt>
      <trkpt lat="46.175933908671141" lon="10.876612365245819">
        <ele>2194.3499999999999</ele>
        <time>2012-06-17T11:28:44Z</time>
      </trkpt>
      <trkpt lat="46.175944888964295" lon="10.87660901248455">
        <ele>2194.3499999999999</ele>
        <time>2012-06-17T11:28:58Z</time>
      </trkpt>
      <trkpt lat="46.175947152078152" lon="10.876633487641811">
        <ele>2193.3899999999999</ele>
        <time>2012-06-17T11:29:14Z</time>
      </trkpt>
      <trkpt lat="46.175937429070473" lon="10.876604737713933">
        <ele>2193.3899999999999</ele>
        <time>2012-06-17T11:29:39Z</time>
      </trkpt>
      <trkpt lat="46.175939524546266" lon="10.876630553975701">
        <ele>2193.8699999999999</ele>
        <time>2012-06-17T11:29:44Z</time>
      </trkpt>
      <trkpt lat="46.176096936687827" lon="10.876686796545982">
        <ele>2192.9000000000001</ele>
        <time>2012-06-17T11:29:59Z</time>
      </trkpt>
      <trkpt lat="46.176125183701515" lon="10.876679252833128">
        <ele>2192.9000000000001</ele>
        <time>2012-06-17T11:30:02Z</time>
      </trkpt>
      <trkpt lat="46.17618159390986" lon="10.876695513725281">
        <ele>2192.9000000000001</ele>
        <time>2012-06-17T11:30:07Z</time>
      </trkpt>
      <trkpt lat="46.176300616934896" lon="10.876732729375362">
        <ele>2193.3899999999999</ele>
        <time>2012-06-17T11:30:17Z</time>
      </trkpt>
      <trkpt lat="46.176488203927875" lon="10.876768939197063">
        <ele>2193.3899999999999</ele>
        <time>2012-06-17T11:30:33Z</time>
      </trkpt>
      <trkpt lat="46.176653830334544" lon="10.876741949468851">
        <ele>2194.3499999999999</ele>
        <time>2012-06-17T11:30:48Z</time>
      </trkpt>
      <trkpt lat="46.176766902208328" lon="10.876734489575028">
        <ele>2195.3099999999999</ele>
        <time>2012-06-17T11:31:00Z</time>
      </trkpt>
      <trkpt lat="46.176826162263751" lon="10.876770699396729">
        <ele>2194.8299999999999</ele>
        <time>2012-06-17T11:31:08Z</time>
      </trkpt>
      <trkpt lat="46.176929846405983" lon="10.876773549243808">
        <ele>2196.75</ele>
        <time>2012-06-17T11:31:21Z</time>
      </trkpt>
      <trkpt lat="46.17695415392518" lon="10.876767681911588">
        <ele>2196.27</ele>
        <time>2012-06-17T11:31:24Z</time>
      </trkpt>
      <trkpt lat="46.176990363746881" lon="10.876753181219101">
        <ele>2196.27</ele>
        <time>2012-06-17T11:31:29Z</time>
      </trkpt>
      <trkpt lat="46.177102429792285" lon="10.876741111278534">
        <ele>2198.1900000000001</ele>
        <time>2012-06-17T11:31:42Z</time>
      </trkpt>
      <trkpt lat="46.177179962396622" lon="10.876741949468851">
        <ele>2197.71</ele>
        <time>2012-06-17T11:31:50Z</time>
      </trkpt>
      <trkpt lat="46.177331758663058" lon="10.876633571460843">
        <ele>2197.23</ele>
        <time>2012-06-17T11:32:05Z</time>
      </trkpt>
      <trkpt lat="46.177392611280084" lon="10.876611946150661">
        <ele>2196.75</ele>
        <time>2012-06-17T11:32:11Z</time>
      </trkpt>
      <trkpt lat="46.177501240745187" lon="10.876502227038145">
        <ele>2197.23</ele>
        <time>2012-06-17T11:32:23Z</time>
      </trkpt>
      <trkpt lat="46.177511969581246" lon="10.876427376642823">
        <ele>2197.23</ele>
        <time>2012-06-17T11:32:28Z</time>
      </trkpt>
      <trkpt lat="46.177556980401278" lon="10.87624104693532">
        <ele>2196.27</ele>
        <time>2012-06-17T11:32:40Z</time>
      </trkpt>
      <trkpt lat="46.17756150662899" lon="10.876171728596091">
        <ele>2196.27</ele>
        <time>2012-06-17T11:32:44Z</time>
      </trkpt>
      <trkpt lat="46.177615988999605" lon="10.875918259844184">
        <ele>2196.75</ele>
        <time>2012-06-17T11:32:59Z</time>
      </trkpt>
      <trkpt lat="46.177651863545179" lon="10.875670155510306">
        <ele>2195.79</ele>
        <time>2012-06-17T11:33:13Z</time>
      </trkpt>
      <trkpt lat="46.17765923961997" lon="10.875619277358055">
        <ele>2195.79</ele>
        <time>2012-06-17T11:33:16Z</time>
      </trkpt>
      <trkpt lat="46.17771103978157" lon="10.875398246571422">
        <ele>2194.3499999999999</ele>
        <time>2012-06-17T11:33:31Z</time>
      </trkpt>
      <trkpt lat="46.177725289016962" lon="10.875358516350389">
        <ele>2194.3499999999999</ele>
        <time>2012-06-17T11:33:46Z</time>
      </trkpt>
      <trkpt lat="46.177722103893757" lon="10.875312751159072">
        <ele>2194.3499999999999</ele>
        <time>2012-06-17T11:34:06Z</time>
      </trkpt>
      <trkpt lat="46.177756721153855" lon="10.875143688172102">
        <ele>2192.9000000000001</ele>
        <time>2012-06-17T11:34:19Z</time>
      </trkpt>
      <trkpt lat="46.177817406132817" lon="10.874985186383128">
        <ele>2191.46</ele>
        <time>2012-06-17T11:34:29Z</time>
      </trkpt>
      <trkpt lat="46.177917821332812" lon="10.874773962423205">
        <ele>2188.0999999999999</ele>
        <time>2012-06-17T11:34:44Z</time>
      </trkpt>
      <trkpt lat="46.178002394735813" lon="10.874617639929056">
        <ele>2187.6199999999999</ele>
        <time>2012-06-17T11:34:55Z</time>
      </trkpt>
      <trkpt lat="46.178099289536476" lon="10.874380264431238">
        <ele>2188.0999999999999</ele>
        <time>2012-06-17T11:35:11Z</time>
      </trkpt>
      <trkpt lat="46.17815469391644" lon="10.874112797901034">
        <ele>2186.1799999999998</ele>
        <time>2012-06-17T11:35:26Z</time>
      </trkpt>
      <trkpt lat="46.178152598440647" lon="10.873953038826585">
        <ele>2185.21</ele>
        <time>2012-06-17T11:35:39Z</time>
      </trkpt>
      <trkpt lat="46.178150754421949" lon="10.873945998027921">
        <ele>2184.73</ele>
        <time>2012-06-17T11:35:43Z</time>
      </trkpt>
      <trkpt lat="46.178126195445657" lon="10.873797554522753">
        <ele>2181.8499999999999</ele>
        <time>2012-06-17T11:35:53Z</time>
      </trkpt>
      <trkpt lat="46.178134996443987" lon="10.873769475147128">
        <ele>2181.3699999999999</ele>
        <time>2012-06-17T11:35:55Z</time>
      </trkpt>
      <trkpt lat="46.178134325891733" lon="10.873595718294382">
        <ele>2178.48</ele>
        <time>2012-06-17T11:36:10Z</time>
      </trkpt>
      <trkpt lat="46.178130805492401" lon="10.873562525957823">
        <ele>2178</ele>
        <time>2012-06-17T11:36:13Z</time>
      </trkpt>
      <trkpt lat="46.178126446902752" lon="10.873532183468342">
        <ele>2177.52</ele>
        <time>2012-06-17T11:36:15Z</time>
      </trkpt>
      <trkpt lat="46.17813516408205" lon="10.873445849865675">
        <ele>2176.5599999999999</ele>
        <time>2012-06-17T11:36:21Z</time>
      </trkpt>
      <trkpt lat="46.178195932880044" lon="10.873221047222614">
        <ele>2174.6399999999999</ele>
        <time>2012-06-17T11:36:37Z</time>
      </trkpt>
      <trkpt lat="46.178259132429957" lon="10.873115435242653">
        <ele>2174.6399999999999</ele>
        <time>2012-06-17T11:36:46Z</time>
      </trkpt>
      <trkpt lat="46.178348064422607" lon="10.872988784685731">
        <ele>2174.1599999999999</ele>
        <time>2012-06-17T11:37:00Z</time>
      </trkpt>
      <trkpt lat="46.178352925926447" lon="10.872978139668703">
        <ele>2173.6799999999998</ele>
        <time>2012-06-17T11:37:01Z</time>
      </trkpt>
      <trkpt lat="46.178386704996228" lon="10.872919550165534">
        <ele>2172.7199999999998</ele>
        <time>2012-06-17T11:37:09Z</time>
      </trkpt>
      <trkpt lat="46.178456945344806" lon="10.87283774279058">
        <ele>2169.8299999999999</ele>
        <time>2012-06-17T11:37:19Z</time>
      </trkpt>
      <trkpt lat="46.1784693505615" lon="10.872798431664705">
        <ele>2169.3499999999999</ele>
        <time>2012-06-17T11:37:22Z</time>
      </trkpt>
      <trkpt lat="46.178500112146139" lon="10.872745374217629">
        <ele>2168.8699999999999</ele>
        <time>2012-06-17T11:37:26Z</time>
      </trkpt>
      <trkpt lat="46.178580829873681" lon="10.872589386999607">
        <ele>2165.5100000000002</ele>
        <time>2012-06-17T11:37:37Z</time>
      </trkpt>
      <trkpt lat="46.178632546216249" lon="10.872559547424316">
        <ele>2164.5500000000002</ele>
        <time>2012-06-17T11:37:43Z</time>
      </trkpt>
      <trkpt lat="46.178650818765163" lon="10.872482936829329">
        <ele>2163.0999999999999</ele>
        <time>2012-06-17T11:37:47Z</time>
      </trkpt>
      <trkpt lat="46.178746959194541" lon="10.872316556051373">
        <ele>2160.2199999999998</ele>
        <time>2012-06-17T11:38:00Z</time>
      </trkpt>
      <trkpt lat="46.178772440180182" lon="10.872288560494781">
        <ele>2159.2600000000002</ele>
        <time>2012-06-17T11:38:03Z</time>
      </trkpt>
      <trkpt lat="46.178819965571165" lon="10.872286548838019">
        <ele>2159.2600000000002</ele>
        <time>2012-06-17T11:38:07Z</time>
      </trkpt>
      <trkpt lat="46.178870592266321" lon="10.87225528433919">
        <ele>2156.8600000000001</ele>
        <time>2012-06-17T11:38:12Z</time>
      </trkpt>
      <trkpt lat="46.178914764896035" lon="10.872204070910811">
        <ele>2156.3699999999999</ele>
        <time>2012-06-17T11:38:24Z</time>
      </trkpt>
      <trkpt lat="46.178933707997203" lon="10.872160904109478">
        <ele>2155.4099999999999</ele>
        <time>2012-06-17T11:38:28Z</time>
      </trkpt>
      <trkpt lat="46.178962541744113" lon="10.872094100341201">
        <ele>2154.9299999999998</ele>
        <time>2012-06-17T11:38:33Z</time>
      </trkpt>
      <trkpt lat="46.179020963609219" lon="10.871972059831023">
        <ele>2152.0500000000002</ele>
        <time>2012-06-17T11:38:42Z</time>
      </trkpt>
      <trkpt lat="46.179047198966146" lon="10.871914979070425">
        <ele>2150.6100000000001</ele>
        <time>2012-06-17T11:38:46Z</time>
      </trkpt>
      <trkpt lat="46.179165970534086" lon="10.871800817549229">
        <ele>2147.7199999999998</ele>
        <time>2012-06-17T11:38:58Z</time>
      </trkpt>
      <trkpt lat="46.17919203825295" lon="10.87176812812686">
        <ele>2145.8000000000002</ele>
        <time>2012-06-17T11:39:02Z</time>
      </trkpt>
      <trkpt lat="46.179191870614886" lon="10.871726721525192">
        <ele>2145.3200000000002</ele>
        <time>2012-06-17T11:39:05Z</time>
      </trkpt>
      <trkpt lat="46.179230259731412" lon="10.871622283011675">
        <ele>2142.9200000000001</ele>
        <time>2012-06-17T11:39:13Z</time>
      </trkpt>
      <trkpt lat="46.179301925003529" lon="10.871475012972951">
        <ele>2139.5500000000002</ele>
        <time>2012-06-17T11:39:24Z</time>
      </trkpt>
      <trkpt lat="46.179381888359785" lon="10.87133813649416">
        <ele>2137.1500000000001</ele>
        <time>2012-06-17T11:39:37Z</time>
      </trkpt>
      <trkpt lat="46.179431425407529" lon="10.871209306642413">
        <ele>2134.7399999999998</ele>
        <time>2012-06-17T11:39:48Z</time>
      </trkpt>
      <trkpt lat="46.179464282467961" lon="10.871176281943917">
        <ele>2132.8200000000002</ele>
        <time>2012-06-17T11:39:53Z</time>
      </trkpt>
      <trkpt lat="46.179534019902349" lon="10.871096821501851">
        <ele>2130.9000000000001</ele>
        <time>2012-06-17T11:40:03Z</time>
      </trkpt>
      <trkpt lat="46.179586993530393" lon="10.871077543124557">
        <ele>2129.46</ele>
        <time>2012-06-17T11:40:08Z</time>
      </trkpt>
      <trkpt lat="46.179702747613192" lon="10.87108994834125">
        <ele>2127.0500000000002</ele>
        <time>2012-06-17T11:40:19Z</time>
      </trkpt>
      <trkpt lat="46.179829649627209" lon="10.871069831773639">
        <ele>2127.0500000000002</ele>
        <time>2012-06-17T11:40:33Z</time>
      </trkpt>
      <trkpt lat="46.179850101470947" lon="10.871036052703857">
        <ele>2128.5</ele>
        <time>2012-06-17T11:40:38Z</time>
      </trkpt>
      <trkpt lat="46.179870972409844" lon="10.870975283905864">
        <ele>2128.5</ele>
        <time>2012-06-17T11:40:43Z</time>
      </trkpt>
      <trkpt lat="46.179915899410844" lon="10.87088811211288">
        <ele>2129.46</ele>
        <time>2012-06-17T11:40:50Z</time>
      </trkpt>
      <trkpt lat="46.179945236071944" lon="10.870858021080494">
        <ele>2129.9400000000001</ele>
        <time>2012-06-17T11:40:54Z</time>
      </trkpt>
      <trkpt lat="46.180051686242223" lon="10.870732627809048">
        <ele>2131.3800000000001</ele>
        <time>2012-06-17T11:41:07Z</time>
      </trkpt>
      <trkpt lat="46.180059062317014" lon="10.870726844295859">
        <ele>2131.3800000000001</ele>
        <time>2012-06-17T11:41:08Z</time>
      </trkpt>
      <trkpt lat="46.18009015917778" lon="10.87070488370955">
        <ele>2130.4200000000001</ele>
        <time>2012-06-17T11:41:11Z</time>
      </trkpt>
      <trkpt lat="46.180122261866927" lon="10.870713349431753">
        <ele>2130.4200000000001</ele>
        <time>2012-06-17T11:41:14Z</time>
      </trkpt>
      <trkpt lat="46.180217480286956" lon="10.870737824589014">
        <ele>2129.9400000000001</ele>
        <time>2012-06-17T11:41:23Z</time>
      </trkpt>
      <trkpt lat="46.180344130843878" lon="10.870703374966979">
        <ele>2127.5300000000002</ele>
        <time>2012-06-17T11:41:40Z</time>
      </trkpt>
      <trkpt lat="46.180381514132023" lon="10.870686024427414">
        <ele>2128.5</ele>
        <time>2012-06-17T11:41:45Z</time>
      </trkpt>
      <trkpt lat="46.180466003715992" lon="10.870615281164646">
        <ele>2127.5300000000002</ele>
        <time>2012-06-17T11:41:58Z</time>
      </trkpt>
      <trkpt lat="46.180480420589447" lon="10.870590889826417">
        <ele>2128.02</ele>
        <time>2012-06-17T11:42:02Z</time>
      </trkpt>
      <trkpt lat="46.180493580177426" lon="10.870550740510225">
        <ele>2127.5300000000002</ele>
        <time>2012-06-17T11:42:05Z</time>
      </trkpt>
      <trkpt lat="46.180532723665237" lon="10.870378324761987">
        <ele>2128.5</ele>
        <time>2012-06-17T11:42:18Z</time>
      </trkpt>
      <trkpt lat="46.180701870471239" lon="10.870298109948635">
        <ele>2129.46</ele>
        <time>2012-06-17T11:42:35Z</time>
      </trkpt>
      <trkpt lat="46.18089247494936" lon="10.870211692526937">
        <ele>2127.5300000000002</ele>
        <time>2012-06-17T11:42:52Z</time>
      </trkpt>
      <trkpt lat="46.180926756933331" lon="10.870182104408741">
        <ele>2126.5700000000002</ele>
        <time>2012-06-17T11:42:56Z</time>
      </trkpt>
      <trkpt lat="46.181022981181741" lon="10.869953697547317">
        <ele>2124.1700000000001</ele>
        <time>2012-06-17T11:43:15Z</time>
      </trkpt>
      <trkpt lat="46.181033961474895" lon="10.869913129135966">
        <ele>2123.21</ele>
        <time>2012-06-17T11:43:18Z</time>
      </trkpt>
      <trkpt lat="46.181165976449847" lon="10.869795279577374">
        <ele>2120.3200000000002</ele>
        <time>2012-06-17T11:43:33Z</time>
      </trkpt>
      <trkpt lat="46.181300254538655" lon="10.869681453332305">
        <ele>2122.73</ele>
        <time>2012-06-17T11:43:55Z</time>
      </trkpt>
      <trkpt lat="46.181358089670539" lon="10.869564190506935">
        <ele>2126.0900000000001</ele>
        <time>2012-06-17T11:44:11Z</time>
      </trkpt>
      <trkpt lat="46.181439226493239" lon="10.869420859962702">
        <ele>2128.02</ele>
        <time>2012-06-17T11:44:30Z</time>
      </trkpt>
      <trkpt lat="46.181509047746658" lon="10.869369059801102">
        <ele>2131.3800000000001</ele>
        <time>2012-06-17T11:44:49Z</time>
      </trkpt>
      <trkpt lat="46.181665537878871" lon="10.86923704482615">
        <ele>2132.3400000000001</ele>
        <time>2012-06-17T11:45:17Z</time>
      </trkpt>
      <trkpt lat="46.181744327768683" lon="10.86911441758275">
        <ele>2130.9000000000001</ele>
        <time>2012-06-17T11:45:33Z</time>
      </trkpt>
      <trkpt lat="46.181758409366012" lon="10.869061192497611">
        <ele>2131.3800000000001</ele>
        <time>2012-06-17T11:45:38Z</time>
      </trkpt>
      <trkpt lat="46.18191909044981" lon="10.869048116728663">
        <ele>2130.4200000000001</ele>
        <time>2012-06-17T11:45:53Z</time>
      </trkpt>
      <trkpt lat="46.181980781257153" lon="10.86908265016973">
        <ele>2129.46</ele>
        <time>2012-06-17T11:45:59Z</time>
      </trkpt>
      <trkpt lat="46.182061834260821" lon="10.869120536372066">
        <ele>2128.5</ele>
        <time>2012-06-17T11:46:06Z</time>
      </trkpt>
      <trkpt lat="46.182244224473834" lon="10.869198655709624">
        <ele>2128.02</ele>
        <time>2012-06-17T11:46:21Z</time>
      </trkpt>
      <trkpt lat="46.182268364354968" lon="10.869218185544014">
        <ele>2127.5300000000002</ele>
        <time>2012-06-17T11:46:23Z</time>
      </trkpt>
      <trkpt lat="46.182398702949286" lon="10.869289850816131">
        <ele>2129.9400000000001</ele>
        <time>2012-06-17T11:46:37Z</time>
      </trkpt>
      <trkpt lat="46.182481767609715" lon="10.86931767873466">
        <ele>2131.3800000000001</ele>
        <time>2012-06-17T11:46:49Z</time>
      </trkpt>
      <trkpt lat="46.18253474123776" lon="10.869260849431157">
        <ele>2132.3400000000001</ele>
        <time>2012-06-17T11:47:02Z</time>
      </trkpt>
      <trkpt lat="46.182554354891181" lon="10.869213826954365">
        <ele>2133.7800000000002</ele>
        <time>2012-06-17T11:47:09Z</time>
      </trkpt>
      <trkpt lat="46.182607915252447" lon="10.869025066494942">
        <ele>2135.23</ele>
        <time>2012-06-17T11:47:24Z</time>
      </trkpt>
      <trkpt lat="46.182658039033413" lon="10.868934039026499">
        <ele>2136.6700000000001</ele>
        <time>2012-06-17T11:47:34Z</time>
      </trkpt>
      <trkpt lat="46.18269894272089" lon="10.868931021541357">
        <ele>2136.6700000000001</ele>
        <time>2012-06-17T11:47:38Z</time>
      </trkpt>
      <trkpt lat="46.18281033821404" lon="10.86893261410296">
        <ele>2135.23</ele>
        <time>2012-06-17T11:47:48Z</time>
      </trkpt>
      <trkpt lat="46.182827521115541" lon="10.868919035419822">
        <ele>2134.7399999999998</ele>
        <time>2012-06-17T11:47:50Z</time>
      </trkpt>
      <trkpt lat="46.182953082025051" lon="10.868911240249872">
        <ele>2133.7800000000002</ele>
        <time>2012-06-17T11:48:02Z</time>
      </trkpt>
      <trkpt lat="46.183035224676132" lon="10.868894811719656">
        <ele>2133.3000000000002</ele>
        <time>2012-06-17T11:48:10Z</time>
      </trkpt>
      <trkpt lat="46.183177381753922" lon="10.868935715407133">
        <ele>2132.3400000000001</ele>
        <time>2012-06-17T11:48:24Z</time>
      </trkpt>
      <trkpt lat="46.183255417272449" lon="10.868905624374747">
        <ele>2132.8200000000002</ele>
        <time>2012-06-17T11:48:31Z</time>
      </trkpt>
      <trkpt lat="46.183388018980622" lon="10.868889950215816">
        <ele>2129.46</ele>
        <time>2012-06-17T11:48:42Z</time>
      </trkpt>
      <trkpt lat="46.183515675365925" lon="10.868831444531679">
        <ele>2130.9000000000001</ele>
        <time>2012-06-17T11:48:57Z</time>
      </trkpt>
      <trkpt lat="46.183522129431367" lon="10.868826247751713">
        <ele>2131.3800000000001</ele>
        <time>2012-06-17T11:48:58Z</time>
      </trkpt>
      <trkpt lat="46.183541072532535" lon="10.868825241923332">
        <ele>2131.8600000000001</ele>
        <time>2012-06-17T11:49:00Z</time>
      </trkpt>
      <trkpt lat="46.183659005910158" lon="10.868787271901965">
        <ele>2133.7800000000002</ele>
        <time>2012-06-17T11:49:14Z</time>
      </trkpt>
      <trkpt lat="46.183709716424346" lon="10.868793055415154">
        <ele>2133.7800000000002</ele>
        <time>2012-06-17T11:49:19Z</time>
      </trkpt>
      <trkpt lat="46.183743411675096" lon="10.868779057636857">
        <ele>2132.8200000000002</ele>
        <time>2012-06-17T11:49:22Z</time>
      </trkpt>
      <trkpt lat="46.183778783306479" lon="10.868790624663234">
        <ele>2132.3400000000001</ele>
        <time>2012-06-17T11:49:25Z</time>
      </trkpt>
      <trkpt lat="46.183957820758224" lon="10.868649976328015">
        <ele>2132.8200000000002</ele>
        <time>2012-06-17T11:49:42Z</time>
      </trkpt>
      <trkpt lat="46.184009956195951" lon="10.868547046557069">
        <ele>2131.3800000000001</ele>
        <time>2012-06-17T11:49:50Z</time>
      </trkpt>
      <trkpt lat="46.184051614254713" lon="10.868494743481278">
        <ele>2130.4200000000001</ele>
        <time>2012-06-17T11:49:54Z</time>
      </trkpt>
      <trkpt lat="46.184152951464057" lon="10.868446379899979">
        <ele>2127.5300000000002</ele>
        <time>2012-06-17T11:50:04Z</time>
      </trkpt>
      <trkpt lat="46.184244565665722" lon="10.868360297754407">
        <ele>2124.1700000000001</ele>
        <time>2012-06-17T11:50:14Z</time>
      </trkpt>
      <trkpt lat="46.184256132692099" lon="10.868358369916677">
        <ele>2123.6900000000001</ele>
        <time>2012-06-17T11:50:15Z</time>
      </trkpt>
      <trkpt lat="46.184309273958206" lon="10.868287878111005">
        <ele>2122.25</ele>
        <time>2012-06-17T11:50:21Z</time>
      </trkpt>
      <trkpt lat="46.184363504871726" lon="10.868246303871274">
        <ele>2120.8099999999999</ele>
        <time>2012-06-17T11:50:26Z</time>
      </trkpt>
      <trkpt lat="46.18448437191546" lon="10.868137674406171">
        <ele>2116.96</ele>
        <time>2012-06-17T11:50:38Z</time>
      </trkpt>
      <trkpt lat="46.184543631970882" lon="10.868060309439898">
        <ele>2115.04</ele>
        <time>2012-06-17T11:50:45Z</time>
      </trkpt>
      <trkpt lat="46.184603227302432" lon="10.868017980828881">
        <ele>2114.0799999999999</ele>
        <time>2012-06-17T11:50:50Z</time>
      </trkpt>
      <trkpt lat="46.184629378840327" lon="10.867982273921371">
        <ele>2112.6300000000001</ele>
        <time>2012-06-17T11:50:53Z</time>
      </trkpt>
      <trkpt lat="46.184785617515445" lon="10.867855120450258">
        <ele>2111.1900000000001</ele>
        <time>2012-06-17T11:51:07Z</time>
      </trkpt>
      <trkpt lat="46.184937916696072" lon="10.867726625874639">
        <ele>2107.8299999999999</ele>
        <time>2012-06-17T11:51:29Z</time>
      </trkpt>
      <trkpt lat="46.185084264725447" lon="10.867693768814206">
        <ele>2104.9400000000001</ele>
        <time>2012-06-17T11:51:46Z</time>
      </trkpt>
      <trkpt lat="46.185171771794558" lon="10.867517413571477">
        <ele>2102.0599999999999</ele>
        <time>2012-06-17T11:52:03Z</time>
      </trkpt>
      <trkpt lat="46.185249974951148" lon="10.867399396374822">
        <ele>2099.1799999999998</ele>
        <time>2012-06-17T11:52:17Z</time>
      </trkpt>
      <trkpt lat="46.185268750414252" lon="10.867335693910718">
        <ele>2097.25</ele>
        <time>2012-06-17T11:52:28Z</time>
      </trkpt>
      <trkpt lat="46.185311917215586" lon="10.867262603715062">
        <ele>2096.29</ele>
        <time>2012-06-17T11:52:35Z</time>
      </trkpt>
      <trkpt lat="46.185340499505401" lon="10.867234859615564">
        <ele>2094.8499999999999</ele>
        <time>2012-06-17T11:52:38Z</time>
      </trkpt>
      <trkpt lat="46.185377547517419" lon="10.867169816046953">
        <ele>2092.4499999999998</ele>
        <time>2012-06-17T11:52:46Z</time>
      </trkpt>
      <trkpt lat="46.185486260801554" lon="10.867076441645622">
        <ele>2089.5599999999999</ele>
        <time>2012-06-17T11:53:00Z</time>
      </trkpt>
      <trkpt lat="46.185564296320081" lon="10.866935541853309">
        <ele>2086.6799999999998</ele>
        <time>2012-06-17T11:53:14Z</time>
      </trkpt>
      <trkpt lat="46.18560578674078" lon="10.86690628901124">
        <ele>2085.7199999999998</ele>
        <time>2012-06-17T11:53:19Z</time>
      </trkpt>
      <trkpt lat="46.185730258002877" lon="10.866900840774179">
        <ele>2084.7600000000002</ele>
        <time>2012-06-17T11:53:31Z</time>
      </trkpt>
      <trkpt lat="46.185982888564467" lon="10.866888770833611">
        <ele>2083.79</ele>
        <time>2012-06-17T11:53:53Z</time>
      </trkpt>
      <trkpt lat="46.186033012345433" lon="10.866886842995882">
        <ele>2083.3099999999999</ele>
        <time>2012-06-17T11:53:59Z</time>
      </trkpt>
      <trkpt lat="46.186173995956779" lon="10.866833617910743">
        <ele>2081.8699999999999</ele>
        <time>2012-06-17T11:54:13Z</time>
      </trkpt>
      <trkpt lat="46.186213307082653" lon="10.866832360625267">
        <ele>2081.8699999999999</ele>
        <time>2012-06-17T11:54:17Z</time>
      </trkpt>
      <trkpt lat="46.186252785846591" lon="10.866839233785868">
        <ele>2081.8699999999999</ele>
        <time>2012-06-17T11:54:21Z</time>
      </trkpt>
      <trkpt lat="46.186270387843251" lon="10.866833366453648">
        <ele>2081.8699999999999</ele>
        <time>2012-06-17T11:54:23Z</time>
      </trkpt>
      <trkpt lat="46.18629184551537" lon="10.866793049499393">
        <ele>2080.9099999999999</ele>
        <time>2012-06-17T11:54:27Z</time>
      </trkpt>
      <trkpt lat="46.186344064772129" lon="10.866767568513751">
        <ele>2079.9499999999998</ele>
        <time>2012-06-17T11:54:32Z</time>
      </trkpt>
      <trkpt lat="46.18641497567296" lon="10.866707973182201">
        <ele>2078.5100000000002</ele>
        <time>2012-06-17T11:54:40Z</time>
      </trkpt>
      <trkpt lat="46.18650977499783" lon="10.866686347872019">
        <ele>2076.0999999999999</ele>
        <time>2012-06-17T11:54:52Z</time>
      </trkpt>
      <trkpt lat="46.186578925698996" lon="10.866651143878698">
        <ele>2074.1799999999998</ele>
        <time>2012-06-17T11:55:03Z</time>
      </trkpt>
      <trkpt lat="46.186644220724702" lon="10.866647707298398">
        <ele>2071.3000000000002</ele>
        <time>2012-06-17T11:55:14Z</time>
      </trkpt>
      <trkpt lat="46.186707504093647" lon="10.866591213271022">
        <ele>2068.8899999999999</ele>
        <time>2012-06-17T11:55:26Z</time>
      </trkpt>
      <trkpt lat="46.186785288155079" lon="10.866569085046649">
        <ele>2066.4899999999998</ele>
        <time>2012-06-17T11:55:37Z</time>
      </trkpt>
      <trkpt lat="46.186821665614843" lon="10.866561708971858">
        <ele>2065.5300000000002</ele>
        <time>2012-06-17T11:55:41Z</time>
      </trkpt>
      <trkpt lat="46.18690263479948" lon="10.866546537727118">
        <ele>2063.1300000000001</ele>
        <time>2012-06-17T11:55:53Z</time>
      </trkpt>
      <trkpt lat="46.186925685033202" lon="10.866519631817937">
        <ele>2061.6799999999998</ele>
        <time>2012-06-17T11:55:58Z</time>
      </trkpt>
      <trkpt lat="46.186969019472599" lon="10.86648995988071">
        <ele>2060.2399999999998</ele>
        <time>2012-06-17T11:56:04Z</time>
      </trkpt>
      <trkpt lat="46.187060549855232" lon="10.866464897990227">
        <ele>2058.3200000000002</ele>
        <time>2012-06-17T11:56:12Z</time>
      </trkpt>
      <trkpt lat="46.187201701104641" lon="10.866274293512106">
        <ele>2056.4000000000001</ele>
        <time>2012-06-17T11:56:27Z</time>
      </trkpt>
      <trkpt lat="46.187278479337692" lon="10.866157617419958">
        <ele>2057.8400000000001</ele>
        <time>2012-06-17T11:56:35Z</time>
      </trkpt>
      <trkpt lat="46.18742935359478" lon="10.865922253578901">
        <ele>2059.2800000000002</ele>
        <time>2012-06-17T11:56:52Z</time>
      </trkpt>
      <trkpt lat="46.187475034967065" lon="10.865846397355199">
        <ele>2060.2399999999998</ele>
        <time>2012-06-17T11:56:57Z</time>
      </trkpt>
      <trkpt lat="46.187540581449866" lon="10.865740198642015">
        <ele>2060.2399999999998</ele>
        <time>2012-06-17T11:57:06Z</time>
      </trkpt>
      <trkpt lat="46.187484925612807" lon="10.865620169788599">
        <ele>2061.1999999999998</ele>
        <time>2012-06-17T11:57:14Z</time>
      </trkpt>
      <trkpt lat="46.18740881793201" lon="10.865522520616651">
        <ele>2063.6100000000001</ele>
        <time>2012-06-17T11:57:24Z</time>
      </trkpt>
      <trkpt lat="46.187412589788437" lon="10.865486897528172">
        <ele>2063.6100000000001</ele>
        <time>2012-06-17T11:57:26Z</time>
      </trkpt>
      <trkpt lat="46.187451146543026" lon="10.865413891151547">
        <ele>2065.0500000000002</ele>
        <time>2012-06-17T11:57:32Z</time>
      </trkpt>
      <trkpt lat="46.187514932826161" lon="10.86521415039897">
        <ele>2066.0100000000002</ele>
        <time>2012-06-17T11:57:47Z</time>
      </trkpt>
      <trkpt lat="46.18759548291564" lon="10.865118429064751">
        <ele>2069.3800000000001</ele>
        <time>2012-06-17T11:58:00Z</time>
      </trkpt>
      <trkpt lat="46.187643595039845" lon="10.865080459043384">
        <ele>2070.8200000000002</ele>
        <time>2012-06-17T11:58:08Z</time>
      </trkpt>
      <trkpt lat="46.187673853710294" lon="10.865059671923518">
        <ele>2071.3000000000002</ele>
        <time>2012-06-17T11:58:11Z</time>
      </trkpt>
      <trkpt lat="46.18769958615303" lon="10.865067215636373">
        <ele>2071.3000000000002</ele>
        <time>2012-06-17T11:58:13Z</time>
      </trkpt>
      <trkpt lat="46.187772760167718" lon="10.865174252539873">
        <ele>2071.3000000000002</ele>
        <time>2012-06-17T11:58:21Z</time>
      </trkpt>
      <trkpt lat="46.187914917245507" lon="10.865197218954563">
        <ele>2071.7800000000002</ele>
        <time>2012-06-17T11:58:34Z</time>
      </trkpt>
      <trkpt lat="46.187973590567708" lon="10.865222029387951">
        <ele>2073.2199999999998</ele>
        <time>2012-06-17T11:58:40Z</time>
      </trkpt>
      <trkpt lat="46.188101246953011" lon="10.865120524540544">
        <ele>2074.6599999999999</ele>
        <time>2012-06-17T11:58:54Z</time>
      </trkpt>
      <trkpt lat="46.188115999102592" lon="10.865107867866755">
        <ele>2075.6199999999999</ele>
        <time>2012-06-17T11:58:56Z</time>
      </trkpt>
      <trkpt lat="46.188165200874209" lon="10.865079620853066">
        <ele>2076.5900000000001</ele>
        <time>2012-06-17T11:59:02Z</time>
      </trkpt>
      <trkpt lat="46.188214989379048" lon="10.865076519548893">
        <ele>2077.5500000000002</ele>
        <time>2012-06-17T11:59:07Z</time>
      </trkpt>
      <trkpt lat="46.188328312709928" lon="10.865081548690796">
        <ele>2080.4299999999998</ele>
        <time>2012-06-17T11:59:20Z</time>
      </trkpt>
      <trkpt lat="46.188344825059175" lon="10.865091942250729">
        <ele>2079.9499999999998</ele>
        <time>2012-06-17T11:59:22Z</time>
      </trkpt>
      <trkpt lat="46.188394697383046" lon="10.865049865096807">
        <ele>2080.9099999999999</ele>
        <time>2012-06-17T11:59:29Z</time>
      </trkpt>
      <trkpt lat="46.188420010730624" lon="10.86500208824873">
        <ele>2081.3899999999999</ele>
        <time>2012-06-17T11:59:33Z</time>
      </trkpt>
      <trkpt lat="46.188472146168351" lon="10.864981049671769">
        <ele>2079.9499999999998</ele>
        <time>2012-06-17T11:59:37Z</time>
      </trkpt>
      <trkpt lat="46.188646154478192" lon="10.865052463486791">
        <ele>2076.5900000000001</ele>
        <time>2012-06-17T11:59:50Z</time>
      </trkpt>
      <trkpt lat="46.188678592443466" lon="10.865092780441046">
        <ele>2076.5900000000001</ele>
        <time>2012-06-17T11:59:53Z</time>
      </trkpt>
      <trkpt lat="46.18878822773695" lon="10.865196967497468">
        <ele>2074.1799999999998</ele>
        <time>2012-06-17T12:00:03Z</time>
      </trkpt>
      <trkpt lat="46.188905239105225" lon="10.865269722416997">
        <ele>2070.8200000000002</ele>
        <time>2012-06-17T12:00:13Z</time>
      </trkpt>
      <trkpt lat="46.189114870503545" lon="10.865442473441362">
        <ele>2070.3400000000001</ele>
        <time>2012-06-17T12:00:29Z</time>
      </trkpt>
      <trkpt lat="46.189124090597034" lon="10.86544482037425">
        <ele>2070.8200000000002</ele>
        <time>2012-06-17T12:00:37Z</time>
      </trkpt>
      <trkpt lat="46.189147476106882" lon="10.865456555038691">
        <ele>2070.3400000000001</ele>
        <time>2012-06-17T12:00:40Z</time>
      </trkpt>
      <trkpt lat="46.189261637628078" lon="10.865564094856381">
        <ele>2069.8600000000001</ele>
        <time>2012-06-17T12:00:51Z</time>
      </trkpt>
      <trkpt lat="46.189404549077153" lon="10.865724440664053">
        <ele>2066.9699999999998</ele>
        <time>2012-06-17T12:01:03Z</time>
      </trkpt>
      <trkpt lat="46.189577719196677" lon="10.865878332406282">
        <ele>2066.0100000000002</ele>
        <time>2012-06-17T12:01:19Z</time>
      </trkpt>
      <trkpt lat="46.189680648967624" lon="10.866033481433988">
        <ele>2065.0500000000002</ele>
        <time>2012-06-17T12:01:33Z</time>
      </trkpt>
      <trkpt lat="46.189805455505848" lon="10.866184439510107">
        <ele>2063.6100000000001</ele>
        <time>2012-06-17T12:01:47Z</time>
      </trkpt>
      <trkpt lat="46.189881144091487" lon="10.866239508613944">
        <ele>2063.1300000000001</ele>
        <time>2012-06-17T12:01:57Z</time>
      </trkpt>
      <trkpt lat="46.190031683072448" lon="10.866352412849665">
        <ele>2062.1700000000001</ele>
        <time>2012-06-17T12:02:12Z</time>
      </trkpt>
      <trkpt lat="46.190159255638719" lon="10.866497671231627">
        <ele>2061.6799999999998</ele>
        <time>2012-06-17T12:02:28Z</time>
      </trkpt>
      <trkpt lat="46.190176606178284" lon="10.866492977365851">
        <ele>2061.1999999999998</ele>
        <time>2012-06-17T12:02:30Z</time>
      </trkpt>
      <trkpt lat="46.19031423702836" lon="10.866477722302079">
        <ele>2059.2800000000002</ele>
        <time>2012-06-17T12:02:45Z</time>
      </trkpt>
      <trkpt lat="46.190371820703149" lon="10.866487445309758">
        <ele>2057.8400000000001</ele>
        <time>2012-06-17T12:02:51Z</time>
      </trkpt>
      <trkpt lat="46.190444072708488" lon="10.866505885496736">
        <ele>2056.8800000000001</ele>
        <time>2012-06-17T12:02:57Z</time>
      </trkpt>
      <trkpt lat="46.190511798486114" lon="10.866479398682714">
        <ele>2055.9200000000001</ele>
        <time>2012-06-17T12:03:02Z</time>
      </trkpt>
      <trkpt lat="46.190642388537526" lon="10.866494905203581">
        <ele>2054.96</ele>
        <time>2012-06-17T12:03:15Z</time>
      </trkpt>
      <trkpt lat="46.190658481791615" lon="10.866531115025282">
        <ele>2054.4699999999998</ele>
        <time>2012-06-17T12:03:17Z</time>
      </trkpt>
      <trkpt lat="46.190688656643033" lon="10.866557853296399">
        <ele>2053.9899999999998</ele>
        <time>2012-06-17T12:03:19Z</time>
      </trkpt>
      <trkpt lat="46.190805081278086" lon="10.866510244086385">
        <ele>2054.4699999999998</ele>
        <time>2012-06-17T12:03:28Z</time>
      </trkpt>
      <trkpt lat="46.190997865051031" lon="10.866511249914765">
        <ele>2056.8800000000001</ele>
        <time>2012-06-17T12:03:41Z</time>
      </trkpt>
      <trkpt lat="46.191034745424986" lon="10.866501359269023">
        <ele>2056.8800000000001</ele>
        <time>2012-06-17T12:03:44Z</time>
      </trkpt>
      <trkpt lat="46.191246556118131" lon="10.866541089490056">
        <ele>2059.7600000000002</ele>
        <time>2012-06-17T12:04:02Z</time>
      </trkpt>
      <trkpt lat="46.191255524754524" lon="10.866543436422944">
        <ele>2059.7600000000002</ele>
        <time>2012-06-17T12:04:03Z</time>
      </trkpt>
      <trkpt lat="46.191437831148505" lon="10.866571180522442">
        <ele>2060.7199999999998</ele>
        <time>2012-06-17T12:04:19Z</time>
      </trkpt>
      <trkpt lat="46.191499102860689" lon="10.866574365645647">
        <ele>2061.1999999999998</ele>
        <time>2012-06-17T12:04:25Z</time>
      </trkpt>
      <trkpt lat="46.191529529169202" lon="10.866556847468019">
        <ele>2061.6799999999998</ele>
        <time>2012-06-17T12:04:28Z</time>
      </trkpt>
      <trkpt lat="46.191645031794906" lon="10.866457438096404">
        <ele>2061.1999999999998</ele>
        <time>2012-06-17T12:04:39Z</time>
      </trkpt>
      <trkpt lat="46.191822476685047" lon="10.866277646273375">
        <ele>2059.2800000000002</ele>
        <time>2012-06-17T12:04:56Z</time>
      </trkpt>
      <trkpt lat="46.191874695941806" lon="10.866258200258017">
        <ele>2058.8000000000002</ele>
        <time>2012-06-17T12:05:00Z</time>
      </trkpt>
      <trkpt lat="46.191902020946145" lon="10.866235820576549">
        <ele>2058.8000000000002</ele>
        <time>2012-06-17T12:05:03Z</time>
      </trkpt>
      <trkpt lat="46.191940912976861" lon="10.866157114505768">
        <ele>2059.2800000000002</ele>
        <time>2012-06-17T12:05:09Z</time>
      </trkpt>
      <trkpt lat="46.191985504701734" lon="10.866049658507109">
        <ele>2057.8400000000001</ele>
        <time>2012-06-17T12:05:18Z</time>
      </trkpt>
      <trkpt lat="46.192101174965501" lon="10.865907082334161">
        <ele>2055.4400000000001</ele>
        <time>2012-06-17T12:05:32Z</time>
      </trkpt>
      <trkpt lat="46.192234363406897" lon="10.865748077630997">
        <ele>2054.4699999999998</ele>
        <time>2012-06-17T12:05:47Z</time>
      </trkpt>
      <trkpt lat="46.192240063101053" lon="10.865732319653034">
        <ele>2054.4699999999998</ele>
        <time>2012-06-17T12:05:48Z</time>
      </trkpt>
      <trkpt lat="46.192254982888699" lon="10.865706168115139">
        <ele>2054.4699999999998</ele>
        <time>2012-06-17T12:05:50Z</time>
      </trkpt>
      <trkpt lat="46.192294210195541" lon="10.865376424044371">
        <ele>2053.5100000000002</ele>
        <time>2012-06-17T12:06:09Z</time>
      </trkpt>
      <trkpt lat="46.192358918488026" lon="10.865160087123513">
        <ele>2052.5500000000002</ele>
        <time>2012-06-17T12:06:21Z</time>
      </trkpt>
      <trkpt lat="46.192393703386188" lon="10.865128990262747">
        <ele>2052.0700000000002</ele>
        <time>2012-06-17T12:06:24Z</time>
      </trkpt>
      <trkpt lat="46.192532507702708" lon="10.86509638465941">
        <ele>2050.1500000000001</ele>
        <time>2012-06-17T12:06:38Z</time>
      </trkpt>
      <trkpt lat="46.192657984793186" lon="10.865005189552903">
        <ele>2048.71</ele>
        <time>2012-06-17T12:06:50Z</time>
      </trkpt>
      <trkpt lat="46.192721435800195" lon="10.865094875916839">
        <ele>2048.23</ele>
        <time>2012-06-17T12:06:59Z</time>
      </trkpt>
      <trkpt lat="46.192846326157451" lon="10.864979876205325">
        <ele>2045.3399999999999</ele>
        <time>2012-06-17T12:07:13Z</time>
      </trkpt>
      <trkpt lat="46.192994434386492" lon="10.864871330559254">
        <ele>2043.4200000000001</ele>
        <time>2012-06-17T12:07:29Z</time>
      </trkpt>
      <trkpt lat="46.193048330023885" lon="10.864828331395984">
        <ele>2041.5</ele>
        <time>2012-06-17T12:07:38Z</time>
      </trkpt>
      <trkpt lat="46.193145476281643" lon="10.86477099917829">
        <ele>2038.6099999999999</ele>
        <time>2012-06-17T12:07:51Z</time>
      </trkpt>
      <trkpt lat="46.19316634722054" lon="10.864743087440729">
        <ele>2037.6500000000001</ele>
        <time>2012-06-17T12:07:55Z</time>
      </trkpt>
      <trkpt lat="46.193189648911357" lon="10.86473093368113">
        <ele>2037.1700000000001</ele>
        <time>2012-06-17T12:07:57Z</time>
      </trkpt>
      <trkpt lat="46.193303307518363" lon="10.864570923149586">
        <ele>2034.29</ele>
        <time>2012-06-17T12:08:13Z</time>
      </trkpt>
      <trkpt lat="46.193307330831885" lon="10.86454720236361">
        <ele>2033.8099999999999</ele>
        <time>2012-06-17T12:08:15Z</time>
      </trkpt>
      <trkpt lat="46.193319568410516" lon="10.864522224292159">
        <ele>2033.8099999999999</ele>
        <time>2012-06-17T12:08:17Z</time>
      </trkpt>
      <trkpt lat="46.19336474686861" lon="10.864470759406686">
        <ele>2033.3299999999999</ele>
        <time>2012-06-17T12:08:22Z</time>
      </trkpt>
      <trkpt lat="46.193495756015182" lon="10.864367494359612">
        <ele>2030.4400000000001</ele>
        <time>2012-06-17T12:08:38Z</time>
      </trkpt>
      <trkpt lat="46.193559458479285" lon="10.864328015595675">
        <ele>2029</ele>
        <time>2012-06-17T12:08:45Z</time>
      </trkpt>
      <trkpt lat="46.193683762103319" lon="10.864261630922556">
        <ele>2026.5999999999999</ele>
        <time>2012-06-17T12:08:58Z</time>
      </trkpt>
      <trkpt lat="46.193704968318343" lon="10.864257775247097">
        <ele>2026.1199999999999</ele>
        <time>2012-06-17T12:09:00Z</time>
      </trkpt>
      <trkpt lat="46.193838156759739" lon="10.864136908203363">
        <ele>2023.23</ele>
        <time>2012-06-17T12:09:15Z</time>
      </trkpt>
      <trkpt lat="46.193948714062572" lon="10.864079743623734">
        <ele>2020.8299999999999</ele>
        <time>2012-06-17T12:09:26Z</time>
      </trkpt>
      <trkpt lat="46.193965226411819" lon="10.864072199910879">
        <ele>2020.3499999999999</ele>
        <time>2012-06-17T12:09:28Z</time>
      </trkpt>
      <trkpt lat="46.194102354347706" lon="10.863991901278496">
        <ele>2018.4300000000001</ele>
        <time>2012-06-17T12:09:42Z</time>
      </trkpt>
      <trkpt lat="46.194127248600125" lon="10.863980753347278">
        <ele>2017.9400000000001</ele>
        <time>2012-06-17T12:09:44Z</time>
      </trkpt>
      <trkpt lat="46.194191621616483" lon="10.863932725042105">
        <ele>2016.5</ele>
        <time>2012-06-17T12:09:57Z</time>
      </trkpt>
      <trkpt lat="46.194307627156377" lon="10.86383574642241">
        <ele>2014.0999999999999</ele>
        <time>2012-06-17T12:10:12Z</time>
      </trkpt>
      <trkpt lat="46.194435032084584" lon="10.86371554993093">
        <ele>2011.22</ele>
        <time>2012-06-17T12:10:27Z</time>
      </trkpt>
      <trkpt lat="46.194572998210788" lon="10.8636515121907">
        <ele>2010.25</ele>
        <time>2012-06-17T12:10:41Z</time>
      </trkpt>
      <trkpt lat="46.19461758993566" lon="10.863600298762321">
        <ele>2009.29</ele>
        <time>2012-06-17T12:10:49Z</time>
      </trkpt>
      <trkpt lat="46.194728733971715" lon="10.863470043987036">
        <ele>2006.8900000000001</ele>
        <time>2012-06-17T12:11:03Z</time>
      </trkpt>
      <trkpt lat="46.194873740896583" lon="10.863285139203072">
        <ele>2004.01</ele>
        <time>2012-06-17T12:11:18Z</time>
      </trkpt>
      <trkpt lat="46.194976251572371" lon="10.863097133114934">
        <ele>2001.1199999999999</ele>
        <time>2012-06-17T12:11:30Z</time>
      </trkpt>
      <trkpt lat="46.195076666772366" lon="10.862995041534305">
        <ele>1998.24</ele>
        <time>2012-06-17T12:11:42Z</time>
      </trkpt>
      <trkpt lat="46.195185044780374" lon="10.862833857536316">
        <ele>1996.3199999999999</ele>
        <time>2012-06-17T12:11:56Z</time>
      </trkpt>
      <trkpt lat="46.195279257372022" lon="10.862706368789077">
        <ele>1994.3900000000001</ele>
        <time>2012-06-17T12:12:08Z</time>
      </trkpt>
      <trkpt lat="46.195359556004405" lon="10.862581310793757">
        <ele>1993.9100000000001</ele>
        <time>2012-06-17T12:12:18Z</time>
      </trkpt>
      <trkpt lat="46.195501545444131" lon="10.862404955551028">
        <ele>1990.55</ele>
        <time>2012-06-17T12:12:34Z</time>
      </trkpt>
      <trkpt lat="46.195616209879518" lon="10.862244525924325">
        <ele>1988.1400000000001</ele>
        <time>2012-06-17T12:12:50Z</time>
      </trkpt>
      <trkpt lat="46.195633979514241" lon="10.862200604751706">
        <ele>1986.22</ele>
        <time>2012-06-17T12:12:54Z</time>
      </trkpt>
      <trkpt lat="46.195657113566995" lon="10.862186439335346">
        <ele>1985.74</ele>
        <time>2012-06-17T12:12:56Z</time>
      </trkpt>
      <trkpt lat="46.1957638990134" lon="10.862035984173417">
        <ele>1982.8599999999999</ele>
        <time>2012-06-17T12:13:10Z</time>
      </trkpt>
      <trkpt lat="46.195835815742612" lon="10.861990470439196">
        <ele>1980.9300000000001</ele>
        <time>2012-06-17T12:13:23Z</time>
      </trkpt>
      <trkpt lat="46.195834809914231" lon="10.862002037465572">
        <ele>1979.01</ele>
        <time>2012-06-17T12:13:43Z</time>
      </trkpt>
      <trkpt lat="46.19592365808785" lon="10.86192861199379">
        <ele>1976.6099999999999</ele>
        <time>2012-06-17T12:14:07Z</time>
      </trkpt>
      <trkpt lat="46.195936314761639" lon="10.861921571195126">
        <ele>1976.6099999999999</ele>
        <time>2012-06-17T12:14:08Z</time>
      </trkpt>
      <trkpt lat="46.195972189307213" lon="10.861908495426178">
        <ele>1976.6099999999999</ele>
        <time>2012-06-17T12:14:11Z</time>
      </trkpt>
      <trkpt lat="46.196153154596686" lon="10.86177228949964">
        <ele>1972.76</ele>
        <time>2012-06-17T12:14:26Z</time>
      </trkpt>
      <trkpt lat="46.19626522064209" lon="10.861671539023519">
        <ele>1969.8800000000001</ele>
        <time>2012-06-17T12:14:36Z</time>
      </trkpt>
      <trkpt lat="46.196431098505855" lon="10.86156508885324">
        <ele>1966.51</ele>
        <time>2012-06-17T12:14:50Z</time>
      </trkpt>
      <trkpt lat="46.19653545320034" lon="10.861467774957418">
        <ele>1963.1500000000001</ele>
        <time>2012-06-17T12:15:00Z</time>
      </trkpt>
      <trkpt lat="46.196561437100172" lon="10.86143315769732">
        <ele>1962.6700000000001</ele>
        <time>2012-06-17T12:15:03Z</time>
      </trkpt>
      <trkpt lat="46.196687081828713" lon="10.861303322017193">
        <ele>1959.78</ele>
        <time>2012-06-17T12:15:17Z</time>
      </trkpt>
      <trkpt lat="46.196807194501162" lon="10.861183712258935">
        <ele>1956.9000000000001</ele>
        <time>2012-06-17T12:15:31Z</time>
      </trkpt>
      <trkpt lat="46.196896964684129" lon="10.861075082793832">
        <ele>1954.02</ele>
        <time>2012-06-17T12:15:42Z</time>
      </trkpt>
      <trkpt lat="46.197050102055073" lon="10.860969386994839">
        <ele>1952.0899999999999</ele>
        <time>2012-06-17T12:15:57Z</time>
      </trkpt>
      <trkpt lat="46.197133250534534" lon="10.860913982614875">
        <ele>1950.6500000000001</ele>
        <time>2012-06-17T12:16:05Z</time>
      </trkpt>
      <trkpt lat="46.197182117030025" lon="10.860878862440586">
        <ele>1950.1700000000001</ele>
        <time>2012-06-17T12:16:10Z</time>
      </trkpt>
      <trkpt lat="46.197236180305481" lon="10.860844915732741">
        <ele>1949.6900000000001</ele>
        <time>2012-06-17T12:16:15Z</time>
      </trkpt>
      <trkpt lat="46.197307929396629" lon="10.860803173854947">
        <ele>1948.25</ele>
        <time>2012-06-17T12:16:22Z</time>
      </trkpt>
      <trkpt lat="46.197342462837696" lon="10.860737878829241">
        <ele>1946.3299999999999</ele>
        <time>2012-06-17T12:16:27Z</time>
      </trkpt>
      <trkpt lat="46.197478417307138" lon="10.860668895766139">
        <ele>1943.4400000000001</ele>
        <time>2012-06-17T12:16:42Z</time>
      </trkpt>
      <trkpt lat="46.197572043165565" lon="10.860589267686009">
        <ele>1941.04</ele>
        <time>2012-06-17T12:16:52Z</time>
      </trkpt>
      <trkpt lat="46.197636500000954" lon="10.860559344291687">
        <ele>1940.0799999999999</ele>
        <time>2012-06-17T12:16:58Z</time>
      </trkpt>
      <trkpt lat="46.197789218276739" lon="10.860444512218237">
        <ele>1937.1900000000001</ele>
        <time>2012-06-17T12:17:14Z</time>
      </trkpt>
      <trkpt lat="46.197796761989594" lon="10.860440572723746">
        <ele>1936.71</ele>
        <time>2012-06-17T12:17:15Z</time>
      </trkpt>
      <trkpt lat="46.197861302644014" lon="10.860378127545118">
        <ele>1934.79</ele>
        <time>2012-06-17T12:17:23Z</time>
      </trkpt>
      <trkpt lat="46.197996754199266" lon="10.860250303521752">
        <ele>1931.4300000000001</ele>
        <time>2012-06-17T12:17:39Z</time>
      </trkpt>
      <trkpt lat="46.198049895465374" lon="10.86016078479588">
        <ele>1929.5</ele>
        <time>2012-06-17T12:17:48Z</time>
      </trkpt>
      <trkpt lat="46.198160955682397" lon="10.859963810071349">
        <ele>1927.5799999999999</ele>
        <time>2012-06-17T12:18:03Z</time>
      </trkpt>
      <trkpt lat="46.198215773329139" lon="10.85983875207603">
        <ele>1924.7</ele>
        <time>2012-06-17T12:18:14Z</time>
      </trkpt>
      <trkpt lat="46.198278972879052" lon="10.859728781506419">
        <ele>1922.29</ele>
        <time>2012-06-17T12:18:26Z</time>
      </trkpt>
      <trkpt lat="46.19828961789608" lon="10.859715873375535">
        <ele>1921.8099999999999</ele>
        <time>2012-06-17T12:18:28Z</time>
      </trkpt>
      <trkpt lat="46.198354661464691" lon="10.859610512852669">
        <ele>1920.3699999999999</ele>
        <time>2012-06-17T12:18:39Z</time>
      </trkpt>
      <trkpt lat="46.198358936235309" lon="10.859589809551835">
        <ele>1919.4100000000001</ele>
        <time>2012-06-17T12:18:41Z</time>
      </trkpt>
      <trkpt lat="46.198365306481719" lon="10.859562233090401">
        <ele>1918.9300000000001</ele>
        <time>2012-06-17T12:18:43Z</time>
      </trkpt>
      <trkpt lat="46.198383746668696" lon="10.859526190906763">
        <ele>1918.9300000000001</ele>
        <time>2012-06-17T12:18:46Z</time>
      </trkpt>
      <trkpt lat="46.198454657569528" lon="10.859431978315115">
        <ele>1916.04</ele>
        <time>2012-06-17T12:19:00Z</time>
      </trkpt>
      <trkpt lat="46.198465721681714" lon="10.859395181760192">
        <ele>1914.5999999999999</ele>
        <time>2012-06-17T12:19:03Z</time>
      </trkpt>
      <trkpt lat="46.198477875441313" lon="10.859373053535819">
        <ele>1914.1199999999999</ele>
        <time>2012-06-17T12:19:05Z</time>
      </trkpt>
      <trkpt lat="46.198537386953831" lon="10.859219413250685">
        <ele>1910.76</ele>
        <time>2012-06-17T12:19:19Z</time>
      </trkpt>
      <trkpt lat="46.198532693088055" lon="10.859112041071057">
        <ele>1907.3900000000001</ele>
        <time>2012-06-17T12:19:31Z</time>
      </trkpt>
      <trkpt lat="46.198595724999905" lon="10.858989246189594">
        <ele>1905.47</ele>
        <time>2012-06-17T12:19:44Z</time>
      </trkpt>
      <trkpt lat="46.198631264269352" lon="10.858947336673737">
        <ele>1903.55</ele>
        <time>2012-06-17T12:19:52Z</time>
      </trkpt>
      <trkpt lat="46.198605950921774" lon="10.858896793797612">
        <ele>1902.5899999999999</ele>
        <time>2012-06-17T12:19:58Z</time>
      </trkpt>
      <trkpt lat="46.198609974235296" lon="10.858827726915479">
        <ele>1900.1800000000001</ele>
        <time>2012-06-17T12:20:07Z</time>
      </trkpt>
      <trkpt lat="46.198709551244974" lon="10.858822949230671">
        <ele>1897.3</ele>
        <time>2012-06-17T12:20:21Z</time>
      </trkpt>
      <trkpt lat="46.198743581771851" lon="10.858797216787934">
        <ele>1895.8599999999999</ele>
        <time>2012-06-17T12:20:29Z</time>
      </trkpt>
      <trkpt lat="46.198801500722766" lon="10.858753295615315">
        <ele>1893.45</ele>
        <time>2012-06-17T12:20:39Z</time>
      </trkpt>
      <trkpt lat="46.198875261470675" lon="10.858809119090438">
        <ele>1891.05</ele>
        <time>2012-06-17T12:20:51Z</time>
      </trkpt>
      <trkpt lat="46.198962014168501" lon="10.858828313648701">
        <ele>1887.6900000000001</ele>
        <time>2012-06-17T12:21:04Z</time>
      </trkpt>
      <trkpt lat="46.199020352214575" lon="10.858817081898451">
        <ele>1885.28</ele>
        <time>2012-06-17T12:21:15Z</time>
      </trkpt>
      <trkpt lat="46.19904994033277" lon="10.858739297837019">
        <ele>1883.8399999999999</ele>
        <time>2012-06-17T12:21:24Z</time>
      </trkpt>
      <trkpt lat="46.199069051072001" lon="10.858577862381935">
        <ele>1881.4400000000001</ele>
        <time>2012-06-17T12:21:34Z</time>
      </trkpt>
      <trkpt lat="46.199138704687357" lon="10.858625471591949">
        <ele>1880</ele>
        <time>2012-06-17T12:21:44Z</time>
      </trkpt>
      <trkpt lat="46.199244484305382" lon="10.858655143529177">
        <ele>1877.1099999999999</ele>
        <time>2012-06-17T12:21:56Z</time>
      </trkpt>
      <trkpt lat="46.19933232665062" lon="10.858718762174249">
        <ele>1873.75</ele>
        <time>2012-06-17T12:22:08Z</time>
      </trkpt>
      <trkpt lat="46.199360154569149" lon="10.858724880963564">
        <ele>1872.79</ele>
        <time>2012-06-17T12:22:12Z</time>
      </trkpt>
      <trkpt lat="46.199447074905038" lon="10.858763437718153">
        <ele>1870.3800000000001</ele>
        <time>2012-06-17T12:22:20Z</time>
      </trkpt>
      <trkpt lat="46.199523434042931" lon="10.858811633661389">
        <ele>1869.4200000000001</ele>
        <time>2012-06-17T12:22:27Z</time>
      </trkpt>
      <trkpt lat="46.199580347165465" lon="10.858929231762886">
        <ele>1867.98</ele>
        <time>2012-06-17T12:22:36Z</time>
      </trkpt>
      <trkpt lat="46.199575569480658" lon="10.858996203169227">
        <ele>1866.54</ele>
        <time>2012-06-17T12:22:40Z</time>
      </trkpt>
      <trkpt lat="46.199561320245266" lon="10.859038531780243">
        <ele>1866.54</ele>
        <time>2012-06-17T12:22:43Z</time>
      </trkpt>
      <trkpt lat="46.199621334671974" lon="10.859111873432994">
        <ele>1862.6900000000001</ele>
        <time>2012-06-17T12:22:54Z</time>
      </trkpt>
      <trkpt lat="46.199641786515713" lon="10.859224610030651">
        <ele>1860.77</ele>
        <time>2012-06-17T12:23:05Z</time>
      </trkpt>
      <trkpt lat="46.199645390734076" lon="10.859215473756194">
        <ele>1860.29</ele>
        <time>2012-06-17T12:23:06Z</time>
      </trkpt>
      <trkpt lat="46.199690233916044" lon="10.859047751873732">
        <ele>1856.9200000000001</ele>
        <time>2012-06-17T12:23:17Z</time>
      </trkpt>
      <trkpt lat="46.199689982458949" lon="10.859000980854034">
        <ele>1856.4400000000001</ele>
        <time>2012-06-17T12:23:20Z</time>
      </trkpt>
      <trkpt lat="46.199763659387827" lon="10.858846753835678">
        <ele>1853.0799999999999</ele>
        <time>2012-06-17T12:23:30Z</time>
      </trkpt>
      <trkpt lat="46.199834235012531" lon="10.858717421069741">
        <ele>1850.1900000000001</ele>
        <time>2012-06-17T12:23:42Z</time>
      </trkpt>
      <trkpt lat="46.199879664927721" lon="10.858611054718494">
        <ele>1846.8299999999999</ele>
        <time>2012-06-17T12:23:53Z</time>
      </trkpt>
      <trkpt lat="46.199913527816534" lon="10.858438136056066">
        <ele>1844.4300000000001</ele>
        <time>2012-06-17T12:24:06Z</time>
      </trkpt>
      <trkpt lat="46.199921406805515" lon="10.858371583744884">
        <ele>1843.95</ele>
        <time>2012-06-17T12:24:09Z</time>
      </trkpt>
      <trkpt lat="46.199907241389155" lon="10.858156001195312">
        <ele>1844.4300000000001</ele>
        <time>2012-06-17T12:24:24Z</time>
      </trkpt>
      <trkpt lat="46.199889723211527" lon="10.858072601258755">
        <ele>1843.95</ele>
        <time>2012-06-17T12:24:30Z</time>
      </trkpt>
      <trkpt lat="46.199868014082313" lon="10.858007054775953">
        <ele>1843.95</ele>
        <time>2012-06-17T12:24:43Z</time>
      </trkpt>
      <trkpt lat="46.199878575280309" lon="10.85804695263505">
        <ele>1842.98</ele>
        <time>2012-06-17T12:24:57Z</time>
      </trkpt>
      <trkpt lat="46.199849741533399" lon="10.858038235455751">
        <ele>1842.98</ele>
        <time>2012-06-17T12:25:32Z</time>
      </trkpt>
      <trkpt lat="46.199884777888656" lon="10.858034463599324">
        <ele>1842.5</ele>
        <time>2012-06-17T12:26:02Z</time>
      </trkpt>
      <trkpt lat="46.199884526431561" lon="10.858040079474449">
        <ele>1842.98</ele>
        <time>2012-06-17T12:26:38Z</time>
      </trkpt>
      <trkpt lat="46.199859296903014" lon="10.858067404478788">
        <ele>1842.5</ele>
        <time>2012-06-17T12:27:05Z</time>
      </trkpt>
      <trkpt lat="46.199820572510362" lon="10.858074948191643">
        <ele>1842.02</ele>
        <time>2012-06-17T12:27:37Z</time>
      </trkpt>
      <trkpt lat="46.199833899736404" lon="10.858071092516184">
        <ele>1841.54</ele>
        <time>2012-06-17T12:28:10Z</time>
      </trkpt>
      <trkpt lat="46.199835240840912" lon="10.858078887686133">
        <ele>1841.0599999999999</ele>
        <time>2012-06-17T12:28:44Z</time>
      </trkpt>
      <trkpt lat="46.199823254719377" lon="10.858065309002995">
        <ele>1840.5799999999999</ele>
        <time>2012-06-17T12:29:20Z</time>
      </trkpt>
      <trkpt lat="46.199850579723716" lon="10.858047287911177">
        <ele>1840.5799999999999</ele>
        <time>2012-06-17T12:30:01Z</time>
      </trkpt>
      <trkpt lat="46.199880754575133" lon="10.858044857159257">
        <ele>1840.0999999999999</ele>
        <time>2012-06-17T12:30:41Z</time>
      </trkpt>
      <trkpt lat="46.199863152578473" lon="10.858058435842395">
        <ele>1840.0999999999999</ele>
        <time>2012-06-17T12:31:22Z</time>
      </trkpt>
      <trkpt lat="46.199871115386486" lon="10.858021806925535">
        <ele>1841.0599999999999</ele>
        <time>2012-06-17T12:31:49Z</time>
      </trkpt>
      <trkpt lat="46.199871283024549" lon="10.858062542974949">
        <ele>1840.5799999999999</ele>
        <time>2012-06-17T12:32:06Z</time>
      </trkpt>
      <trkpt lat="46.199855776503682" lon="10.858094980940223">
        <ele>1839.6199999999999</ele>
        <time>2012-06-17T12:32:23Z</time>
      </trkpt>
      <trkpt lat="46.199864326044917" lon="10.858108224347234">
        <ele>1839.1400000000001</ele>
        <time>2012-06-17T12:32:51Z</time>
      </trkpt>
      <trkpt lat="46.199876563623548" lon="10.858034212142229">
        <ele>1839.1400000000001</ele>
        <time>2012-06-17T12:33:11Z</time>
      </trkpt>
      <trkpt lat="46.199867008253932" lon="10.858025578781962">
        <ele>1839.6199999999999</ele>
        <time>2012-06-17T12:33:36Z</time>
      </trkpt>
      <trkpt lat="46.19987421669066" lon="10.858054161071777">
        <ele>1839.6199999999999</ele>
        <time>2012-06-17T12:34:09Z</time>
      </trkpt>
      <trkpt lat="46.19988159276545" lon="10.858040917664766">
        <ele>1839.1400000000001</ele>
        <time>2012-06-17T12:34:37Z</time>
      </trkpt>
      <trkpt lat="46.199880167841911" lon="10.858042426407337">
        <ele>1839.6199999999999</ele>
        <time>2012-06-17T12:34:59Z</time>
      </trkpt>
      <trkpt lat="46.199879664927721" lon="10.858038989827037">
        <ele>1839.1400000000001</ele>
        <time>2012-06-17T12:35:26Z</time>
      </trkpt>
      <trkpt lat="46.199876898899674" lon="10.858052652329206">
        <ele>1838.6600000000001</ele>
        <time>2012-06-17T12:35:42Z</time>
      </trkpt>
      <trkpt lat="46.199868097901344" lon="10.858100177720189">
        <ele>1838.6600000000001</ele>
        <time>2012-06-17T12:36:04Z</time>
      </trkpt>
      <trkpt lat="46.199830966070294" lon="10.85812465287745">
        <ele>1838.6600000000001</ele>
        <time>2012-06-17T12:36:26Z</time>
      </trkpt>
      <trkpt lat="46.199838509783149" lon="10.858113169670105">
        <ele>1837.7</ele>
        <time>2012-06-17T12:36:45Z</time>
      </trkpt>
      <trkpt lat="46.19984881952405" lon="10.858101518824697">
        <ele>1837.7</ele>
        <time>2012-06-17T12:37:11Z</time>
      </trkpt>
      <trkpt lat="46.199848651885986" lon="10.858091125264764">
        <ele>1837.22</ele>
        <time>2012-06-17T12:37:41Z</time>
      </trkpt>
      <trkpt lat="46.199852004647255" lon="10.858105458319187">
        <ele>1837.22</ele>
        <time>2012-06-17T12:38:13Z</time>
      </trkpt>
      <trkpt lat="46.199876479804516" lon="10.858105206862092">
        <ele>1837.22</ele>
        <time>2012-06-17T12:38:48Z</time>
      </trkpt>
      <trkpt lat="46.199859967455268" lon="10.858116522431374">
        <ele>1837.22</ele>
        <time>2012-06-17T12:39:22Z</time>
      </trkpt>
      <trkpt lat="46.199854016304016" lon="10.858124569058418">
        <ele>1836.74</ele>
        <time>2012-06-17T12:39:55Z</time>
      </trkpt>
      <trkpt lat="46.199847310781479" lon="10.858132531866431">
        <ele>1837.22</ele>
        <time>2012-06-17T12:40:30Z</time>
      </trkpt>
      <trkpt lat="46.199868349358439" lon="10.858107218518853">
        <ele>1837.22</ele>
        <time>2012-06-17T12:41:04Z</time>
      </trkpt>
      <trkpt lat="46.199857369065285" lon="10.858127418905497">
        <ele>1837.22</ele>
        <time>2012-06-17T12:41:33Z</time>
      </trkpt>
      <trkpt lat="46.199866672977805" lon="10.858118534088135">
        <ele>1837.22</ele>
        <time>2012-06-17T12:42:04Z</time>
      </trkpt>
      <trkpt lat="46.199860302731395" lon="10.858114929869771">
        <ele>1837.22</ele>
        <time>2012-06-17T12:42:35Z</time>
      </trkpt>
      <trkpt lat="46.199855357408524" lon="10.858125407248735">
        <ele>1837.7</ele>
        <time>2012-06-17T12:43:00Z</time>
      </trkpt>
      <trkpt lat="46.199839096516371" lon="10.858164383098483">
        <ele>1837.7</ele>
        <time>2012-06-17T12:43:24Z</time>
      </trkpt>
      <trkpt lat="46.199846221134067" lon="10.858154743909836">
        <ele>1837.7</ele>
        <time>2012-06-17T12:43:47Z</time>
      </trkpt>
      <trkpt lat="46.199838174507022" lon="10.858144769445062">
        <ele>1837.7</ele>
        <time>2012-06-17T12:44:16Z</time>
      </trkpt>
      <trkpt lat="46.199879245832562" lon="10.858089700341225">
        <ele>1838.1800000000001</ele>
        <time>2012-06-17T12:44:39Z</time>
      </trkpt>
      <trkpt lat="46.199872707948089" lon="10.858115432783961">
        <ele>1837.22</ele>
        <time>2012-06-17T12:45:12Z</time>
      </trkpt>
      <trkpt lat="46.199881257489324" lon="10.858088778331876">
        <ele>1837.22</ele>
        <time>2012-06-17T12:45:41Z</time>
      </trkpt>
      <trkpt lat="46.19988159276545" lon="10.858086012303829">
        <ele>1838.1800000000001</ele>
        <time>2012-06-17T12:46:13Z</time>
      </trkpt>
      <trkpt lat="46.199849909171462" lon="10.858080228790641">
        <ele>1837.22</ele>
        <time>2012-06-17T12:46:43Z</time>
      </trkpt>
      <trkpt lat="46.199844712391496" lon="10.858037732541561">
        <ele>1837.7</ele>
        <time>2012-06-17T12:47:14Z</time>
      </trkpt>
      <trkpt lat="46.199840353801847" lon="10.858057430014014">
        <ele>1837.7</ele>
        <time>2012-06-17T12:47:43Z</time>
      </trkpt>
      <trkpt lat="46.199842700734735" lon="10.85804108530283">
        <ele>1837.22</ele>
        <time>2012-06-17T12:48:17Z</time>
      </trkpt>
      <trkpt lat="46.199859045445919" lon="10.858054496347904">
        <ele>1837.22</ele>
        <time>2012-06-17T12:48:51Z</time>
      </trkpt>
      <trkpt lat="46.199846640229225" lon="10.858106045052409">
        <ele>1837.7</ele>
        <time>2012-06-17T12:49:18Z</time>
      </trkpt>
      <trkpt lat="46.199875893071294" lon="10.858117444440722">
        <ele>1837.7</ele>
        <time>2012-06-17T12:49:45Z</time>
      </trkpt>
      <trkpt lat="46.199853681027889" lon="10.858102021738887">
        <ele>1837.22</ele>
        <time>2012-06-17T12:50:20Z</time>
      </trkpt>
      <trkpt lat="46.199847478419542" lon="10.858131274580956">
        <ele>1837.22</ele>
        <time>2012-06-17T12:50:40Z</time>
      </trkpt>
      <trkpt lat="46.199847646057606" lon="10.858133370056748">
        <ele>1836.74</ele>
        <time>2012-06-17T12:51:07Z</time>
      </trkpt>
      <trkpt lat="46.199855105951428" lon="10.85811291821301">
        <ele>1836.74</ele>
        <time>2012-06-17T12:51:30Z</time>
      </trkpt>
      <trkpt lat="46.199840437620878" lon="10.858129346743226">
        <ele>1837.22</ele>
        <time>2012-06-17T12:52:03Z</time>
      </trkpt>
      <trkpt lat="46.199848232790828" lon="10.858123395591974">
        <ele>1837.22</ele>
        <time>2012-06-17T12:52:36Z</time>
      </trkpt>
      <trkpt lat="46.199839515611529" lon="10.858121467754245">
        <ele>1836.74</ele>
        <time>2012-06-17T12:53:07Z</time>
      </trkpt>
      <trkpt lat="46.199841359630227" lon="10.858110319823027">
        <ele>1837.22</ele>
        <time>2012-06-17T12:53:32Z</time>
      </trkpt>
      <trkpt lat="46.199836330488324" lon="10.858095148578286">
        <ele>1836.74</ele>
        <time>2012-06-17T12:53:55Z</time>
      </trkpt>
      <trkpt lat="46.199846640229225" lon="10.858116270974278">
        <ele>1836.74</ele>
        <time>2012-06-17T12:54:21Z</time>
      </trkpt>
      <trkpt lat="46.199863068759441" lon="10.858106547966599">
        <ele>1837.22</ele>
        <time>2012-06-17T12:54:49Z</time>
      </trkpt>
      <trkpt lat="46.19984052143991" lon="10.858128257095814">
        <ele>1836.74</ele>
        <time>2012-06-17T12:55:09Z</time>
      </trkpt>
      <trkpt lat="46.199843790382147" lon="10.858092047274113">
        <ele>1836.74</ele>
        <time>2012-06-17T12:55:40Z</time>
      </trkpt>
      <trkpt lat="46.199861224740744" lon="10.858081402257085">
        <ele>1836.26</ele>
        <time>2012-06-17T12:56:04Z</time>
      </trkpt>
      <trkpt lat="46.199862733483315" lon="10.858068997040391">
        <ele>1836.26</ele>
        <time>2012-06-17T12:56:35Z</time>
      </trkpt>
      <trkpt lat="46.199827026575804" lon="10.858108224347234">
        <ele>1836.26</ele>
        <time>2012-06-17T12:57:07Z</time>
      </trkpt>
      <trkpt lat="46.199813112616539" lon="10.858120210468769">
        <ele>1836.74</ele>
        <time>2012-06-17T12:57:32Z</time>
      </trkpt>
      <trkpt lat="46.199845131486654" lon="10.858142757788301">
        <ele>1836.26</ele>
        <time>2012-06-17T12:58:00Z</time>
      </trkpt>
      <trkpt lat="46.199845969676971" lon="10.858133705332875">
        <ele>1836.74</ele>
        <time>2012-06-17T12:58:22Z</time>
      </trkpt>
      <trkpt lat="46.199830127879977" lon="10.858134878799319">
        <ele>1836.74</ele>
        <time>2012-06-17T12:58:51Z</time>
      </trkpt>
      <trkpt lat="46.199821075424552" lon="10.858152145519853">
        <ele>1836.74</ele>
        <time>2012-06-17T12:59:19Z</time>
      </trkpt>
      <trkpt lat="46.199823589995503" lon="10.858157342299819">
        <ele>1836.74</ele>
        <time>2012-06-17T12:59:34Z</time>
      </trkpt>
      <trkpt lat="46.199823254719377" lon="10.858164466917515">
        <ele>1836.26</ele>
        <time>2012-06-17T12:59:55Z</time>
      </trkpt>
      <trkpt lat="46.199836079031229" lon="10.858171842992306">
        <ele>1836.26</ele>
        <time>2012-06-17T13:00:17Z</time>
      </trkpt>
      <trkpt lat="46.199864326044917" lon="10.858067655935884">
        <ele>1836.74</ele>
        <time>2012-06-17T13:00:38Z</time>
      </trkpt>
      <trkpt lat="46.199842030182481" lon="10.858114510774612">
        <ele>1836.74</ele>
        <time>2012-06-17T13:01:04Z</time>
      </trkpt>
      <trkpt lat="46.199848316609859" lon="10.858129598200321">
        <ele>1836.26</ele>
        <time>2012-06-17T13:01:28Z</time>
      </trkpt>
      <trkpt lat="46.199855944141746" lon="10.858128005638719">
        <ele>1836.26</ele>
        <time>2012-06-17T13:01:51Z</time>
      </trkpt>
      <trkpt lat="46.199836330488324" lon="10.858107972890139">
        <ele>1836.26</ele>
        <time>2012-06-17T13:02:06Z</time>
      </trkpt>
      <trkpt lat="46.199823338538408" lon="10.858109649270773">
        <ele>1835.77</ele>
        <time>2012-06-17T13:02:24Z</time>
      </trkpt>
      <trkpt lat="46.199856027960777" lon="10.858112750574946">
        <ele>1836.26</ele>
        <time>2012-06-17T13:02:53Z</time>
      </trkpt>
      <trkpt lat="46.199858291074634" lon="10.858114678412676">
        <ele>1836.26</ele>
        <time>2012-06-17T13:03:12Z</time>
      </trkpt>
      <trkpt lat="46.19985569268465" lon="10.858125071972609">
        <ele>1835.77</ele>
        <time>2012-06-17T13:03:35Z</time>
      </trkpt>
      <trkpt lat="46.199862230569124" lon="10.858114426955581">
        <ele>1836.26</ele>
        <time>2012-06-17T13:04:02Z</time>
      </trkpt>
      <trkpt lat="46.19985518977046" lon="10.858143428340554">
        <ele>1835.29</ele>
        <time>2012-06-17T13:04:23Z</time>
      </trkpt>
      <trkpt lat="46.199831133708358" lon="10.858151139691472">
        <ele>1835.77</ele>
        <time>2012-06-17T13:04:45Z</time>
      </trkpt>
      <trkpt lat="46.19981411844492" lon="10.858110906556249">
        <ele>1835.77</ele>
        <time>2012-06-17T13:05:06Z</time>
      </trkpt>
      <trkpt lat="46.199807077646255" lon="10.858112666755915">
        <ele>1835.29</ele>
        <time>2012-06-17T13:05:32Z</time>
      </trkpt>
      <trkpt lat="46.199824931100011" lon="10.858117863535881">
        <ele>1835.29</ele>
        <time>2012-06-17T13:05:55Z</time>
      </trkpt>
      <trkpt lat="46.199847646057606" lon="10.85807092487812">
        <ele>1835.29</ele>
        <time>2012-06-17T13:06:14Z</time>
      </trkpt>
      <trkpt lat="46.199859883636236" lon="10.85804401896894">
        <ele>1835.29</ele>
        <time>2012-06-17T13:06:40Z</time>
      </trkpt>
      <trkpt lat="46.199860889464617" lon="10.858050975948572">
        <ele>1835.77</ele>
        <time>2012-06-17T13:06:56Z</time>
      </trkpt>
      <trkpt lat="46.199846304953098" lon="10.858038403093815">
        <ele>1836.26</ele>
        <time>2012-06-17T13:07:11Z</time>
      </trkpt>
      <trkpt lat="46.199866505339742" lon="10.858011161908507">
        <ele>1836.26</ele>
        <time>2012-06-17T13:07:26Z</time>
      </trkpt>
      <trkpt lat="46.199877737089992" lon="10.858021890744567">
        <ele>1836.26</ele>
        <time>2012-06-17T13:07:42Z</time>
      </trkpt>
      <trkpt lat="46.19986591860652" lon="10.858002277091146">
        <ele>1836.26</ele>
        <time>2012-06-17T13:07:59Z</time>
      </trkpt>
      <trkpt lat="46.199895674362779" lon="10.858054747804999">
        <ele>1836.26</ele>
        <time>2012-06-17T13:08:13Z</time>
      </trkpt>
      <trkpt lat="46.19990011677146" lon="10.858050053939223">
        <ele>1835.77</ele>
        <time>2012-06-17T13:08:35Z</time>
      </trkpt>
      <trkpt lat="46.199905229732394" lon="10.858014766126871">
        <ele>1835.77</ele>
        <time>2012-06-17T13:08:56Z</time>
      </trkpt>
      <trkpt lat="46.199948564171791" lon="10.858033709228039">
        <ele>1836.26</ele>
        <time>2012-06-17T13:09:09Z</time>
      </trkpt>
      <trkpt lat="46.199968848377466" lon="10.858026249334216">
        <ele>1834.3299999999999</ele>
        <time>2012-06-17T13:09:21Z</time>
      </trkpt>
      <trkpt lat="46.200004303827882" lon="10.85803035646677">
        <ele>1832.4100000000001</ele>
        <time>2012-06-17T13:09:33Z</time>
      </trkpt>
      <trkpt lat="46.200006818398833" lon="10.858011581003666">
        <ele>1831.9300000000001</ele>
        <time>2012-06-17T13:09:46Z</time>
      </trkpt>
      <trkpt lat="46.20002668350935" lon="10.858012335374951">
        <ele>1831.45</ele>
        <time>2012-06-17T13:10:06Z</time>
      </trkpt>
      <trkpt lat="46.200025090947747" lon="10.857978640124202">
        <ele>1829.53</ele>
        <time>2012-06-17T13:10:19Z</time>
      </trkpt>
      <trkpt lat="46.200024085119367" lon="10.857985094189644">
        <ele>1832.8900000000001</ele>
        <time>2012-06-17T13:10:21Z</time>
      </trkpt>
      <trkpt lat="46.20001788251102" lon="10.857995320111513">
        <ele>1831.45</ele>
        <time>2012-06-17T13:10:45Z</time>
      </trkpt>
      <trkpt lat="46.200089380145073" lon="10.857935808598995">
        <ele>1829.53</ele>
        <time>2012-06-17T13:11:00Z</time>
      </trkpt>
      <trkpt lat="46.20013321749866" lon="10.857908064499497">
        <ele>1828.0799999999999</ele>
        <time>2012-06-17T13:11:16Z</time>
      </trkpt>
      <trkpt lat="46.200172528624535" lon="10.857849894091487">
        <ele>1826.6400000000001</ele>
        <time>2012-06-17T13:11:30Z</time>
      </trkpt>
      <trkpt lat="46.200208906084299" lon="10.857812594622374">
        <ele>1823.76</ele>
        <time>2012-06-17T13:11:44Z</time>
      </trkpt>
      <trkpt lat="46.200239164754748" lon="10.85779432207346">
        <ele>1823.76</ele>
        <time>2012-06-17T13:11:56Z</time>
      </trkpt>
      <trkpt lat="46.200306303799152" lon="10.857857270166278">
        <ele>1822.3199999999999</ele>
        <time>2012-06-17T13:12:12Z</time>
      </trkpt>
      <trkpt lat="46.200344106182456" lon="10.85786372423172">
        <ele>1821.8399999999999</ele>
        <time>2012-06-17T13:12:30Z</time>
      </trkpt>
      <trkpt lat="46.200327090919018" lon="10.857958942651749">
        <ele>1818.47</ele>
        <time>2012-06-17T13:12:44Z</time>
      </trkpt>
      <trkpt lat="46.200399259105325" lon="10.857967408373952">
        <ele>1815.5899999999999</ele>
        <time>2012-06-17T13:12:58Z</time>
      </trkpt>
      <trkpt lat="46.200411999598145" lon="10.858058938756585">
        <ele>1814.1500000000001</ele>
        <time>2012-06-17T13:13:09Z</time>
      </trkpt>
      <trkpt lat="46.200431445613503" lon="10.858215093612671">
        <ele>1811.26</ele>
        <time>2012-06-17T13:13:23Z</time>
      </trkpt>
      <trkpt lat="46.200476204976439" lon="10.858337637037039">
        <ele>1809.3399999999999</ele>
        <time>2012-06-17T13:13:36Z</time>
      </trkpt>
      <trkpt lat="46.200484586879611" lon="10.858463700860739">
        <ele>1807.9000000000001</ele>
        <time>2012-06-17T13:13:48Z</time>
      </trkpt>
      <trkpt lat="46.200431110337377" lon="10.858686910942197">
        <ele>1806.45</ele>
        <time>2012-06-17T13:14:03Z</time>
      </trkpt>
      <trkpt lat="46.200400767847896" lon="10.858888328075409">
        <ele>1805.97</ele>
        <time>2012-06-17T13:14:18Z</time>
      </trkpt>
      <trkpt lat="46.2003970798105" lon="10.858942223712802">
        <ele>1804.05</ele>
        <time>2012-06-17T13:14:32Z</time>
      </trkpt>
      <trkpt lat="46.200386099517345" lon="10.85905303247273">
        <ele>1802.6099999999999</ele>
        <time>2012-06-17T13:14:46Z</time>
      </trkpt>
      <trkpt lat="46.200375286862254" lon="10.859163254499435">
        <ele>1800.6900000000001</ele>
        <time>2012-06-17T13:14:58Z</time>
      </trkpt>
      <trkpt lat="46.200378555804491" lon="10.859180018305779">
        <ele>1800.21</ele>
        <time>2012-06-17T13:15:01Z</time>
      </trkpt>
      <trkpt lat="46.200408898293972" lon="10.859221089631319">
        <ele>1799.24</ele>
        <time>2012-06-17T13:15:05Z</time>
      </trkpt>
      <trkpt lat="46.200421722605824" lon="10.859422255307436">
        <ele>1797.8</ele>
        <time>2012-06-17T13:15:20Z</time>
      </trkpt>
      <trkpt lat="46.200408479198813" lon="10.85949576459825">
        <ele>1797.3199999999999</ele>
        <time>2012-06-17T13:15:32Z</time>
      </trkpt>
      <trkpt lat="46.200427506119013" lon="10.859603891149163">
        <ele>1795.4000000000001</ele>
        <time>2012-06-17T13:15:46Z</time>
      </trkpt>
      <trkpt lat="46.200446030125022" lon="10.859766332432628">
        <ele>1792.03</ele>
        <time>2012-06-17T13:15:59Z</time>
      </trkpt>
      <trkpt lat="46.200479893013835" lon="10.859829029068351">
        <ele>1791.55</ele>
        <time>2012-06-17T13:16:07Z</time>
      </trkpt>
      <trkpt lat="46.200546026229858" lon="10.859974958002567">
        <ele>1788.6700000000001</ele>
        <time>2012-06-17T13:16:23Z</time>
      </trkpt>
      <trkpt lat="46.20054954662919" lon="10.860065147280693">
        <ele>1788.1900000000001</ele>
        <time>2012-06-17T13:16:29Z</time>
      </trkpt>
      <trkpt lat="46.200583493337035" lon="10.860212249681354">
        <ele>1785.79</ele>
        <time>2012-06-17T13:16:42Z</time>
      </trkpt>
      <trkpt lat="46.200621547177434" lon="10.860346695408225">
        <ele>1783.3800000000001</ele>
        <time>2012-06-17T13:16:56Z</time>
      </trkpt>
      <trkpt lat="46.200675442814827" lon="10.86046177893877">
        <ele>1781.46</ele>
        <time>2012-06-17T13:17:11Z</time>
      </trkpt>
      <trkpt lat="46.200731014832854" lon="10.860544592142105">
        <ele>1779.0599999999999</ele>
        <time>2012-06-17T13:17:26Z</time>
      </trkpt>
      <trkpt lat="46.200717687606812" lon="10.860433364287019">
        <ele>1777.6099999999999</ele>
        <time>2012-06-17T13:17:36Z</time>
      </trkpt>
      <trkpt lat="46.200694888830185" lon="10.860262122005224">
        <ele>1774.73</ele>
        <time>2012-06-17T13:17:52Z</time>
      </trkpt>
      <trkpt lat="46.200723554939032" lon="10.860142260789871">
        <ele>1772.8099999999999</ele>
        <time>2012-06-17T13:18:05Z</time>
      </trkpt>
      <trkpt lat="46.200811984017491" lon="10.860021896660328">
        <ele>1770.4100000000001</ele>
        <time>2012-06-17T13:18:21Z</time>
      </trkpt>
      <trkpt lat="46.20085196569562" lon="10.860091466456652">
        <ele>1768.96</ele>
        <time>2012-06-17T13:18:30Z</time>
      </trkpt>
      <trkpt lat="46.200905190780759" lon="10.860227923840284">
        <ele>1766.5599999999999</ele>
        <time>2012-06-17T13:18:44Z</time>
      </trkpt>
      <trkpt lat="46.200933270156384" lon="10.860346527770162">
        <ele>1764.1600000000001</ele>
        <time>2012-06-17T13:18:59Z</time>
      </trkpt>
      <trkpt lat="46.200945256277919" lon="10.860380055382848">
        <ele>1763.2</ele>
        <time>2012-06-17T13:19:03Z</time>
      </trkpt>
      <trkpt lat="46.201026476919651" lon="10.86056437343359">
        <ele>1759.8299999999999</ele>
        <time>2012-06-17T13:19:20Z</time>
      </trkpt>
      <trkpt lat="46.201080624014139" lon="10.860656490549445">
        <ele>1757.9100000000001</ele>
        <time>2012-06-17T13:19:34Z</time>
      </trkpt>
      <trkpt lat="46.201136950403452" lon="10.860727485269308">
        <ele>1755.02</ele>
        <time>2012-06-17T13:19:48Z</time>
      </trkpt>
      <trkpt lat="46.201156144961715" lon="10.860762856900692">
        <ele>1753.5799999999999</ele>
        <time>2012-06-17T13:19:53Z</time>
      </trkpt>
      <trkpt lat="46.20124826207757" lon="10.860871654003859">
        <ele>1751.6600000000001</ele>
        <time>2012-06-17T13:20:06Z</time>
      </trkpt>
      <trkpt lat="46.201267456635833" lon="10.860816249623895">
        <ele>1748.78</ele>
        <time>2012-06-17T13:20:19Z</time>
      </trkpt>
      <trkpt lat="46.201245998963714" lon="10.860743159428239">
        <ele>1746.8499999999999</ele>
        <time>2012-06-17T13:20:27Z</time>
      </trkpt>
      <trkpt lat="46.201261254027486" lon="10.860568480566144">
        <ele>1744.45</ele>
        <time>2012-06-17T13:20:43Z</time>
      </trkpt>
      <trkpt lat="46.201309449970722" lon="10.860463790595531">
        <ele>1742.53</ele>
        <time>2012-06-17T13:20:57Z</time>
      </trkpt>
      <trkpt lat="46.201306851580739" lon="10.860383156687021">
        <ele>1742.05</ele>
        <time>2012-06-17T13:21:08Z</time>
      </trkpt>
      <trkpt lat="46.201345408335328" lon="10.860228091478348">
        <ele>1739.6400000000001</ele>
        <time>2012-06-17T13:21:22Z</time>
      </trkpt>
      <trkpt lat="46.20135186240077" lon="10.860206130892038">
        <ele>1739.1600000000001</ele>
        <time>2012-06-17T13:21:24Z</time>
      </trkpt>
      <trkpt lat="46.20135965757072" lon="10.860178051516414">
        <ele>1738.6800000000001</ele>
        <time>2012-06-17T13:21:26Z</time>
      </trkpt>
      <trkpt lat="46.20137482881546" lon="10.859988117590547">
        <ele>1735.3199999999999</ele>
        <time>2012-06-17T13:21:43Z</time>
      </trkpt>
      <trkpt lat="46.201392682269216" lon="10.859848977997899">
        <ele>1733.3900000000001</ele>
        <time>2012-06-17T13:21:58Z</time>
      </trkpt>
      <trkpt lat="46.201398801058531" lon="10.859778570011258">
        <ele>1731.47</ele>
        <time>2012-06-17T13:22:03Z</time>
      </trkpt>
      <trkpt lat="46.201410619542003" lon="10.85964429192245">
        <ele>1730.51</ele>
        <time>2012-06-17T13:22:14Z</time>
      </trkpt>
      <trkpt lat="46.201395532116294" lon="10.859491657465696">
        <ele>1728.1099999999999</ele>
        <time>2012-06-17T13:22:28Z</time>
      </trkpt>
      <trkpt lat="46.201392095535994" lon="10.85939266718924">
        <ele>1726.6700000000001</ele>
        <time>2012-06-17T13:22:36Z</time>
      </trkpt>
      <trkpt lat="46.20139142498374" lon="10.859368946403265">
        <ele>1726.6700000000001</ele>
        <time>2012-06-17T13:22:38Z</time>
      </trkpt>
      <trkpt lat="46.201411038637161" lon="10.859223939478397">
        <ele>1723.78</ele>
        <time>2012-06-17T13:22:50Z</time>
      </trkpt>
      <trkpt lat="46.201435597613454" lon="10.859068874269724">
        <ele>1720.4200000000001</ele>
        <time>2012-06-17T13:23:04Z</time>
      </trkpt>
      <trkpt lat="46.201497372239828" lon="10.858935015276074">
        <ele>1717.53</ele>
        <time>2012-06-17T13:23:17Z</time>
      </trkpt>
      <trkpt lat="46.201550178229809" lon="10.858751619234681">
        <ele>1714.1700000000001</ele>
        <time>2012-06-17T13:23:31Z</time>
      </trkpt>
      <trkpt lat="46.201572641730309" lon="10.85856637917459">
        <ele>1712.25</ele>
        <time>2012-06-17T13:23:45Z</time>
      </trkpt>
      <trkpt lat="46.201672805473208" lon="10.858391365036368">
        <ele>1709.8399999999999</ele>
        <time>2012-06-17T13:24:02Z</time>
      </trkpt>
      <trkpt lat="46.201721588149667" lon="10.858234288170934">
        <ele>1707.9200000000001</ele>
        <time>2012-06-17T13:24:19Z</time>
      </trkpt>
      <trkpt lat="46.201731143519282" lon="10.858078803867102">
        <ele>1706.48</ele>
        <time>2012-06-17T13:24:33Z</time>
      </trkpt>
      <trkpt lat="46.201750840991735" lon="10.857979981228709">
        <ele>1703.5899999999999</ele>
        <time>2012-06-17T13:24:45Z</time>
      </trkpt>
      <trkpt lat="46.201748577877879" lon="10.857867328450084">
        <ele>1700.71</ele>
        <time>2012-06-17T13:24:58Z</time>
      </trkpt>
      <trkpt lat="46.201759558171034" lon="10.857726093381643">
        <ele>1698.79</ele>
        <time>2012-06-17T13:25:11Z</time>
      </trkpt>
      <trkpt lat="46.201776824891567" lon="10.857677729800344">
        <ele>1695.9000000000001</ele>
        <time>2012-06-17T13:25:25Z</time>
      </trkpt>
      <trkpt lat="46.201809262856841" lon="10.857634143903852">
        <ele>1694.46</ele>
        <time>2012-06-17T13:25:30Z</time>
      </trkpt>
      <trkpt lat="46.201871121302247" lon="10.857484443113208">
        <ele>1691.0999999999999</ele>
        <time>2012-06-17T13:25:45Z</time>
      </trkpt>
      <trkpt lat="46.202012859284878" lon="10.8573242649436">
        <ele>1688.21</ele>
        <time>2012-06-17T13:26:06Z</time>
      </trkpt>
      <trkpt lat="46.202025599777699" lon="10.857132570818067">
        <ele>1684.8499999999999</ele>
        <time>2012-06-17T13:26:25Z</time>
      </trkpt>
      <trkpt lat="46.202090475708246" lon="10.857069035992026">
        <ele>1681.48</ele>
        <time>2012-06-17T13:26:39Z</time>
      </trkpt>
      <trkpt lat="46.20210631750524" lon="10.856972141191363">
        <ele>1678.5999999999999</ele>
        <time>2012-06-17T13:26:57Z</time>
      </trkpt>
      <trkpt lat="46.202193405479193" lon="10.856885639950633">
        <ele>1675.72</ele>
        <time>2012-06-17T13:27:16Z</time>
      </trkpt>
      <trkpt lat="46.202203966677189" lon="10.857062833383679">
        <ele>1672.3499999999999</ele>
        <time>2012-06-17T13:27:33Z</time>
      </trkpt>
      <trkpt lat="46.202310165390372" lon="10.857087727636099">
        <ele>1669.47</ele>
        <time>2012-06-17T13:27:48Z</time>
      </trkpt>
      <trkpt lat="46.202399013563991" lon="10.857174061238766">
        <ele>1667.54</ele>
        <time>2012-06-17T13:28:01Z</time>
      </trkpt>
      <trkpt lat="46.202415861189365" lon="10.857323426753283">
        <ele>1665.1400000000001</ele>
        <time>2012-06-17T13:28:14Z</time>
      </trkpt>
      <trkpt lat="46.202370431274176" lon="10.857438175007701">
        <ele>1662.74</ele>
        <time>2012-06-17T13:28:27Z</time>
      </trkpt>
      <trkpt lat="46.202350147068501" lon="10.857500787824392">
        <ele>1661.3</ele>
        <time>2012-06-17T13:28:34Z</time>
      </trkpt>
      <trkpt lat="46.202386859804392" lon="10.857474803924561">
        <ele>1658.8900000000001</ele>
        <time>2012-06-17T13:28:48Z</time>
      </trkpt>
      <trkpt lat="46.202508732676506" lon="10.857369946315885">
        <ele>1656.49</ele>
        <time>2012-06-17T13:29:03Z</time>
      </trkpt>
      <trkpt lat="46.202570674940944" lon="10.857251510024071">
        <ele>1653.1199999999999</ele>
        <time>2012-06-17T13:29:17Z</time>
      </trkpt>
      <trkpt lat="46.202620044350624" lon="10.857119327411056">
        <ele>1651.2</ele>
        <time>2012-06-17T13:29:30Z</time>
      </trkpt>
      <trkpt lat="46.202617445960641" lon="10.857109939679503">
        <ele>1650.72</ele>
        <time>2012-06-17T13:29:31Z</time>
      </trkpt>
      <trkpt lat="46.202659690752625" lon="10.856944313272834">
        <ele>1648.3199999999999</ele>
        <time>2012-06-17T13:29:48Z</time>
      </trkpt>
      <trkpt lat="46.202703276649117" lon="10.85679117590189">
        <ele>1646.8800000000001</ele>
        <time>2012-06-17T13:30:01Z</time>
      </trkpt>
      <trkpt lat="46.202852055430412" lon="10.856657568365335">
        <ele>1645.9100000000001</ele>
        <time>2012-06-17T13:30:12Z</time>
      </trkpt>
      <trkpt lat="46.202881811186671" lon="10.856594452634454">
        <ele>1645.4300000000001</ele>
        <time>2012-06-17T13:30:19Z</time>
      </trkpt>
      <trkpt lat="46.202883068472147" lon="10.8564677182585">
        <ele>1643.51</ele>
        <time>2012-06-17T13:30:33Z</time>
      </trkpt>
      <trkpt lat="46.202964121475816" lon="10.856339810416102">
        <ele>1642.0699999999999</ele>
        <time>2012-06-17T13:30:45Z</time>
      </trkpt>
      <trkpt lat="46.203054562211037" lon="10.856257164850831">
        <ele>1640.1500000000001</ele>
        <time>2012-06-17T13:30:58Z</time>
      </trkpt>
      <trkpt lat="46.203012904152274" lon="10.856161108240485">
        <ele>1637.26</ele>
        <time>2012-06-17T13:31:13Z</time>
      </trkpt>
      <trkpt lat="46.202964289113879" lon="10.856084330007434">
        <ele>1634.3800000000001</ele>
        <time>2012-06-17T13:31:28Z</time>
      </trkpt>
      <trkpt lat="46.202913243323565" lon="10.855905124917626">
        <ele>1631.98</ele>
        <time>2012-06-17T13:31:42Z</time>
      </trkpt>
      <trkpt lat="46.202969485893846" lon="10.855745784938335">
        <ele>1629.0899999999999</ele>
        <time>2012-06-17T13:31:56Z</time>
      </trkpt>
      <trkpt lat="46.203002091497183" lon="10.855628941208124">
        <ele>1626.6900000000001</ele>
        <time>2012-06-17T13:32:09Z</time>
      </trkpt>
      <trkpt lat="46.20314709842205" lon="10.855530453845859">
        <ele>1623.3199999999999</ele>
        <time>2012-06-17T13:32:23Z</time>
      </trkpt>
      <trkpt lat="46.203223206102848" lon="10.85542107000947">
        <ele>1621.4000000000001</ele>
        <time>2012-06-17T13:32:36Z</time>
      </trkpt>
      <trkpt lat="46.20320568792522" lon="10.855396762490273">
        <ele>1619</ele>
        <time>2012-06-17T13:32:50Z</time>
      </trkpt>
      <trkpt lat="46.203134944662452" lon="10.855331383645535">
        <ele>1618.04</ele>
        <time>2012-06-17T13:33:02Z</time>
      </trkpt>
      <trkpt lat="46.203131508082151" lon="10.85516894236207">
        <ele>1615.1500000000001</ele>
        <time>2012-06-17T13:33:16Z</time>
      </trkpt>
      <trkpt lat="46.20319839566946" lon="10.855056373402476">
        <ele>1611.79</ele>
        <time>2012-06-17T13:33:29Z</time>
      </trkpt>
      <trkpt lat="46.203371733427048" lon="10.855031060054898">
        <ele>1609.3800000000001</ele>
        <time>2012-06-17T13:33:47Z</time>
      </trkpt>
      <trkpt lat="46.203501652926207" lon="10.855032233521342">
        <ele>1607.46</ele>
        <time>2012-06-17T13:34:02Z</time>
      </trkpt>
      <trkpt lat="46.203503496944904" lon="10.854971967637539">
        <ele>1606.5</ele>
        <time>2012-06-17T13:34:09Z</time>
      </trkpt>
      <trkpt lat="46.203508777543902" lon="10.854814387857914">
        <ele>1602.6600000000001</ele>
        <time>2012-06-17T13:34:25Z</time>
      </trkpt>
      <trkpt lat="46.203493271023035" lon="10.854743896052241">
        <ele>1601.21</ele>
        <time>2012-06-17T13:34:38Z</time>
      </trkpt>
      <trkpt lat="46.203398052603006" lon="10.854622609913349">
        <ele>1597.8499999999999</ele>
        <time>2012-06-17T13:34:56Z</time>
      </trkpt>
      <trkpt lat="46.203364441171288" lon="10.854504844173789">
        <ele>1596.4100000000001</ele>
        <time>2012-06-17T13:35:05Z</time>
      </trkpt>
      <trkpt lat="46.203343654051423" lon="10.854411721229553">
        <ele>1594</ele>
        <time>2012-06-17T13:35:20Z</time>
      </trkpt>
      <trkpt lat="46.203408865258098" lon="10.854290602728724">
        <ele>1591.5999999999999</ele>
        <time>2012-06-17T13:35:36Z</time>
      </trkpt>
      <trkpt lat="46.203453373163939" lon="10.854175100103021">
        <ele>1589.2</ele>
        <time>2012-06-17T13:35:47Z</time>
      </trkpt>
      <trkpt lat="46.203461335971951" lon="10.85405976511538">
        <ele>1587.75</ele>
        <time>2012-06-17T13:35:57Z</time>
      </trkpt>
      <trkpt lat="46.203763503581285" lon="10.853989692404866">
        <ele>1585.8299999999999</ele>
        <time>2012-06-17T13:36:11Z</time>
      </trkpt>
      <trkpt lat="46.203790074214339" lon="10.853907046839595">
        <ele>1582.95</ele>
        <time>2012-06-17T13:36:22Z</time>
      </trkpt>
      <trkpt lat="46.203775489702821" lon="10.853770170360804">
        <ele>1580.54</ele>
        <time>2012-06-17T13:36:34Z</time>
      </trkpt>
      <trkpt lat="46.203767778351903" lon="10.85362927056849">
        <ele>1578.1400000000001</ele>
        <time>2012-06-17T13:36:49Z</time>
      </trkpt>
      <trkpt lat="46.203800803050399" lon="10.853513265028596">
        <ele>1576.22</ele>
        <time>2012-06-17T13:37:00Z</time>
      </trkpt>
      <trkpt lat="46.203730143606663" lon="10.853356523439288">
        <ele>1574.78</ele>
        <time>2012-06-17T13:37:13Z</time>
      </trkpt>
      <trkpt lat="46.203738106414676" lon="10.853234482929111">
        <ele>1571.8900000000001</ele>
        <time>2012-06-17T13:37:25Z</time>
      </trkpt>
      <trkpt lat="46.203759396448731" lon="10.853154603391886">
        <ele>1569.97</ele>
        <time>2012-06-17T13:37:37Z</time>
      </trkpt>
      <trkpt lat="46.203723018988967" lon="10.853040777146816">
        <ele>1568.05</ele>
        <time>2012-06-17T13:37:52Z</time>
      </trkpt>
      <trkpt lat="46.203782027587295" lon="10.852939356118441">
        <ele>1566.1199999999999</ele>
        <time>2012-06-17T13:38:05Z</time>
      </trkpt>
      <trkpt lat="46.203754199668765" lon="10.852781189605594">
        <ele>1562.76</ele>
        <time>2012-06-17T13:38:21Z</time>
      </trkpt>
      <trkpt lat="46.203819662332535" lon="10.852704495191574">
        <ele>1561.3199999999999</ele>
        <time>2012-06-17T13:38:32Z</time>
      </trkpt>
      <trkpt lat="46.203784877434373" lon="10.852473322302103">
        <ele>1558.4300000000001</ele>
        <time>2012-06-17T13:38:48Z</time>
      </trkpt>
      <trkpt lat="46.203942708671093" lon="10.852335607632995">
        <ele>1556.51</ele>
        <time>2012-06-17T13:39:03Z</time>
      </trkpt>
      <trkpt lat="46.203961567953229" lon="10.852223290130496">
        <ele>1554.1099999999999</ele>
        <time>2012-06-17T13:39:14Z</time>
      </trkpt>
      <trkpt lat="46.204059887677431" lon="10.852214908227324">
        <ele>1551.71</ele>
        <time>2012-06-17T13:39:27Z</time>
      </trkpt>
      <trkpt lat="46.20411898009479" lon="10.852202754467726">
        <ele>1552.1900000000001</ele>
        <time>2012-06-17T13:39:43Z</time>
      </trkpt>
      <trkpt lat="46.204170109704137" lon="10.852232091128826">
        <ele>1551.71</ele>
        <time>2012-06-17T13:40:04Z</time>
      </trkpt>
      <trkpt lat="46.204084111377597" lon="10.852228989824653">
        <ele>1551.22</ele>
        <time>2012-06-17T13:40:17Z</time>
      </trkpt>
      <trkpt lat="46.204568669199944" lon="10.852326974272728">
        <ele>1551.71</ele>
        <time>2012-06-17T13:40:52Z</time>
      </trkpt>
      <trkpt lat="46.204455262050033" lon="10.852464018389583">
        <ele>1551.22</ele>
        <time>2012-06-17T13:41:10Z</time>
      </trkpt>
      <trkpt lat="46.204526424407959" lon="10.852449685335159">
        <ele>1552.1900000000001</ele>
        <time>2012-06-17T13:41:31Z</time>
      </trkpt>
      <trkpt lat="46.204501027241349" lon="10.852395202964544">
        <ele>1552.1900000000001</ele>
        <time>2012-06-17T13:41:47Z</time>
      </trkpt>
      <trkpt lat="46.204465068876743" lon="10.852355137467384">
        <ele>1552.1900000000001</ele>
        <time>2012-06-17T13:42:06Z</time>
      </trkpt>
      <trkpt lat="46.204612841829658" lon="10.852347845211625">
        <ele>1550.26</ele>
        <time>2012-06-17T13:42:21Z</time>
      </trkpt>
      <trkpt lat="46.204707641154528" lon="10.852320771664381">
        <ele>1549.3</ele>
        <time>2012-06-17T13:42:30Z</time>
      </trkpt>
      <trkpt lat="46.204876201227307" lon="10.852276431396604">
        <ele>1547.3800000000001</ele>
        <time>2012-06-17T13:42:47Z</time>
      </trkpt>
      <trkpt lat="46.204940574243665" lon="10.852252207696438">
        <ele>1545.46</ele>
        <time>2012-06-17T13:43:02Z</time>
      </trkpt>
      <trkpt lat="46.205042833462358" lon="10.852232845500112">
        <ele>1544.01</ele>
        <time>2012-06-17T13:43:17Z</time>
      </trkpt>
      <trkpt lat="46.205072086304426" lon="10.852248771116138">
        <ele>1543.05</ele>
        <time>2012-06-17T13:43:21Z</time>
      </trkpt>
      <trkpt lat="46.205103350803256" lon="10.852243490517139">
        <ele>1542.0899999999999</ele>
        <time>2012-06-17T13:43:23Z</time>
      </trkpt>
      <trkpt lat="46.205231593921781" lon="10.852203089743853">
        <ele>1539.21</ele>
        <time>2012-06-17T13:43:38Z</time>
      </trkpt>
      <trkpt lat="46.205414654687047" lon="10.852135447785258">
        <ele>1537.29</ele>
        <time>2012-06-17T13:43:51Z</time>
      </trkpt>
      <trkpt lat="46.205494198948145" lon="10.852120444178581">
        <ele>1536.3199999999999</ele>
        <time>2012-06-17T13:44:06Z</time>
      </trkpt>
      <trkpt lat="46.205547172576189" lon="10.852227061986923">
        <ele>1534.8800000000001</ele>
        <time>2012-06-17T13:44:18Z</time>
      </trkpt>
      <trkpt lat="46.205650521442294" lon="10.852272910997272">
        <ele>1534.4000000000001</ele>
        <time>2012-06-17T13:44:33Z</time>
      </trkpt>
      <trkpt lat="46.205731071531773" lon="10.852217841893435">
        <ele>1534.4000000000001</ele>
        <time>2012-06-17T13:44:47Z</time>
      </trkpt>
      <trkpt lat="46.205765018239617" lon="10.852104602381587">
        <ele>1535.3599999999999</ele>
        <time>2012-06-17T13:45:01Z</time>
      </trkpt>
      <trkpt lat="46.205825954675674" lon="10.85209253244102">
        <ele>1538.25</ele>
        <time>2012-06-17T13:45:10Z</time>
      </trkpt>
      <trkpt lat="46.205847831442952" lon="10.852084485813975">
        <ele>1538.73</ele>
        <time>2012-06-17T13:45:13Z</time>
      </trkpt>
      <trkpt lat="46.205949336290359" lon="10.852066548541188">
        <ele>1540.6500000000001</ele>
        <time>2012-06-17T13:45:25Z</time>
      </trkpt>
      <trkpt lat="46.206043632701039" lon="10.85208079777658">
        <ele>1543.05</ele>
        <time>2012-06-17T13:45:38Z</time>
      </trkpt>
      <trkpt lat="46.206144047901034" lon="10.852084653452039">
        <ele>1542.0899999999999</ele>
        <time>2012-06-17T13:45:52Z</time>
      </trkpt>
      <trkpt lat="46.20613306760788" lon="10.852096136659384">
        <ele>1541.6099999999999</ele>
        <time>2012-06-17T13:46:02Z</time>
      </trkpt>
      <trkpt lat="46.206184197217226" lon="10.852015670388937">
        <ele>1541.6099999999999</ele>
        <time>2012-06-17T13:46:18Z</time>
      </trkpt>
      <trkpt lat="46.20628360658884" lon="10.851916596293449">
        <ele>1540.6500000000001</ele>
        <time>2012-06-17T13:46:32Z</time>
      </trkpt>
      <trkpt lat="46.20639500208199" lon="10.851812660694122">
        <ele>1540.1700000000001</ele>
        <time>2012-06-17T13:46:50Z</time>
      </trkpt>
      <trkpt lat="46.206501368433237" lon="10.851713754236698">
        <ele>1538.73</ele>
        <time>2012-06-17T13:47:08Z</time>
      </trkpt>
      <trkpt lat="46.206514863297343" lon="10.851558018475771">
        <ele>1537.77</ele>
        <time>2012-06-17T13:47:23Z</time>
      </trkpt>
      <trkpt lat="46.206483598798513" lon="10.851515354588628">
        <ele>1538.73</ele>
        <time>2012-06-17T13:47:37Z</time>
      </trkpt>
      <trkpt lat="46.206478737294674" lon="10.851495573297143">
        <ele>1538.25</ele>
        <time>2012-06-17T13:47:58Z</time>
      </trkpt>
      <trkpt lat="46.206511678174138" lon="10.85140211507678">
        <ele>1537.77</ele>
        <time>2012-06-17T13:48:24Z</time>
      </trkpt>
      <trkpt lat="46.206433307379484" lon="10.851512085646391">
        <ele>1537.77</ele>
        <time>2012-06-17T13:48:42Z</time>
      </trkpt>
      <trkpt lat="46.206398354843259" lon="10.851533794775605">
        <ele>1537.77</ele>
        <time>2012-06-17T13:48:53Z</time>
      </trkpt>
      <trkpt lat="46.206451579928398" lon="10.85148710757494">
        <ele>1536.8</ele>
        <time>2012-06-17T13:49:08Z</time>
      </trkpt>
      <trkpt lat="46.206414280459285" lon="10.851475959643722">
        <ele>1537.29</ele>
        <time>2012-06-17T13:49:30Z</time>
      </trkpt>
      <trkpt lat="46.206414783373475" lon="10.851464308798313">
        <ele>1536.8</ele>
        <time>2012-06-17T13:49:49Z</time>
      </trkpt>
      <trkpt lat="46.206427272409201" lon="10.85143681615591">
        <ele>1537.29</ele>
        <time>2012-06-17T13:50:20Z</time>
      </trkpt>
      <trkpt lat="46.206440851092339" lon="10.851404881104827">
        <ele>1536.8</ele>
        <time>2012-06-17T13:50:50Z</time>
      </trkpt>
      <trkpt lat="46.206406904384494" lon="10.85145047865808">
        <ele>1536.8</ele>
        <time>2012-06-17T13:51:22Z</time>
      </trkpt>
      <trkpt lat="46.206338927149773" lon="10.851396499201655">
        <ele>1536.8</ele>
        <time>2012-06-17T13:51:49Z</time>
      </trkpt>
      <trkpt lat="46.206356445327401" lon="10.851381830871105">
        <ele>1536.3199999999999</ele>
        <time>2012-06-17T13:52:14Z</time>
      </trkpt>
      <trkpt lat="46.206508744508028" lon="10.851535806432366">
        <ele>1536.3199999999999</ele>
        <time>2012-06-17T13:52:37Z</time>
      </trkpt>
      <trkpt lat="46.206476222723722" lon="10.851475456729531">
        <ele>1536.3199999999999</ele>
        <time>2012-06-17T13:53:11Z</time>
      </trkpt>
      <trkpt lat="46.206418052315712" lon="10.85144804790616">
        <ele>1536.8</ele>
        <time>2012-06-17T13:53:40Z</time>
      </trkpt>
      <trkpt lat="46.206417549401522" lon="10.851433966308832">
        <ele>1536.3199999999999</ele>
        <time>2012-06-17T13:54:13Z</time>
      </trkpt>
      <trkpt lat="46.206389302387834" lon="10.85143530741334">
        <ele>1536.3199999999999</ele>
        <time>2012-06-17T13:54:37Z</time>
      </trkpt>
      <trkpt lat="46.206354685127735" lon="10.851374035701156">
        <ele>1536.8</ele>
        <time>2012-06-17T13:55:05Z</time>
      </trkpt>
      <trkpt lat="46.206338759511709" lon="10.85141234099865">
        <ele>1536.8</ele>
        <time>2012-06-17T13:55:24Z</time>
      </trkpt>
      <trkpt lat="46.206337083131075" lon="10.851416029036045">
        <ele>1536.3199999999999</ele>
        <time>2012-06-17T13:55:45Z</time>
      </trkpt>
      <trkpt lat="46.206344543024898" lon="10.85138937458396">
        <ele>1536.3199999999999</ele>
        <time>2012-06-17T13:56:07Z</time>
      </trkpt>
      <trkpt lat="46.206359630450606" lon="10.851404881104827">
        <ele>1536.3199999999999</ele>
        <time>2012-06-17T13:56:37Z</time>
      </trkpt>
      <trkpt lat="46.206400031223893" lon="10.851419633254409">
        <ele>1536.8</ele>
        <time>2012-06-17T13:57:05Z</time>
      </trkpt>
      <trkpt lat="46.20641796849668" lon="10.851406557485461">
        <ele>1537.29</ele>
        <time>2012-06-17T13:57:25Z</time>
      </trkpt>
      <trkpt lat="46.206412939354777" lon="10.851405886933208">
        <ele>1536.8</ele>
        <time>2012-06-17T13:57:52Z</time>
      </trkpt>
      <trkpt lat="46.2064497359097" lon="10.851500853896141">
        <ele>1536.8</ele>
        <time>2012-06-17T13:58:18Z</time>
      </trkpt>
      <trkpt lat="46.206435905769467" lon="10.851488448679447">
        <ele>1536.3199999999999</ele>
        <time>2012-06-17T13:58:47Z</time>
      </trkpt>
      <trkpt lat="46.206480665132403" lon="10.851486604660749">
        <ele>1535.8399999999999</ele>
        <time>2012-06-17T13:59:08Z</time>
      </trkpt>
      <trkpt lat="46.206412017345428" lon="10.851458525285125">
        <ele>1536.3199999999999</ele>
        <time>2012-06-17T13:59:33Z</time>
      </trkpt>
      <trkpt lat="46.206409083679318" lon="10.851451819762588">
        <ele>1535.3599999999999</ele>
        <time>2012-06-17T14:00:05Z</time>
      </trkpt>
      <trkpt lat="46.206410005688667" lon="10.851465985178947">
        <ele>1535.8399999999999</ele>
        <time>2012-06-17T14:00:35Z</time>
      </trkpt>
      <trkpt lat="46.206454848870635" lon="10.851473612710834">
        <ele>1535.3599999999999</ele>
        <time>2012-06-17T14:00:59Z</time>
      </trkpt>
      <trkpt lat="46.206475803628564" lon="10.851554833352566">
        <ele>1535.3599999999999</ele>
        <time>2012-06-17T14:01:19Z</time>
      </trkpt>
      <trkpt lat="46.20650589466095" lon="10.851561538875103">
        <ele>1536.3199999999999</ele>
        <time>2012-06-17T14:01:44Z</time>
      </trkpt>
      <trkpt lat="46.206466667354107" lon="10.85147931240499">
        <ele>1536.3199999999999</ele>
        <time>2012-06-17T14:02:02Z</time>
      </trkpt>
      <trkpt lat="46.206500278785825" lon="10.85156237706542">
        <ele>1535.8399999999999</ele>
        <time>2012-06-17T14:02:19Z</time>
      </trkpt>
      <trkpt lat="46.206474797800183" lon="10.851562293246388">
        <ele>1535.8399999999999</ele>
        <time>2012-06-17T14:02:33Z</time>
      </trkpt>
      <trkpt lat="46.206505224108696" lon="10.851614009588957">
        <ele>1536.3199999999999</ele>
        <time>2012-06-17T14:02:48Z</time>
      </trkpt>
      <trkpt lat="46.206539254635572" lon="10.851558856666088">
        <ele>1535.8399999999999</ele>
        <time>2012-06-17T14:02:53Z</time>
      </trkpt>
      <trkpt lat="46.206619804725051" lon="10.851557767018676">
        <ele>1534.8800000000001</ele>
        <time>2012-06-17T14:03:01Z</time>
      </trkpt>
      <trkpt lat="46.206755759194493" lon="10.85151694715023">
        <ele>1532.96</ele>
        <time>2012-06-17T14:03:18Z</time>
      </trkpt>
      <trkpt lat="46.206772523000836" lon="10.85153304040432">
        <ele>1533.4400000000001</ele>
        <time>2012-06-17T14:03:41Z</time>
      </trkpt>
      <trkpt lat="46.206746120005846" lon="10.85157411172986">
        <ele>1532.96</ele>
        <time>2012-06-17T14:03:56Z</time>
      </trkpt>
      <trkpt lat="46.206723656505346" lon="10.85157117806375">
        <ele>1532.96</ele>
        <time>2012-06-17T14:04:11Z</time>
      </trkpt>
      <trkpt lat="46.20671309530735" lon="10.851653823629022">
        <ele>1533.4400000000001</ele>
        <time>2012-06-17T14:04:23Z</time>
      </trkpt>
      <trkpt lat="46.20663782581687" lon="10.851671425625682">
        <ele>1533.9200000000001</ele>
        <time>2012-06-17T14:04:38Z</time>
      </trkpt>
      <trkpt lat="46.206655595451593" lon="10.851750802248716">
        <ele>1535.8399999999999</ele>
        <time>2012-06-17T14:04:53Z</time>
      </trkpt>
      <trkpt lat="46.206706054508686" lon="10.851770834997296">
        <ele>1535.8399999999999</ele>
        <time>2012-06-17T14:05:00Z</time>
      </trkpt>
      <trkpt lat="46.206831950694323" lon="10.851875357329845">
        <ele>1535.8399999999999</ele>
        <time>2012-06-17T14:05:17Z</time>
      </trkpt>
      <trkpt lat="46.206894144415855" lon="10.851839315146208">
        <ele>1535.8399999999999</ele>
        <time>2012-06-17T14:05:31Z</time>
      </trkpt>
      <trkpt lat="46.20691929012537" lon="10.851783324033022">
        <ele>1535.8399999999999</ele>
        <time>2012-06-17T14:05:40Z</time>
      </trkpt>
      <trkpt lat="46.206954745575786" lon="10.851677879691124">
        <ele>1536.8</ele>
        <time>2012-06-17T14:05:54Z</time>
      </trkpt>
      <trkpt lat="46.206989865750074" lon="10.851583750918508">
        <ele>1537.77</ele>
        <time>2012-06-17T14:06:08Z</time>
      </trkpt>
      <trkpt lat="46.207017945125699" lon="10.851582996547222">
        <ele>1538.25</ele>
        <time>2012-06-17T14:06:11Z</time>
      </trkpt>
      <trkpt lat="46.20713772252202" lon="10.851554498076439">
        <ele>1538.25</ele>
        <time>2012-06-17T14:06:22Z</time>
      </trkpt>
      <trkpt lat="46.207271665334702" lon="10.851480737328529">
        <ele>1539.21</ele>
        <time>2012-06-17T14:06:36Z</time>
      </trkpt>
      <trkpt lat="46.207318184897304" lon="10.851350063458085">
        <ele>1539.6900000000001</ele>
        <time>2012-06-17T14:06:52Z</time>
      </trkpt>
      <trkpt lat="46.207440309226513" lon="10.851270435377955">
        <ele>1541.6099999999999</ele>
        <time>2012-06-17T14:07:09Z</time>
      </trkpt>
      <trkpt lat="46.207493115216494" lon="10.851174546405673">
        <ele>1543.53</ele>
        <time>2012-06-17T14:07:22Z</time>
      </trkpt>
      <trkpt lat="46.207558661699295" lon="10.851058876141906">
        <ele>1545.46</ele>
        <time>2012-06-17T14:07:37Z</time>
      </trkpt>
      <trkpt lat="46.207615658640862" lon="10.850972877815366">
        <ele>1544.98</ele>
        <time>2012-06-17T14:07:49Z</time>
      </trkpt>
      <trkpt lat="46.20774750597775" lon="10.850868942216039">
        <ele>1545.46</ele>
        <time>2012-06-17T14:08:01Z</time>
      </trkpt>
      <trkpt lat="46.207862002775073" lon="10.85078545846045">
        <ele>1548.3399999999999</ele>
        <time>2012-06-17T14:08:15Z</time>
      </trkpt>
      <trkpt lat="46.207953114062548" lon="10.850654868409038">
        <ele>1548.3399999999999</ele>
        <time>2012-06-17T14:08:29Z</time>
      </trkpt>
      <trkpt lat="46.208020504564047" lon="10.85050692781806">
        <ele>1549.3</ele>
        <time>2012-06-17T14:08:44Z</time>
      </trkpt>
      <trkpt lat="46.208088314160705" lon="10.850426545366645">
        <ele>1550.26</ele>
        <time>2012-06-17T14:08:59Z</time>
      </trkpt>
      <trkpt lat="46.20818386785686" lon="10.850348509848118">
        <ele>1552.6700000000001</ele>
        <time>2012-06-17T14:09:12Z</time>
      </trkpt>
      <trkpt lat="46.208288138732314" lon="10.850273743271828">
        <ele>1554.1099999999999</ele>
        <time>2012-06-17T14:09:26Z</time>
      </trkpt>
      <trkpt lat="46.208306159824133" lon="10.850238539278507">
        <ele>1554.5899999999999</ele>
        <time>2012-06-17T14:09:30Z</time>
      </trkpt>
      <trkpt lat="46.208399198949337" lon="10.850095544010401">
        <ele>1554.1099999999999</ele>
        <time>2012-06-17T14:09:44Z</time>
      </trkpt>
      <trkpt lat="46.208460135385394" lon="10.849936371669173">
        <ele>1556.03</ele>
        <time>2012-06-17T14:09:59Z</time>
      </trkpt>
      <trkpt lat="46.208570776507258" lon="10.849759178236127">
        <ele>1556.03</ele>
        <time>2012-06-17T14:10:14Z</time>
      </trkpt>
      <trkpt lat="46.208689464256167" lon="10.849586678668857">
        <ele>1556.03</ele>
        <time>2012-06-17T14:10:31Z</time>
      </trkpt>
      <trkpt lat="46.208770265802741" lon="10.849427338689566">
        <ele>1556.03</ele>
        <time>2012-06-17T14:10:47Z</time>
      </trkpt>
      <trkpt lat="46.208773870021105" lon="10.849417028948665">
        <ele>1558.9200000000001</ele>
        <time>2012-06-17T14:10:48Z</time>
      </trkpt>
      <trkpt lat="46.208775546401739" lon="10.849403534084558">
        <ele>1556.03</ele>
        <time>2012-06-17T14:10:49Z</time>
      </trkpt>
      <trkpt lat="46.208788035437465" lon="10.849280236288905">
        <ele>1554.5899999999999</ele>
        <time>2012-06-17T14:11:02Z</time>
      </trkpt>
      <trkpt lat="46.208847044035792" lon="10.849140174686909">
        <ele>1553.6300000000001</ele>
        <time>2012-06-17T14:11:17Z</time>
      </trkpt>
      <trkpt lat="46.2088777218014" lon="10.848995503038168">
        <ele>1554.5899999999999</ele>
        <time>2012-06-17T14:11:30Z</time>
      </trkpt>
      <trkpt lat="46.208955254405737" lon="10.848860805854201">
        <ele>1554.5899999999999</ele>
        <time>2012-06-17T14:11:48Z</time>
      </trkpt>
      <trkpt lat="46.209021471440792" lon="10.848767096176744">
        <ele>1554.1099999999999</ele>
        <time>2012-06-17T14:12:01Z</time>
      </trkpt>
      <trkpt lat="46.209045527502894" lon="10.848696855828166">
        <ele>1553.6300000000001</ele>
        <time>2012-06-17T14:12:09Z</time>
      </trkpt>
      <trkpt lat="46.209066398441792" lon="10.848545059561729">
        <ele>1554.5899999999999</ele>
        <time>2012-06-17T14:12:23Z</time>
      </trkpt>
      <trkpt lat="46.209051143378019" lon="10.848454115912318">
        <ele>1554.1099999999999</ele>
        <time>2012-06-17T14:12:36Z</time>
      </trkpt>
      <trkpt lat="46.209077378734946" lon="10.84822160191834">
        <ele>1553.6300000000001</ele>
        <time>2012-06-17T14:12:54Z</time>
      </trkpt>
      <trkpt lat="46.209129681810737" lon="10.848029237240553">
        <ele>1554.1099999999999</ele>
        <time>2012-06-17T14:13:09Z</time>
      </trkpt>
      <trkpt lat="46.209207717329264" lon="10.847830669954419">
        <ele>1553.6300000000001</ele>
        <time>2012-06-17T14:13:24Z</time>
      </trkpt>
      <trkpt lat="46.209326488897204" lon="10.8476572483778">
        <ele>1554.1099999999999</ele>
        <time>2012-06-17T14:13:38Z</time>
      </trkpt>
      <trkpt lat="46.209413912147284" lon="10.84751701913774">
        <ele>1555.0699999999999</ele>
        <time>2012-06-17T14:13:52Z</time>
      </trkpt>
      <trkpt lat="46.209408715367317" lon="10.847450383007526">
        <ele>1555.0699999999999</ele>
        <time>2012-06-17T14:13:56Z</time>
      </trkpt>
      <trkpt lat="46.209395471960306" lon="10.847241254523396">
        <ele>1555.55</ele>
        <time>2012-06-17T14:14:14Z</time>
      </trkpt>
      <trkpt lat="46.209453726187348" lon="10.847023492679">
        <ele>1556.03</ele>
        <time>2012-06-17T14:14:26Z</time>
      </trkpt>
      <trkpt lat="46.209492199122906" lon="10.846946379169822">
        <ele>1556.99</ele>
        <time>2012-06-17T14:14:32Z</time>
      </trkpt>
      <trkpt lat="46.209609713405371" lon="10.846790056675673">
        <ele>1556.51</ele>
        <time>2012-06-17T14:14:46Z</time>
      </trkpt>
      <trkpt lat="46.209685234352946" lon="10.84665753878653">
        <ele>1557.47</ele>
        <time>2012-06-17T14:15:00Z</time>
      </trkpt>
      <trkpt lat="46.209785481914878" lon="10.846572881564498">
        <ele>1560.3599999999999</ele>
        <time>2012-06-17T14:15:15Z</time>
      </trkpt>
      <trkpt lat="46.209818590432405" lon="10.84652703255415">
        <ele>1560.3599999999999</ele>
        <time>2012-06-17T14:15:21Z</time>
      </trkpt>
      <trkpt lat="46.209858739748597" lon="10.84636777639389">
        <ele>1562.76</ele>
        <time>2012-06-17T14:15:37Z</time>
      </trkpt>
      <trkpt lat="46.20992043055594" lon="10.846258560195565">
        <ele>1564.2</ele>
        <time>2012-06-17T14:15:51Z</time>
      </trkpt>
      <trkpt lat="46.20993266813457" lon="10.846049096435308">
        <ele>1566.6099999999999</ele>
        <time>2012-06-17T14:16:06Z</time>
      </trkpt>
      <trkpt lat="46.209932249039412" lon="10.845919512212276">
        <ele>1569.49</ele>
        <time>2012-06-17T14:16:22Z</time>
      </trkpt>
      <trkpt lat="46.209950605407357" lon="10.845772828906775">
        <ele>1570.45</ele>
        <time>2012-06-17T14:16:35Z</time>
      </trkpt>
      <trkpt lat="46.21007239446044" lon="10.845657829195261">
        <ele>1571.8900000000001</ele>
        <time>2012-06-17T14:16:49Z</time>
      </trkpt>
      <trkpt lat="46.210141461342573" lon="10.845640059560537">
        <ele>1572.8499999999999</ele>
        <time>2012-06-17T14:16:57Z</time>
      </trkpt>
      <trkpt lat="46.210262328386307" lon="10.845590690150857">
        <ele>1574.78</ele>
        <time>2012-06-17T14:17:09Z</time>
      </trkpt>
      <trkpt lat="46.210308093577623" lon="10.845534447580576">
        <ele>1576.22</ele>
        <time>2012-06-17T14:17:22Z</time>
      </trkpt>
      <trkpt lat="46.210374478250742" lon="10.845425985753536">
        <ele>1578.1400000000001</ele>
        <time>2012-06-17T14:17:37Z</time>
      </trkpt>
      <trkpt lat="46.210393086075783" lon="10.845312746241689">
        <ele>1579.0999999999999</ele>
        <time>2012-06-17T14:17:49Z</time>
      </trkpt>
      <trkpt lat="46.210358133539557" lon="10.845083249732852">
        <ele>1581.03</ele>
        <time>2012-06-17T14:18:06Z</time>
      </trkpt>
      <trkpt lat="46.210457878187299" lon="10.8448994345963">
        <ele>1582.95</ele>
        <time>2012-06-17T14:18:21Z</time>
      </trkpt>
      <trkpt lat="46.210501044988632" lon="10.844819471240044">
        <ele>1582.95</ele>
        <time>2012-06-17T14:18:29Z</time>
      </trkpt>
      <trkpt lat="46.210548654198647" lon="10.844746632501483">
        <ele>1584.3900000000001</ele>
        <time>2012-06-17T14:18:36Z</time>
      </trkpt>
      <trkpt lat="46.210664073005319" lon="10.844654850661755">
        <ele>1584.3900000000001</ele>
        <time>2012-06-17T14:18:51Z</time>
      </trkpt>
      <trkpt lat="46.210702294483781" lon="10.844643535092473">
        <ele>1585.8299999999999</ele>
        <time>2012-06-17T14:18:56Z</time>
      </trkpt>
      <trkpt lat="46.210749316960573" lon="10.844465922564268">
        <ele>1587.27</ele>
        <time>2012-06-17T14:19:13Z</time>
      </trkpt>
      <trkpt lat="46.210784688591957" lon="10.844372129067779">
        <ele>1590.1600000000001</ele>
        <time>2012-06-17T14:19:30Z</time>
      </trkpt>
      <trkpt lat="46.210802877321839" lon="10.844229217618704">
        <ele>1592.0799999999999</ele>
        <time>2012-06-17T14:19:46Z</time>
      </trkpt>
      <trkpt lat="46.210808577015996" lon="10.844174567610025">
        <ele>1592.0799999999999</ele>
        <time>2012-06-17T14:20:00Z</time>
      </trkpt>
      <trkpt lat="46.210838668048382" lon="10.844154786318541">
        <ele>1592.0799999999999</ele>
        <time>2012-06-17T14:20:20Z</time>
      </trkpt>
      <trkpt lat="46.210891725495458" lon="10.843983208760619">
        <ele>1594.48</ele>
        <time>2012-06-17T14:20:36Z</time>
      </trkpt>
      <trkpt lat="46.210923157632351" lon="10.843812972307205">
        <ele>1596.8900000000001</ele>
        <time>2012-06-17T14:20:52Z</time>
      </trkpt>
      <trkpt lat="46.210975041612983" lon="10.843678526580334">
        <ele>1599.29</ele>
        <time>2012-06-17T14:21:07Z</time>
      </trkpt>
      <trkpt lat="46.211050814017653" lon="10.843519102782011">
        <ele>1600.25</ele>
        <time>2012-06-17T14:21:26Z</time>
      </trkpt>
      <trkpt lat="46.211086018010974" lon="10.843426482751966">
        <ele>1603.1400000000001</ele>
        <time>2012-06-17T14:21:43Z</time>
      </trkpt>
      <trkpt lat="46.211050394922495" lon="10.843283487483859">
        <ele>1603.1400000000001</ele>
        <time>2012-06-17T14:21:59Z</time>
      </trkpt>
      <trkpt lat="46.211068918928504" lon="10.843056086450815">
        <ele>1602.6600000000001</ele>
        <time>2012-06-17T14:22:13Z</time>
      </trkpt>
      <trkpt lat="46.211070930585265" lon="10.842944188043475">
        <ele>1601.6900000000001</ele>
        <time>2012-06-17T14:22:19Z</time>
      </trkpt>
      <trkpt lat="46.211069002747536" lon="10.842932621017098">
        <ele>1601.6900000000001</ele>
        <time>2012-06-17T14:22:20Z</time>
      </trkpt>
      <trkpt lat="46.210978645831347" lon="10.842680996283889">
        <ele>1600.25</ele>
        <time>2012-06-17T14:22:38Z</time>
      </trkpt>
      <trkpt lat="46.210978562012315" lon="10.842530457302928">
        <ele>1599.77</ele>
        <time>2012-06-17T14:22:47Z</time>
      </trkpt>
      <trkpt lat="46.210933551192284" lon="10.842221165075898">
        <ele>1598.3299999999999</ele>
        <time>2012-06-17T14:23:06Z</time>
      </trkpt>
      <trkpt lat="46.210970766842365" lon="10.842007845640182">
        <ele>1595.9300000000001</ele>
        <time>2012-06-17T14:23:22Z</time>
      </trkpt>
      <trkpt lat="46.210936568677425" lon="10.841686986386776">
        <ele>1594.48</ele>
        <time>2012-06-17T14:23:42Z</time>
      </trkpt>
      <trkpt lat="46.210924834012985" lon="10.841550529003143">
        <ele>1594</ele>
        <time>2012-06-17T14:23:56Z</time>
      </trkpt>
      <trkpt lat="46.210901280865073" lon="10.841445168480277">
        <ele>1593.52</ele>
        <time>2012-06-17T14:24:12Z</time>
      </trkpt>
      <trkpt lat="46.210921816527843" lon="10.841354057192802">
        <ele>1593.52</ele>
        <time>2012-06-17T14:24:38Z</time>
      </trkpt>
      <trkpt lat="46.210952326655388" lon="10.841098157688975">
        <ele>1593.52</ele>
        <time>2012-06-17T14:24:59Z</time>
      </trkpt>
      <trkpt lat="46.210969174280763" lon="10.840859273448586">
        <ele>1592.0799999999999</ele>
        <time>2012-06-17T14:25:17Z</time>
      </trkpt>
      <trkpt lat="46.21092114597559" lon="10.840529780834913">
        <ele>1589.6800000000001</ele>
        <time>2012-06-17T14:25:41Z</time>
      </trkpt>
      <trkpt lat="46.210849480703473" lon="10.840280670672655">
        <ele>1587.75</ele>
        <time>2012-06-17T14:25:59Z</time>
      </trkpt>
      <trkpt lat="46.210758369415998" lon="10.840022340416908">
        <ele>1586.79</ele>
        <time>2012-06-17T14:26:20Z</time>
      </trkpt>
      <trkpt lat="46.210701372474432" lon="10.83971212618053">
        <ele>1584.8699999999999</ele>
        <time>2012-06-17T14:26:42Z</time>
      </trkpt>
      <trkpt lat="46.210672790184617" lon="10.839582290500402">
        <ele>1584.3900000000001</ele>
        <time>2012-06-17T14:27:01Z</time>
      </trkpt>
      <trkpt lat="46.210607746616006" lon="10.839361259713769">
        <ele>1582.95</ele>
        <time>2012-06-17T14:27:21Z</time>
      </trkpt>
      <trkpt lat="46.21058058924973" lon="10.839150287210941">
        <ele>1581.99</ele>
        <time>2012-06-17T14:27:39Z</time>
      </trkpt>
      <trkpt lat="46.210605902597308" lon="10.838879551738501">
        <ele>1581.51</ele>
        <time>2012-06-17T14:27:59Z</time>
      </trkpt>
      <trkpt lat="46.210556784644723" lon="10.838622394949198">
        <ele>1580.54</ele>
        <time>2012-06-17T14:28:20Z</time>
      </trkpt>
      <trkpt lat="46.21055225841701" lon="10.838597416877747">
        <ele>1580.54</ele>
        <time>2012-06-17T14:28:22Z</time>
      </trkpt>
      <trkpt lat="46.210533063858747" lon="10.838574031367898">
        <ele>1580.54</ele>
        <time>2012-06-17T14:28:26Z</time>
      </trkpt>
      <trkpt lat="46.210443126037717" lon="10.838463474065065">
        <ele>1580.0599999999999</ele>
        <time>2012-06-17T14:28:40Z</time>
      </trkpt>
      <trkpt lat="46.210373640060425" lon="10.838230373337865">
        <ele>1580.54</ele>
        <time>2012-06-17T14:28:57Z</time>
      </trkpt>
      <trkpt lat="46.210350003093481" lon="10.838075894862413">
        <ele>1581.03</ele>
        <time>2012-06-17T14:29:09Z</time>
      </trkpt>
      <trkpt lat="46.210354277864099" lon="10.837905490770936">
        <ele>1579.5799999999999</ele>
        <time>2012-06-17T14:29:24Z</time>
      </trkpt>
      <trkpt lat="46.210285127162933" lon="10.837765512987971">
        <ele>1579.5799999999999</ele>
        <time>2012-06-17T14:29:37Z</time>
      </trkpt>
      <trkpt lat="46.210236009210348" lon="10.837581865489483">
        <ele>1579.0999999999999</ele>
        <time>2012-06-17T14:29:53Z</time>
      </trkpt>
      <trkpt lat="46.210174653679132" lon="10.837375754490495">
        <ele>1578.1400000000001</ele>
        <time>2012-06-17T14:30:09Z</time>
      </trkpt>
      <trkpt lat="46.210171300917864" lon="10.837141899392009">
        <ele>1577.6600000000001</ele>
        <time>2012-06-17T14:30:25Z</time>
      </trkpt>
      <trkpt lat="46.210202565416694" lon="10.83695825189352">
        <ele>1577.6600000000001</ele>
        <time>2012-06-17T14:30:39Z</time>
      </trkpt>
      <trkpt lat="46.210170546546578" lon="10.836703442037106">
        <ele>1574.78</ele>
        <time>2012-06-17T14:30:58Z</time>
      </trkpt>
      <trkpt lat="46.21010365895927" lon="10.836625406518579">
        <ele>1574.3</ele>
        <time>2012-06-17T14:31:11Z</time>
      </trkpt>
      <trkpt lat="46.210050685331225" lon="10.83644955419004">
        <ele>1572.8499999999999</ele>
        <time>2012-06-17T14:31:26Z</time>
      </trkpt>
      <trkpt lat="46.210033083334565" lon="10.836231959983706">
        <ele>1572.3699999999999</ele>
        <time>2012-06-17T14:31:40Z</time>
      </trkpt>
      <trkpt lat="46.210039705038071" lon="10.836174627766013">
        <ele>1571.8900000000001</ele>
        <time>2012-06-17T14:31:44Z</time>
      </trkpt>
      <trkpt lat="46.210043393075466" lon="10.83597656339407">
        <ele>1571.4100000000001</ele>
        <time>2012-06-17T14:31:59Z</time>
      </trkpt>
      <trkpt lat="46.210028640925884" lon="10.835762741044164">
        <ele>1571.8900000000001</ele>
        <time>2012-06-17T14:32:16Z</time>
      </trkpt>
      <trkpt lat="46.210081363096833" lon="10.835644388571382">
        <ele>1571.8900000000001</ele>
        <time>2012-06-17T14:32:28Z</time>
      </trkpt>
      <trkpt lat="46.210048925131559" lon="10.835491167381406">
        <ele>1571.4100000000001</ele>
        <time>2012-06-17T14:32:43Z</time>
      </trkpt>
      <trkpt lat="46.210017995908856" lon="10.835244655609131">
        <ele>1570.9300000000001</ele>
        <time>2012-06-17T14:33:00Z</time>
      </trkpt>
      <trkpt lat="46.210006177425385" lon="10.835040137171745">
        <ele>1569.49</ele>
        <time>2012-06-17T14:33:16Z</time>
      </trkpt>
      <trkpt lat="46.210000058636069" lon="10.834858082234859">
        <ele>1568.53</ele>
        <time>2012-06-17T14:33:31Z</time>
      </trkpt>
      <trkpt lat="46.209967872127891" lon="10.834661526605487">
        <ele>1569.97</ele>
        <time>2012-06-17T14:33:47Z</time>
      </trkpt>
      <trkpt lat="46.209985977038741" lon="10.834422139450908">
        <ele>1569.49</ele>
        <time>2012-06-17T14:34:04Z</time>
      </trkpt>
      <trkpt lat="46.210044650360942" lon="10.834209993481636">
        <ele>1567.5699999999999</ele>
        <time>2012-06-17T14:34:21Z</time>
      </trkpt>
      <trkpt lat="46.210120590403676" lon="10.833894331008196">
        <ele>1566.6099999999999</ele>
        <time>2012-06-17T14:34:49Z</time>
      </trkpt>
      <trkpt lat="46.210072729736567" lon="10.833597527816892">
        <ele>1566.1199999999999</ele>
        <time>2012-06-17T14:35:06Z</time>
      </trkpt>
      <trkpt lat="46.210069209337234" lon="10.833457969129086">
        <ele>1565.1600000000001</ele>
        <time>2012-06-17T14:35:21Z</time>
      </trkpt>
      <trkpt lat="46.210068287327886" lon="10.833287816494703">
        <ele>1567.0899999999999</ele>
        <time>2012-06-17T14:35:36Z</time>
      </trkpt>
      <trkpt lat="46.210060408338904" lon="10.833049518987536">
        <ele>1567.0899999999999</ele>
        <time>2012-06-17T14:35:52Z</time>
      </trkpt>
      <trkpt lat="46.210102653130889" lon="10.832851370796561">
        <ele>1567.0899999999999</ele>
        <time>2012-06-17T14:36:06Z</time>
      </trkpt>
      <trkpt lat="46.210157051682472" lon="10.832676272839308">
        <ele>1566.6099999999999</ele>
        <time>2012-06-17T14:36:20Z</time>
      </trkpt>
      <trkpt lat="46.210194351151586" lon="10.83250486291945">
        <ele>1565.6400000000001</ele>
        <time>2012-06-17T14:36:34Z</time>
      </trkpt>
      <trkpt lat="46.210297029465437" lon="10.832311743870378">
        <ele>1566.1199999999999</ele>
        <time>2012-06-17T14:36:51Z</time>
      </trkpt>
      <trkpt lat="46.210385290905833" lon="10.832173023372889">
        <ele>1566.1199999999999</ele>
        <time>2012-06-17T14:37:05Z</time>
      </trkpt>
      <trkpt lat="46.210510684177279" lon="10.832038326188922">
        <ele>1566.1199999999999</ele>
        <time>2012-06-17T14:37:21Z</time>
      </trkpt>
      <trkpt lat="46.210566088557243" lon="10.831946460530162">
        <ele>1566.1199999999999</ele>
        <time>2012-06-17T14:37:34Z</time>
      </trkpt>
      <trkpt lat="46.210628533735871" lon="10.831655357033014">
        <ele>1565.1600000000001</ele>
        <time>2012-06-17T14:37:52Z</time>
      </trkpt>
      <trkpt lat="46.210670610889792" lon="10.831548403948545">
        <ele>1565.6400000000001</ele>
        <time>2012-06-17T14:38:06Z</time>
      </trkpt>
      <trkpt lat="46.210809666663408" lon="10.831456203013659">
        <ele>1565.6400000000001</ele>
        <time>2012-06-17T14:38:23Z</time>
      </trkpt>
      <trkpt lat="46.210821568965912" lon="10.831444216892123">
        <ele>1565.1600000000001</ele>
        <time>2012-06-17T14:38:25Z</time>
      </trkpt>
      <trkpt lat="46.210962049663067" lon="10.831383867189288">
        <ele>1562.28</ele>
        <time>2012-06-17T14:38:41Z</time>
      </trkpt>
      <trkpt lat="46.211085515096784" lon="10.831330893561244">
        <ele>1560.8399999999999</ele>
        <time>2012-06-17T14:38:56Z</time>
      </trkpt>
      <trkpt lat="46.211207890883088" lon="10.831200554966927">
        <ele>1560.3599999999999</ele>
        <time>2012-06-17T14:39:11Z</time>
      </trkpt>
      <trkpt lat="46.211265223100781" lon="10.831068037077785">
        <ele>1559.8800000000001</ele>
        <time>2012-06-17T14:39:24Z</time>
      </trkpt>
      <trkpt lat="46.211292967200279" lon="10.831034928560257">
        <ele>1559.4000000000001</ele>
        <time>2012-06-17T14:39:28Z</time>
      </trkpt>
      <trkpt lat="46.211419366300106" lon="10.830921269953251">
        <ele>1558.9200000000001</ele>
        <time>2012-06-17T14:39:44Z</time>
      </trkpt>
      <trkpt lat="46.211544089019299" lon="10.830865949392319">
        <ele>1559.4000000000001</ele>
        <time>2012-06-17T14:39:57Z</time>
      </trkpt>
      <trkpt lat="46.211677193641663" lon="10.830791601911187">
        <ele>1558.9200000000001</ele>
        <time>2012-06-17T14:40:10Z</time>
      </trkpt>
      <trkpt lat="46.211782470345497" lon="10.830728486180305">
        <ele>1558.9200000000001</ele>
        <time>2012-06-17T14:40:24Z</time>
      </trkpt>
      <trkpt lat="46.21192873455584" lon="10.830665286630392">
        <ele>1557.95</ele>
        <time>2012-06-17T14:40:39Z</time>
      </trkpt>
      <trkpt lat="46.212011547759175" lon="10.830599991604686">
        <ele>1559.4000000000001</ele>
        <time>2012-06-17T14:40:51Z</time>
      </trkpt>
      <trkpt lat="46.212128223851323" lon="10.830523129552603">
        <ele>1559.8800000000001</ele>
        <time>2012-06-17T14:41:05Z</time>
      </trkpt>
      <trkpt lat="46.212238613516092" lon="10.830466467887163">
        <ele>1559.8800000000001</ele>
        <time>2012-06-17T14:41:19Z</time>
      </trkpt>
      <trkpt lat="46.212358390912414" lon="10.830381056293845">
        <ele>1559.8800000000001</ele>
        <time>2012-06-17T14:41:34Z</time>
      </trkpt>
      <trkpt lat="46.212436510249972" lon="10.830346271395683">
        <ele>1560.3599999999999</ele>
        <time>2012-06-17T14:41:43Z</time>
      </trkpt>
      <trkpt lat="46.212511109188199" lon="10.830292040482163">
        <ele>1559.8800000000001</ele>
        <time>2012-06-17T14:41:52Z</time>
      </trkpt>
      <trkpt lat="46.212648488581181" lon="10.830278629437089">
        <ele>1560.8399999999999</ele>
        <time>2012-06-17T14:42:06Z</time>
      </trkpt>
      <trkpt lat="46.212772289291024" lon="10.830236468464136">
        <ele>1562.76</ele>
        <time>2012-06-17T14:42:21Z</time>
      </trkpt>
      <trkpt lat="46.212895084172487" lon="10.830200258642435">
        <ele>1562.76</ele>
        <time>2012-06-17T14:42:37Z</time>
      </trkpt>
      <trkpt lat="46.213034139946103" lon="10.830225488170981">
        <ele>1564.2</ele>
        <time>2012-06-17T14:42:51Z</time>
      </trkpt>
      <trkpt lat="46.213141595944762" lon="10.830172095447779">
        <ele>1565.1600000000001</ele>
        <time>2012-06-17T14:43:03Z</time>
      </trkpt>
      <trkpt lat="46.213234132155776" lon="10.83008224144578">
        <ele>1565.6400000000001</ele>
        <time>2012-06-17T14:43:17Z</time>
      </trkpt>
      <trkpt lat="46.213433956727386" lon="10.830005295574665">
        <ele>1566.1199999999999</ele>
        <time>2012-06-17T14:43:34Z</time>
      </trkpt>
      <trkpt lat="46.21356513351202" lon="10.829957770183682">
        <ele>1566.1199999999999</ele>
        <time>2012-06-17T14:43:48Z</time>
      </trkpt>
      <trkpt lat="46.213655238971114" lon="10.829887613654137">
        <ele>1566.1199999999999</ele>
        <time>2012-06-17T14:44:00Z</time>
      </trkpt>
      <trkpt lat="46.213785158470273" lon="10.829845536500216">
        <ele>1566.1199999999999</ele>
        <time>2012-06-17T14:44:13Z</time>
      </trkpt>
      <trkpt lat="46.213869983330369" lon="10.829816199839115">
        <ele>1566.6099999999999</ele>
        <time>2012-06-17T14:44:24Z</time>
      </trkpt>
      <trkpt lat="46.213991185650229" lon="10.829696925356984">
        <ele>1566.1199999999999</ele>
        <time>2012-06-17T14:44:37Z</time>
      </trkpt>
      <trkpt lat="46.214107358828187" lon="10.829624757170677">
        <ele>1567.0899999999999</ele>
        <time>2012-06-17T14:44:52Z</time>
      </trkpt>
      <trkpt lat="46.214222526177764" lon="10.829538591206074">
        <ele>1567.5699999999999</ele>
        <time>2012-06-17T14:45:04Z</time>
      </trkpt>
      <trkpt lat="46.21432394720614" lon="10.829483857378364">
        <ele>1568.53</ele>
        <time>2012-06-17T14:45:17Z</time>
      </trkpt>
      <trkpt lat="46.214373903349042" lon="10.829464746639132">
        <ele>1569.01</ele>
        <time>2012-06-17T14:45:23Z</time>
      </trkpt>
      <trkpt lat="46.214492255821824" lon="10.829444378614426">
        <ele>1568.05</ele>
        <time>2012-06-17T14:45:37Z</time>
      </trkpt>
      <trkpt lat="46.214607758447528" lon="10.82944312132895">
        <ele>1567.5699999999999</ele>
        <time>2012-06-17T14:45:51Z</time>
      </trkpt>
      <trkpt lat="46.214724434539676" lon="10.829416634514928">
        <ele>1567.5699999999999</ele>
        <time>2012-06-17T14:46:04Z</time>
      </trkpt>
      <trkpt lat="46.214818898588419" lon="10.829384615644813">
        <ele>1568.05</ele>
        <time>2012-06-17T14:46:16Z</time>
      </trkpt>
      <trkpt lat="46.214936412870884" lon="10.829439768567681">
        <ele>1570.45</ele>
        <time>2012-06-17T14:46:33Z</time>
      </trkpt>
      <trkpt lat="46.215003551915288" lon="10.829535238444805">
        <ele>1569.97</ele>
        <time>2012-06-17T14:46:48Z</time>
      </trkpt>
      <trkpt lat="46.215143026784062" lon="10.829550325870514">
        <ele>1567.5699999999999</ele>
        <time>2012-06-17T14:47:03Z</time>
      </trkpt>
      <trkpt lat="46.215286273509264" lon="10.829473966732621">
        <ele>1566.1199999999999</ele>
        <time>2012-06-17T14:47:19Z</time>
      </trkpt>
      <trkpt lat="46.215412253513932" lon="10.829460555687547">
        <ele>1564.2</ele>
        <time>2012-06-17T14:47:34Z</time>
      </trkpt>
      <trkpt lat="46.215522643178701" lon="10.829430213198066">
        <ele>1562.76</ele>
        <time>2012-06-17T14:47:48Z</time>
      </trkpt>
      <trkpt lat="46.215708553791046" lon="10.829389560967684">
        <ele>1561.8</ele>
        <time>2012-06-17T14:48:02Z</time>
      </trkpt>
      <trkpt lat="46.215826068073511" lon="10.8293576259166">
        <ele>1561.8</ele>
        <time>2012-06-17T14:48:14Z</time>
      </trkpt>
      <trkpt lat="46.215934865176678" lon="10.82933952100575">
        <ele>1561.3199999999999</ele>
        <time>2012-06-17T14:48:27Z</time>
      </trkpt>
      <trkpt lat="46.216066712513566" lon="10.829337844625115">
        <ele>1560.3599999999999</ele>
        <time>2012-06-17T14:48:42Z</time>
      </trkpt>
      <trkpt lat="46.21618565171957" lon="10.829321416094899">
        <ele>1558.4300000000001</ele>
        <time>2012-06-17T14:48:55Z</time>
      </trkpt>
      <trkpt lat="46.216320767998695" lon="10.829232148826122">
        <ele>1557.47</ele>
        <time>2012-06-17T14:49:09Z</time>
      </trkpt>
      <trkpt lat="46.21638354845345" lon="10.829176912084222">
        <ele>1556.03</ele>
        <time>2012-06-17T14:49:18Z</time>
      </trkpt>
      <trkpt lat="46.216471055522561" lon="10.829121675342321">
        <ele>1554.5899999999999</ele>
        <time>2012-06-17T14:49:30Z</time>
      </trkpt>
      <trkpt lat="46.216597873717546" lon="10.829150509089231">
        <ele>1554.1099999999999</ele>
        <time>2012-06-17T14:49:44Z</time>
      </trkpt>
      <trkpt lat="46.21674464084208" lon="10.829151179641485">
        <ele>1552.1900000000001</ele>
        <time>2012-06-17T14:49:58Z</time>
      </trkpt>
      <trkpt lat="46.216851342469454" lon="10.829175068065524">
        <ele>1549.78</ele>
        <time>2012-06-17T14:50:10Z</time>
      </trkpt>
      <trkpt lat="46.216959217563272" lon="10.829116143286228">
        <ele>1550.74</ele>
        <time>2012-06-17T14:50:18Z</time>
      </trkpt>
      <trkpt lat="46.217099949717522" lon="10.829111114144325">
        <ele>1550.26</ele>
        <time>2012-06-17T14:50:32Z</time>
      </trkpt>
      <trkpt lat="46.217213692143559" lon="10.829112455248833">
        <ele>1549.78</ele>
        <time>2012-06-17T14:50:46Z</time>
      </trkpt>
      <trkpt lat="46.217340594157577" lon="10.829094098880887">
        <ele>1549.78</ele>
        <time>2012-06-17T14:50:59Z</time>
      </trkpt>
      <trkpt lat="46.217422485351563" lon="10.829176325351">
        <ele>1550.26</ele>
        <time>2012-06-17T14:51:21Z</time>
      </trkpt>
      <trkpt lat="46.217501610517502" lon="10.829136511310935">
        <ele>1548.8199999999999</ele>
        <time>2012-06-17T14:51:38Z</time>
      </trkpt>
      <trkpt lat="46.217616526409984" lon="10.829150089994073">
        <ele>1546.9000000000001</ele>
        <time>2012-06-17T14:51:54Z</time>
      </trkpt>
      <trkpt lat="46.217770166695118" lon="10.829137936234474">
        <ele>1545.9400000000001</ele>
        <time>2012-06-17T14:52:09Z</time>
      </trkpt>
      <trkpt lat="46.217887010425329" lon="10.829149587079883">
        <ele>1544.98</ele>
        <time>2012-06-17T14:52:24Z</time>
      </trkpt>
      <trkpt lat="46.217976864427328" lon="10.829143719747663">
        <ele>1544.01</ele>
        <time>2012-06-17T14:52:35Z</time>
      </trkpt>
      <trkpt lat="46.218116674572229" lon="10.829236842691898">
        <ele>1542.5699999999999</ele>
        <time>2012-06-17T14:52:51Z</time>
      </trkpt>
      <trkpt lat="46.2182442471385" lon="10.829270537942648">
        <ele>1540.6500000000001</ele>
        <time>2012-06-17T14:53:06Z</time>
      </trkpt>
      <trkpt lat="46.218357821926475" lon="10.829247990623116">
        <ele>1538.73</ele>
        <time>2012-06-17T14:53:19Z</time>
      </trkpt>
      <trkpt lat="46.218471983447671" lon="10.829205997288227">
        <ele>1536.8</ele>
        <time>2012-06-17T14:53:31Z</time>
      </trkpt>
      <trkpt lat="46.218631910160184" lon="10.829164003953338">
        <ele>1534.8800000000001</ele>
        <time>2012-06-17T14:53:45Z</time>
      </trkpt>
      <trkpt lat="46.218738863244653" lon="10.829112455248833">
        <ele>1532.96</ele>
        <time>2012-06-17T14:53:57Z</time>
      </trkpt>
      <trkpt lat="46.218851348385215" lon="10.829030312597752">
        <ele>1531.52</ele>
        <time>2012-06-17T14:54:12Z</time>
      </trkpt>
      <trkpt lat="46.218948494642973" lon="10.82897063344717">
        <ele>1530.0799999999999</ele>
        <time>2012-06-17T14:54:25Z</time>
      </trkpt>
      <trkpt lat="46.219047149643302" lon="10.82890123128891">
        <ele>1527.1900000000001</ele>
        <time>2012-06-17T14:54:36Z</time>
      </trkpt>
      <trkpt lat="46.219147564843297" lon="10.828833673149347">
        <ele>1525.27</ele>
        <time>2012-06-17T14:54:50Z</time>
      </trkpt>
      <trkpt lat="46.219259547069669" lon="10.828773071989417">
        <ele>1522.8699999999999</ele>
        <time>2012-06-17T14:55:04Z</time>
      </trkpt>
      <trkpt lat="46.219387371093035" lon="10.82875463180244">
        <ele>1520.46</ele>
        <time>2012-06-17T14:55:17Z</time>
      </trkpt>
      <trkpt lat="46.219353340566158" lon="10.828754464164376">
        <ele>1519.02</ele>
        <time>2012-06-17T14:55:31Z</time>
      </trkpt>
      <trkpt lat="46.219336492940784" lon="10.828708866611123">
        <ele>1517.5799999999999</ele>
        <time>2012-06-17T14:55:43Z</time>
      </trkpt>
      <trkpt lat="46.219349401071668" lon="10.828587748110294">
        <ele>1514.6900000000001</ele>
        <time>2012-06-17T14:55:56Z</time>
      </trkpt>
      <trkpt lat="46.219334229826927" lon="10.828516250476241">
        <ele>1512.77</ele>
        <time>2012-06-17T14:56:04Z</time>
      </trkpt>
      <trkpt lat="46.219337163493037" lon="10.828442238271236">
        <ele>1511.3299999999999</ele>
        <time>2012-06-17T14:56:13Z</time>
      </trkpt>
      <trkpt lat="46.219248818233609" lon="10.828435616567731">
        <ele>1508.45</ele>
        <time>2012-06-17T14:56:27Z</time>
      </trkpt>
      <trkpt lat="46.219302462413907" lon="10.828321622684598">
        <ele>1507.48</ele>
        <time>2012-06-17T14:56:35Z</time>
      </trkpt>
      <trkpt lat="46.219346383586526" lon="10.828280970454216">
        <ele>1507</ele>
        <time>2012-06-17T14:56:40Z</time>
      </trkpt>
      <trkpt lat="46.219512429088354" lon="10.828286251053214">
        <ele>1506.52</ele>
        <time>2012-06-17T14:56:54Z</time>
      </trkpt>
      <trkpt lat="46.219570431858301" lon="10.828291783109307">
        <ele>1507.48</ele>
        <time>2012-06-17T14:57:01Z</time>
      </trkpt>
      <trkpt lat="46.219735303893685" lon="10.828354144468904">
        <ele>1507</ele>
        <time>2012-06-17T14:57:16Z</time>
      </trkpt>
      <trkpt lat="46.219847034662962" lon="10.828397227451205">
        <ele>1507.48</ele>
        <time>2012-06-17T14:57:26Z</time>
      </trkpt>
      <trkpt lat="46.219930266961455" lon="10.828430419787765">
        <ele>1507.48</ele>
        <time>2012-06-17T14:57:35Z</time>
      </trkpt>
      <trkpt lat="46.219990951940417" lon="10.828438214957714">
        <ele>1507.48</ele>
        <time>2012-06-17T14:57:40Z</time>
      </trkpt>
      <trkpt lat="46.220011571422219" lon="10.828445926308632">
        <ele>1507</ele>
        <time>2012-06-17T14:57:42Z</time>
      </trkpt>
      <trkpt lat="46.220262860879302" lon="10.828481549397111">
        <ele>1507</ele>
        <time>2012-06-17T14:58:01Z</time>
      </trkpt>
      <trkpt lat="46.220427146181464" lon="10.828447602689266">
        <ele>1505.5599999999999</ele>
        <time>2012-06-17T14:58:14Z</time>
      </trkpt>
      <trkpt lat="46.220564274117351" lon="10.828421199694276">
        <ele>1505.5599999999999</ele>
        <time>2012-06-17T14:58:23Z</time>
      </trkpt>
      <trkpt lat="46.220595873892307" lon="10.828415835276246">
        <ele>1506.04</ele>
        <time>2012-06-17T14:58:24Z</time>
      </trkpt>
      <trkpt lat="46.220628479495645" lon="10.828410470858216">
        <ele>1505.5599999999999</ele>
        <time>2012-06-17T14:58:25Z</time>
      </trkpt>
      <trkpt lat="46.220841379836202" lon="10.828362358734012">
        <ele>1504.5999999999999</ele>
        <time>2012-06-17T14:58:32Z</time>
      </trkpt>
      <trkpt lat="46.220856299623847" lon="10.828372836112976">
        <ele>1504.5999999999999</ele>
        <time>2012-06-17T14:58:33Z</time>
      </trkpt>
      <trkpt lat="46.220880355685949" lon="10.828373255208135">
        <ele>1504.5999999999999</ele>
        <time>2012-06-17T14:58:35Z</time>
      </trkpt>
      <trkpt lat="46.221094597131014" lon="10.828342577442527">
        <ele>1503.1600000000001</ele>
        <time>2012-06-17T14:58:52Z</time>
      </trkpt>
      <trkpt lat="46.221269695088267" lon="10.828334614634514">
        <ele>1502.2</ele>
        <time>2012-06-17T14:59:08Z</time>
      </trkpt>
      <trkpt lat="46.221482427790761" lon="10.828261021524668">
        <ele>1501.24</ele>
        <time>2012-06-17T14:59:30Z</time>
      </trkpt>
      <trkpt lat="46.221612514927983" lon="10.828173933550715">
        <ele>1500.27</ele>
        <time>2012-06-17T14:59:42Z</time>
      </trkpt>
      <trkpt lat="46.221943432465196" lon="10.82804954610765">
        <ele>1500.27</ele>
        <time>2012-06-17T15:00:05Z</time>
      </trkpt>
      <trkpt lat="46.222014343366027" lon="10.828018030151725">
        <ele>1499.79</ele>
        <time>2012-06-17T15:00:12Z</time>
      </trkpt>
      <trkpt lat="46.222144765779376" lon="10.827971259132028">
        <ele>1499.3099999999999</ele>
        <time>2012-06-17T15:00:27Z</time>
      </trkpt>
      <trkpt lat="46.222334699705243" lon="10.827964888885617">
        <ele>1499.3099999999999</ele>
        <time>2012-06-17T15:00:43Z</time>
      </trkpt>
      <trkpt lat="46.222579870373011" lon="10.827974444255233">
        <ele>1498.8299999999999</ele>
        <time>2012-06-17T15:01:01Z</time>
      </trkpt>
      <trkpt lat="46.222793441265821" lon="10.827985508367419">
        <ele>1498.8299999999999</ele>
        <time>2012-06-17T15:01:19Z</time>
      </trkpt>
      <trkpt lat="46.223010951653123" lon="10.827965894713998">
        <ele>1499.3099999999999</ele>
        <time>2012-06-17T15:01:37Z</time>
      </trkpt>
      <trkpt lat="46.223258385434747" lon="10.827956004068255">
        <ele>1499.3099999999999</ele>
        <time>2012-06-17T15:01:58Z</time>
      </trkpt>
      <trkpt lat="46.223482601344585" lon="10.828038398176432">
        <ele>1499.3099999999999</ele>
        <time>2012-06-17T15:02:17Z</time>
      </trkpt>
      <trkpt lat="46.223751408979297" lon="10.828042421489954">
        <ele>1499.79</ele>
        <time>2012-06-17T15:02:38Z</time>
      </trkpt>
      <trkpt lat="46.223984342068434" lon="10.828061699867249">
        <ele>1499.79</ele>
        <time>2012-06-17T15:02:58Z</time>
      </trkpt>
      <trkpt lat="46.224160781130195" lon="10.828076284378767">
        <ele>1500.27</ele>
        <time>2012-06-17T15:03:14Z</time>
      </trkpt>
      <trkpt lat="46.224337639287114" lon="10.827932534739375">
        <ele>1499.79</ele>
        <time>2012-06-17T15:03:32Z</time>
      </trkpt>
      <trkpt lat="46.22449966147542" lon="10.827716700732708">
        <ele>1499.3099999999999</ele>
        <time>2012-06-17T15:03:51Z</time>
      </trkpt>
      <trkpt lat="46.224610134959221" lon="10.827704044058919">
        <ele>1500.27</ele>
        <time>2012-06-17T15:04:08Z</time>
      </trkpt>
      <trkpt lat="46.224613236263394" lon="10.827726675197482">
        <ele>1500.27</ele>
        <time>2012-06-17T15:04:20Z</time>
      </trkpt>
      <trkpt lat="46.224656151607633" lon="10.827664146199822">
        <ele>1500.27</ele>
        <time>2012-06-17T15:04:33Z</time>
      </trkpt>
      <trkpt lat="46.224626144394279" lon="10.827627349644899">
        <ele>1499.79</ele>
        <time>2012-06-17T15:04:37Z</time>
      </trkpt>
      <trkpt lat="46.224504020065069" lon="10.827501369640231">
        <ele>1499.3099999999999</ele>
        <time>2012-06-17T15:04:51Z</time>
      </trkpt>
      <trkpt lat="46.2244678940624" lon="10.827465075999498">
        <ele>1499.3099999999999</ele>
        <time>2012-06-17T15:05:07Z</time>
      </trkpt>
      <trkpt lat="46.224479041993618" lon="10.827459711581469">
        <ele>1497.8699999999999</ele>
        <time>2012-06-17T15:05:18Z</time>
      </trkpt>
      <trkpt lat="46.224496811628342" lon="10.827489551156759">
        <ele>1497.8699999999999</ele>
        <time>2012-06-17T15:05:32Z</time>
      </trkpt>
    </trkseg>
  </trk>

  <trk>
    <name>vallesinella cascate alte tucket</name>
    <extensions>
      <gpxx:TrackExtension>
        <gpxx:DisplayColor>Yellow</gpxx:DisplayColor>
      </gpxx:TrackExtension>
    </extensions>
    <trkseg>
      <trkpt lat="46.206526178866625" lon="10.851716855540872">
        <ele>1509.51171875</ele>
      </trkpt>
      <trkpt lat="46.20625670067966" lon="10.852021621540189">
        <ele>1509.66015625</ele>
      </trkpt>
      <trkpt lat="46.206121919676661" lon="10.852182889357209">
        <ele>1510.2265625</ele>
      </trkpt>
      <trkpt lat="46.20625670067966" lon="10.852362178266048">
        <ele>1510.71875</ele>
      </trkpt>
      <trkpt lat="46.206526178866625" lon="10.852523529902101">
        <ele>1518.140625</ele>
      </trkpt>
      <trkpt lat="46.206714855507016" lon="10.852595195174217">
        <ele>1528.3125</ele>
      </trkpt>
      <trkpt lat="46.206714855507016" lon="10.852720672264695">
        <ele>1531.98046875</ele>
      </trkpt>
      <trkpt lat="46.206553084775805" lon="10.852935751900077">
        <ele>1526.8125</ele>
      </trkpt>
      <trkpt lat="46.206391397863626" lon="10.853258455172181">
        <ele>1523.78515625</ele>
      </trkpt>
      <trkpt lat="46.20625670067966" lon="10.853742426261306">
        <ele>1530.53125</ele>
      </trkpt>
      <trkpt lat="46.206202805042267" lon="10.85422639735043">
        <ele>1537.97265625</ele>
      </trkpt>
      <trkpt lat="46.206148909404874" lon="10.854495288804173">
        <ele>1539.265625</ele>
      </trkpt>
      <trkpt lat="46.206121919676661" lon="10.854584891349077">
        <ele>1539.51953125</ele>
      </trkpt>
      <trkpt lat="46.206175815314054" lon="10.854979259893298">
        <ele>1549.9453125</ele>
      </trkpt>
      <trkpt lat="46.206243205815554" lon="10.855427356436849">
        <ele>1553.4296875</ele>
      </trkpt>
      <trkpt lat="46.205919831991196" lon="10.8561085537076">
        <ele>1548.09375</ele>
      </trkpt>
      <trkpt lat="46.20581204071641" lon="10.856700064614415">
        <ele>1545.53125</ele>
      </trkpt>
      <trkpt lat="46.205744650214911" lon="10.85718403570354">
        <ele>1546.20703125</ele>
      </trkpt>
      <trkpt lat="46.205704249441624" lon="10.857703881338239">
        <ele>1544.3828125</ele>
      </trkpt>
      <trkpt lat="46.205596374347806" lon="10.858205705881119">
        <ele>1542.8203125</ele>
      </trkpt>
      <trkpt lat="46.205636858940125" lon="10.858528409153223">
        <ele>1547.22265625</ele>
      </trkpt>
      <trkpt lat="46.205677259713411" lon="10.859066108241677">
        <ele>1551.54296875</ele>
      </trkpt>
      <trkpt lat="46.205731155350804" lon="10.859424686059356">
        <ele>1553.15234375</ele>
      </trkpt>
      <trkpt lat="46.205731155350804" lon="10.859729368239641">
        <ele>1552.9609375</ele>
      </trkpt>
      <trkpt lat="46.205663764849305" lon="10.860034134238958">
        <ele>1550.17578125</ele>
      </trkpt>
      <trkpt lat="46.205663764849305" lon="10.860428418964148">
        <ele>1548.18359375</ele>
      </trkpt>
      <trkpt lat="46.205663764849305" lon="10.860840724781156">
        <ele>1550.6796875</ele>
      </trkpt>
      <trkpt lat="46.205798545852304" lon="10.861055804416537">
        <ele>1554.5546875</ele>
      </trkpt>
      <trkpt lat="46.205785050988197" lon="10.861270967870951">
        <ele>1555.73046875</ele>
      </trkpt>
      <trkpt lat="46.205758145079017" lon="10.861754938960075">
        <ele>1553.0546875</ele>
      </trkpt>
      <trkpt lat="46.205677259713411" lon="10.861862478777766">
        <ele>1550.77734375</ele>
      </trkpt>
      <trkpt lat="46.20581204071641" lon="10.862059621140361">
        <ele>1553.3046875</ele>
      </trkpt>
      <trkpt lat="46.20583894662559" lon="10.862418115139008">
        <ele>1553.07421875</ele>
      </trkpt>
      <trkpt lat="46.205785050988197" lon="10.862704943865538">
        <ele>1547.3359375</ele>
      </trkpt>
      <trkpt lat="46.205731071531773" lon="10.863009626045823">
        <ele>1550.80078125</ele>
      </trkpt>
      <trkpt lat="46.205663764849305" lon="10.863188831135631">
        <ele>1554.79296875</ele>
      </trkpt>
      <trkpt lat="46.205569384619594" lon="10.863565262407064">
        <ele>1556.80078125</ele>
      </trkpt>
      <trkpt lat="46.205394202843308" lon="10.863834153860807">
        <ele>1559.87109375</ele>
      </trkpt>
      <trkpt lat="46.205421192571521" lon="10.86399550549686">
        <ele>1559.33984375</ele>
      </trkpt>
      <trkpt lat="46.20548858307302" lon="10.864336062222719">
        <ele>1561.16015625</ele>
      </trkpt>
      <trkpt lat="46.205542478710413" lon="10.864587016403675">
        <ele>1568.59375</ele>
      </trkpt>
      <trkpt lat="46.205501994118094" lon="10.864999238401651">
        <ele>1572.8203125</ele>
      </trkpt>
      <trkpt lat="46.205434687435627" lon="10.865411544218659">
        <ele>1576.36328125</ele>
      </trkpt>
      <trkpt lat="46.205353802070022" lon="10.865572895854712">
        <ele>1579.4765625</ele>
      </trkpt>
      <trkpt lat="46.205219104886055" lon="10.865752100944519">
        <ele>1582.171875</ele>
      </trkpt>
      <trkpt lat="46.205178620293736" lon="10.86585964076221">
        <ele>1585.796875</ele>
      </trkpt>
      <trkpt lat="46.205178620293736" lon="10.865967264398932">
        <ele>1589.56640625</ele>
      </trkpt>
      <trkpt lat="46.205367296934128" lon="10.866038929671049">
        <ele>1599.19921875</ele>
      </trkpt>
      <trkpt lat="46.205340307205915" lon="10.866074804216623">
        <ele>1598.53125</ele>
      </trkpt>
      <trkpt lat="46.205367296934128" lon="10.86609274148941">
        <ele>1600.83203125</ele>
      </trkpt>
      <trkpt lat="46.205353802070022" lon="10.866200281307101">
        <ele>1603.34765625</ele>
      </trkpt>
      <trkpt lat="46.205273000523448" lon="10.866254009306431">
        <ele>1599.95703125</ele>
      </trkpt>
      <trkpt lat="46.205219104886055" lon="10.866361549124122">
        <ele>1602.13671875</ele>
      </trkpt>
      <trkpt lat="46.205111229792237" lon="10.866379486396909">
        <ele>1599.5625</ele>
      </trkpt>
      <trkpt lat="46.205178620293736" lon="10.866504963487387">
        <ele>1603.79296875</ele>
      </trkpt>
      <trkpt lat="46.205299906432629" lon="10.866451235488057">
        <ele>1607.11328125</ele>
      </trkpt>
      <trkpt lat="46.205475088208914" lon="10.866397423669696">
        <ele>1618.0703125</ele>
      </trkpt>
      <trkpt lat="46.205475088208914" lon="10.866469088941813">
        <ele>1617.49609375</ele>
      </trkpt>
      <trkpt lat="46.205475088208914" lon="10.866612503305078">
        <ele>1616.00390625</ele>
      </trkpt>
      <trkpt lat="46.205461593344808" lon="10.866702189669013">
        <ele>1617.4375</ele>
      </trkpt>
      <trkpt lat="46.205515488982201" lon="10.86677385494113">
        <ele>1622.81640625</ele>
      </trkpt>
      <trkpt lat="46.2055828794837" lon="10.866648377850652">
        <ele>1623.75</ele>
      </trkpt>
      <trkpt lat="46.205690670758486" lon="10.866504963487387">
        <ele>1632.8671875</ele>
      </trkpt>
      <trkpt lat="46.205744566395879" lon="10.866522900760174">
        <ele>1636.43359375</ele>
      </trkpt>
      <trkpt lat="46.205798462033272" lon="10.866504963487387">
        <ele>1638.86328125</ele>
      </trkpt>
      <trkpt lat="46.205879347398877" lon="10.866504963487387">
        <ele>1642.30078125</ele>
      </trkpt>
      <trkpt lat="46.205771556124091" lon="10.86677385494113">
        <ele>1639.7578125</ele>
      </trkpt>
      <trkpt lat="46.20567717589438" lon="10.866988934576511">
        <ele>1639.484375</ele>
      </trkpt>
      <trkpt lat="46.205596374347806" lon="10.867257826030254">
        <ele>1640.859375</ele>
      </trkpt>
      <trkpt lat="46.205609869211912" lon="10.867437114939094">
        <ele>1645.921875</ele>
      </trkpt>
      <trkpt lat="46.205731071531773" lon="10.867329491302371">
        <ele>1647.99609375</ele>
      </trkpt>
      <trkpt lat="46.205906253308058" lon="10.867293700575829">
        <ele>1651.2578125</ele>
      </trkpt>
      <trkpt lat="46.206014044582844" lon="10.867168223485351">
        <ele>1650.515625</ele>
      </trkpt>
      <trkpt lat="46.206202721223235" lon="10.867239888757467">
        <ele>1652.68359375</ele>
      </trkpt>
      <trkpt lat="46.206337502226233" lon="10.867329491302371">
        <ele>1655.98046875</ele>
      </trkpt>
      <trkpt lat="46.206579990684986" lon="10.867347428575158">
        <ele>1661.22265625</ele>
      </trkpt>
      <trkpt lat="46.206687781959772" lon="10.867419177666306">
        <ele>1664.53515625</ele>
      </trkpt>
      <trkpt lat="46.206741677597165" lon="10.867813546210527">
        <ele>1669.99609375</ele>
      </trkpt>
      <trkpt lat="46.20682256296277" lon="10.867938939481974">
        <ele>1673.75390625</ele>
      </trkpt>
      <trkpt lat="46.206755172461271" lon="10.868118228390813">
        <ele>1676.6953125</ele>
      </trkpt>
      <trkpt lat="46.206741677597165" lon="10.868207830935717">
        <ele>1679.51171875</ele>
      </trkpt>
      <trkpt lat="46.206674370914698" lon="10.868315370753407">
        <ele>1680.56640625</ele>
      </trkpt>
      <trkpt lat="46.206660876050591" lon="10.868566324934363">
        <ele>1684.2109375</ele>
      </trkpt>
      <trkpt lat="46.206593485549092" lon="10.86892481893301">
        <ele>1687.06640625</ele>
      </trkpt>
      <trkpt lat="46.206512600183487" lon="10.86921164765954">
        <ele>1687.81640625</ele>
      </trkpt>
      <trkpt lat="46.206391397863626" lon="10.869444664567709">
        <ele>1687.02734375</ele>
      </trkpt>
      <trkpt lat="46.206270111724734" lon="10.869606016203761">
        <ele>1687.6015625</ele>
      </trkpt>
      <trkpt lat="46.206162320449948" lon="10.869749430567026">
        <ele>1688.08984375</ele>
      </trkpt>
      <trkpt lat="46.206108424812555" lon="10.869910698384047">
        <ele>1688.09375</ele>
      </trkpt>
      <trkpt lat="46.205946737900376" lon="10.869982447475195">
        <ele>1686.9140625</ele>
      </trkpt>
      <trkpt lat="46.205501994118094" lon="10.870269276201725">
        <ele>1690.53515625</ele>
      </trkpt>
      <trkpt lat="46.205286411568522" lon="10.870340941473842">
        <ele>1689.9140625</ele>
      </trkpt>
      <trkpt lat="46.205151714384556" lon="10.870340941473842">
        <ele>1690.84375</ele>
      </trkpt>
      <trkpt lat="46.205030428245664" lon="10.87046641856432">
        <ele>1690.23828125</ele>
      </trkpt>
      <trkpt lat="46.204895647242665" lon="10.870502293109894">
        <ele>1691.27734375</ele>
      </trkpt>
      <trkpt lat="46.204747455194592" lon="10.870538083836436">
        <ele>1692.046875</ele>
      </trkpt>
      <trkpt lat="46.20453187264502" lon="10.870627770200372">
        <ele>1690.65625</ele>
      </trkpt>
      <trkpt lat="46.204343196004629" lon="10.870412606745958">
        <ele>1692.8515625</ele>
      </trkpt>
      <trkpt lat="46.204235404729843" lon="10.870412606745958">
        <ele>1697.05859375</ele>
      </trkpt>
      <trkpt lat="46.204127613455057" lon="10.870323004201055">
        <ele>1701.65234375</ele>
      </trkpt>
      <trkpt lat="46.204127613455057" lon="10.87017958983779">
        <ele>1699.22265625</ele>
      </trkpt>
      <trkpt lat="46.203992832452059" lon="10.870018322020769">
        <ele>1703.21875</ele>
      </trkpt>
      <trkpt lat="46.203790744766593" lon="10.869767367839813">
        <ele>1711.52734375</ele>
      </trkpt>
      <trkpt lat="46.203669458627701" lon="10.86949847638607">
        <ele>1714.0078125</ele>
      </trkpt>
      <trkpt lat="46.203629057854414" lon="10.869319187477231">
        <ele>1715.31640625</ele>
      </trkpt>
      <trkpt lat="46.203521266579628" lon="10.869104107841849">
        <ele>1722.3125</ele>
      </trkpt>
      <trkpt lat="46.203346084803343" lon="10.86892481893301">
        <ele>1729.58984375</ele>
      </trkpt>
      <trkpt lat="46.20329218916595" lon="10.86892481893301">
        <ele>1732.1875</ele>
      </trkpt>
      <trkpt lat="46.203184397891164" lon="10.868727676570415">
        <ele>1734.71484375</ele>
      </trkpt>
      <trkpt lat="46.203049616888165" lon="10.868673864752054">
        <ele>1738.8671875</ele>
      </trkpt>
      <trkpt lat="46.202941825613379" lon="10.868548471480608">
        <ele>1740.69921875</ele>
      </trkpt>
      <trkpt lat="46.2028475292027" lon="10.868369182571769">
        <ele>1741.984375</ele>
      </trkpt>
      <trkpt lat="46.202551061287522" lon="10.868028625845909">
        <ele>1743.3671875</ele>
      </trkpt>
      <trkpt lat="46.202389374375343" lon="10.867759734392166">
        <ele>1738.64453125</ele>
      </trkpt>
      <trkpt lat="46.202241182327271" lon="10.867598382756114">
        <ele>1740.67578125</ele>
      </trkpt>
      <trkpt lat="46.202106401324272" lon="10.867401240393519">
        <ele>1743.96875</ele>
      </trkpt>
      <trkpt lat="46.202012104913592" lon="10.867311637848616">
        <ele>1747.33203125</ele>
      </trkpt>
      <trkpt lat="46.201877323910594" lon="10.86706068366766">
        <ele>1753.94921875</ele>
      </trkpt>
      <trkpt lat="46.201823428273201" lon="10.866881394758821">
        <ele>1757.28515625</ele>
      </trkpt>
      <trkpt lat="46.20179652236402" lon="10.866558775305748">
        <ele>1759.46484375</ele>
      </trkpt>
      <trkpt lat="46.201729131862521" lon="10.866325758397579">
        <ele>1763</ele>
      </trkpt>
      <trkpt lat="46.201553950086236" lon="10.866074804216623">
        <ele>1771.625</ele>
      </trkpt>
      <trkpt lat="46.201500054448843" lon="10.865716310217977">
        <ele>1768.41015625</ele>
      </trkpt>
      <trkpt lat="46.201365273445845" lon="10.865501146763563">
        <ele>1779.7578125</ele>
      </trkpt>
      <trkpt lat="46.201365273445845" lon="10.865196464583278">
        <ele>1788.109375</ele>
      </trkpt>
      <trkpt lat="46.201405758038163" lon="10.865088924765587">
        <ele>1788.14453125</ele>
      </trkpt>
      <trkpt lat="46.201324872672558" lon="10.864927573129535">
        <ele>1792.6640625</ele>
      </trkpt>
      <trkpt lat="46.201338367536664" lon="10.864748284220695">
        <ele>1791.69921875</ele>
      </trkpt>
      <trkpt lat="46.201338367536664" lon="10.864353999495506">
        <ele>1794.23828125</ele>
      </trkpt>
      <trkpt lat="46.201405758038163" lon="10.864013358950615">
        <ele>1790.47265625</ele>
      </trkpt>
      <trkpt lat="46.201297882944345" lon="10.863887881860137">
        <ele>1791.890625</ele>
      </trkpt>
      <trkpt lat="46.201122784987092" lon="10.863798279315233">
        <ele>1791.55859375</ele>
      </trkpt>
      <trkpt lat="46.201014909893274" lon="10.863672802224755">
        <ele>1792.42578125</ele>
      </trkpt>
      <trkpt lat="46.200785916298628" lon="10.863403910771012">
        <ele>1794.9765625</ele>
      </trkpt>
      <trkpt lat="46.20067804120481" lon="10.863135103136301">
        <ele>1800.23828125</ele>
      </trkpt>
      <trkpt lat="46.200489448383451" lon="10.862866211682558">
        <ele>1805.06640625</ele>
      </trkpt>
      <trkpt lat="46.200502943247557" lon="10.862561445683241">
        <ele>1800.90234375</ele>
      </trkpt>
      <trkpt lat="46.200529849156737" lon="10.862059537321329">
        <ele>1802.54296875</ele>
      </trkpt>
      <trkpt lat="46.200462458655238" lon="10.861701043322682">
        <ele>1806.36328125</ele>
      </trkpt>
      <trkpt lat="46.200452651828527" lon="10.861439360305667">
        <ele>1804.1328125</ele>
      </trkpt>
      <trkpt lat="46.200466062873602" lon="10.861224196851254">
        <ele>1799.19921875</ele>
      </trkpt>
      <trkpt lat="46.200466062873602" lon="10.861009117215872">
        <ele>1793.359375</ele>
      </trkpt>
      <trkpt lat="46.200331365689635" lon="10.860829912126064">
        <ele>1800.6953125</ele>
      </trkpt>
      <trkpt lat="46.200236985459924" lon="10.860561020672321">
        <ele>1805.1171875</ele>
      </trkpt>
      <trkpt lat="46.20015618391335" lon="10.860256254673004">
        <ele>1807.3828125</ele>
      </trkpt>
      <trkpt lat="46.20015618391335" lon="10.859933635219932">
        <ele>1806.33203125</ele>
      </trkpt>
      <trkpt lat="46.20015618391335" lon="10.859808158129454">
        <ele>1808.0625</ele>
      </trkpt>
      <trkpt lat="46.200088793411851" lon="10.859342124313116">
        <ele>1817.95703125</ele>
      </trkpt>
      <trkpt lat="46.200115783140063" lon="10.858929818496108">
        <ele>1819.72265625</ele>
      </trkpt>
      <trkpt lat="46.200048392638564" lon="10.858589261770248">
        <ele>1827.859375</ele>
      </trkpt>
      <trkpt lat="46.199981002137065" lon="10.858320370316505">
        <ele>1828.16015625</ele>
      </trkpt>
      <trkpt lat="46.19990011677146" lon="10.858141081407666">
        <ele>1825.875</ele>
      </trkpt>
      <trkpt lat="46.199954096227884" lon="10.85846378467977">
        <ele>1831.890625</ele>
      </trkpt>
      <trkpt lat="46.199886705726385" lon="10.858965693041682">
        <ele>1836.69921875</ele>
      </trkpt>
      <trkpt lat="46.199832810088992" lon="10.859180772677064">
        <ele>1837.671875</ele>
      </trkpt>
      <trkpt lat="46.199778914451599" lon="10.859485538676381">
        <ele>1838.17578125</ele>
      </trkpt>
      <trkpt lat="46.199751924723387" lon="10.859790220856667">
        <ele>1838.2578125</ele>
      </trkpt>
      <trkpt lat="46.1997115239501" lon="10.860112840309739">
        <ele>1842.515625</ele>
      </trkpt>
      <trkpt lat="46.199698029085994" lon="10.860471334308386">
        <ele>1849.8359375</ele>
      </trkpt>
      <trkpt lat="46.199698029085994" lon="10.860758163034916">
        <ele>1850.8984375</ele>
      </trkpt>
      <trkpt lat="46.1997115239501" lon="10.860865702852607">
        <ele>1847.91015625</ele>
      </trkpt>
      <trkpt lat="46.199698029085994" lon="10.861242134124041">
        <ele>1851.24609375</ele>
      </trkpt>
      <trkpt lat="46.199630638584495" lon="10.86142142303288">
        <ele>1856.921875</ele>
      </trkpt>
      <trkpt lat="46.199549837037921" lon="10.861600628122687">
        <ele>1860.5</ele>
      </trkpt>
      <trkpt lat="46.199442045763135" lon="10.861959122121334">
        <ele>1864.22265625</ele>
      </trkpt>
      <trkpt lat="46.199374655261636" lon="10.862138411030173">
        <ele>1867.50390625</ele>
      </trkpt>
      <trkpt lat="46.19929376989603" lon="10.862407302483916">
        <ele>1869.14453125</ele>
      </trkpt>
      <trkpt lat="46.19926686398685" lon="10.862729921936989">
        <ele>1869.265625</ele>
      </trkpt>
      <trkpt lat="46.199212968349457" lon="10.863016750663519">
        <ele>1869.86328125</ele>
      </trkpt>
      <trkpt lat="46.199212968349457" lon="10.863428972661495">
        <ele>1863.359375</ele>
      </trkpt>
      <trkpt lat="46.199185978621244" lon="10.863715801388025">
        <ele>1863.6328125</ele>
      </trkpt>
      <trkpt lat="46.199172483757138" lon="10.86391294375062">
        <ele>1863.32421875</ele>
      </trkpt>
      <trkpt lat="46.199199473485351" lon="10.864092232659459">
        <ele>1862.66015625</ele>
      </trkpt>
      <trkpt lat="46.199307264760137" lon="10.864307312294841">
        <ele>1862.2265625</ele>
      </trkpt>
      <trkpt lat="46.199239874258637" lon="10.86448660120368">
        <ele>1864.15234375</ele>
      </trkpt>
      <trkpt lat="46.198983890935779" lon="10.864809220656753">
        <ele>1868.58984375</ele>
      </trkpt>
      <trkpt lat="46.198929995298386" lon="10.865185651928186">
        <ele>1871.19140625</ele>
      </trkpt>
      <trkpt lat="46.198903005570173" lon="10.865418668836355">
        <ele>1872.56640625</ele>
      </trkpt>
      <trkpt lat="46.198700917884707" lon="10.865723434835672">
        <ele>1879.84375</ele>
      </trkpt>
      <trkpt lat="46.198633527383208" lon="10.86590263992548">
        <ele>1882.140625</ele>
      </trkpt>
      <trkpt lat="46.198593126609921" lon="10.866297008469701">
        <ele>1885.046875</ele>
      </trkpt>
      <trkpt lat="46.198444850742817" lon="10.866619627922773">
        <ele>1901.48828125</ele>
      </trkpt>
      <trkpt lat="46.198390955105424" lon="10.866834791377187">
        <ele>1902.88671875</ele>
      </trkpt>
      <trkpt lat="46.198296658694744" lon="10.867211222648621">
        <ele>1901.71875</ele>
      </trkpt>
      <trkpt lat="46.198229268193245" lon="10.867372490465641">
        <ele>1907.03125</ele>
      </trkpt>
      <trkpt lat="46.198094571009278" lon="10.867587653920054">
        <ele>1917.58984375</ele>
      </trkpt>
      <trkpt lat="46.197932884097099" lon="10.867874398827553">
        <ele>1924.71484375</ele>
      </trkpt>
      <trkpt lat="46.197851998731494" lon="10.86817916482687">
        <ele>1926.46875</ele>
      </trkpt>
      <trkpt lat="46.197798103094101" lon="10.868376307189465">
        <ele>1927.52734375</ele>
      </trkpt>
      <trkpt lat="46.197825009003282" lon="10.868681073188782">
        <ele>1923.5625</ele>
      </trkpt>
      <trkpt lat="46.197757702320814" lon="10.868734801188111">
        <ele>1926.73046875</ele>
      </trkpt>
      <trkpt lat="46.19760942645371" lon="10.868734801188111">
        <ele>1934.66796875</ele>
      </trkpt>
      <trkpt lat="46.197555530816317" lon="10.868842341005802">
        <ele>1937.24609375</ele>
      </trkpt>
      <trkpt lat="46.19760942645371" lon="10.869129169732332">
        <ele>1934.7578125</ele>
      </trkpt>
      <trkpt lat="46.19760942645371" lon="10.869505601003766">
        <ele>1938.12109375</ele>
      </trkpt>
      <trkpt lat="46.197582520544529" lon="10.869774492457509">
        <ele>1944.3515625</ele>
      </trkpt>
      <trkpt lat="46.197449918836355" lon="10.869829477742314">
        <ele>1951.53125</ele>
      </trkpt>
      <trkpt lat="46.197382528334856" lon="10.869668209925294">
        <ele>1951.8515625</ele>
      </trkpt>
      <trkpt lat="46.19727473706007" lon="10.869578523561358">
        <ele>1956.0703125</ele>
      </trkpt>
      <trkpt lat="46.197265516966581" lon="10.869652787223458">
        <ele>1957.12890625</ele>
      </trkpt>
      <trkpt lat="46.197144230827689" lon="10.869796201586723">
        <ele>1964.51171875</ele>
      </trkpt>
      <trkpt lat="46.197130735963583" lon="10.870065093040466">
        <ele>1968.07421875</ele>
      </trkpt>
      <trkpt lat="46.19707684032619" lon="10.870226360857487">
        <ele>1970.8046875</ele>
      </trkpt>
      <trkpt lat="46.19707684032619" lon="10.870351837947965">
        <ele>1971.2890625</ele>
      </trkpt>
      <trkpt lat="46.197009533643723" lon="10.870567001402378">
        <ele>1974.5546875</ele>
      </trkpt>
      <trkpt lat="46.197009533643723" lon="10.870853746309876">
        <ele>1978.33984375</ele>
      </trkpt>
      <trkpt lat="46.196996038779616" lon="10.870997160673141">
        <ele>1980.7890625</ele>
      </trkpt>
      <trkpt lat="46.196969049051404" lon="10.871140575036407">
        <ele>1983.6015625</ele>
      </trkpt>
      <trkpt lat="46.196996038779616" lon="10.871337717399001">
        <ele>1985.703125</ele>
      </trkpt>
      <trkpt lat="46.197009533643723" lon="10.871534943580627">
        <ele>1988.32421875</ele>
      </trkpt>
      <trkpt lat="46.197022944688797" lon="10.871750023216009">
        <ele>1990.80078125</ele>
      </trkpt>
      <trkpt lat="46.197036439552903" lon="10.871983040124178">
        <ele>1994.3203125</ele>
      </trkpt>
      <trkpt lat="46.19707684032619" lon="10.87214439176023">
        <ele>1996.2421875</ele>
      </trkpt>
      <trkpt lat="46.19707684032619" lon="10.872395345941186">
        <ele>2000.6953125</ele>
      </trkpt>
      <trkpt lat="46.197009533643723" lon="10.872556613758206">
        <ele>2005.30859375</ele>
      </trkpt>
      <trkpt lat="46.197009701281786" lon="10.872736154124141">
        <ele>2007.58203125</ele>
      </trkpt>
      <trkpt lat="46.196955805644393" lon="10.873040920123458">
        <ele>2012.94921875</ele>
      </trkpt>
      <trkpt lat="46.196942394599319" lon="10.873112585395575">
        <ele>2014.05078125</ele>
      </trkpt>
      <trkpt lat="46.196901910007" lon="10.873291874304414">
        <ele>2017.37109375</ele>
      </trkpt>
      <trkpt lat="46.196875004097819" lon="10.873453225940466">
        <ele>2019.21875</ele>
      </trkpt>
      <trkpt lat="46.196780623868108" lon="10.873704180121422">
        <ele>2023.34375</ele>
      </trkpt>
      <trkpt lat="46.196780623868108" lon="10.873865447938442">
        <ele>2023.68359375</ele>
      </trkpt>
      <trkpt lat="46.196753717958927" lon="10.874080527573824">
        <ele>2024.5</ele>
      </trkpt>
      <trkpt lat="46.196699822321534" lon="10.874241879209876">
        <ele>2025.8125</ele>
      </trkpt>
      <trkpt lat="46.196632431820035" lon="10.874456958845258">
        <ele>2027.69140625</ele>
      </trkpt>
      <trkpt lat="46.196659421548247" lon="10.874582435935736">
        <ele>2027.65234375</ele>
      </trkpt>
      <trkpt lat="46.196686327457428" lon="10.874636247754097">
        <ele>2027.1796875</ele>
      </trkpt>
      <trkpt lat="46.196686327457428" lon="10.874743787571788">
        <ele>2027.87890625</ele>
      </trkpt>
      <trkpt lat="46.196699822321534" lon="10.874869264662266">
        <ele>2028.55859375</ele>
      </trkpt>
      <trkpt lat="46.196740223094821" lon="10.874976804479957">
        <ele>2028.6328125</ele>
      </trkpt>
      <trkpt lat="46.19680761359632" lon="10.875120218843222">
        <ele>2029.609375</ele>
      </trkpt>
      <trkpt lat="46.196915404871106" lon="10.875174030661583">
        <ele>2028.2734375</ele>
      </trkpt>
      <trkpt lat="46.196861509233713" lon="10.875263633206487">
        <ele>2031.18359375</ele>
      </trkpt>
      <trkpt lat="46.196875004097819" lon="10.875478712841868">
        <ele>2035.32421875</ele>
      </trkpt>
      <trkpt lat="46.196888498961926" lon="10.875640064477921">
        <ele>2038.67578125</ele>
      </trkpt>
      <trkpt lat="46.196888498961926" lon="10.87598062120378">
        <ele>2045.21484375</ele>
      </trkpt>
      <trkpt lat="46.196875004097819" lon="10.876303240656853">
        <ele>2050.76953125</ele>
      </trkpt>
      <trkpt lat="46.196875004097819" lon="10.876518404111266">
        <ele>2054.125</ele>
      </trkpt>
      <trkpt lat="46.196821108460426" lon="10.876823086291552">
        <ele>2061.26953125</ele>
      </trkpt>
      <trkpt lat="46.19680761359632" lon="10.876984437927604">
        <ele>2065.35546875</ele>
      </trkpt>
      <trkpt lat="46.19671331718564" lon="10.877127852290869">
        <ele>2071.83984375</ele>
      </trkpt>
      <trkpt lat="46.196605525910854" lon="10.87734293192625">
        <ele>2078.875</ele>
      </trkpt>
      <trkpt lat="46.196605525910854" lon="10.877558011561632">
        <ele>2081.828125</ele>
      </trkpt>
      <trkpt lat="46.196578536182642" lon="10.87768348865211">
        <ele>2084.5234375</ele>
      </trkpt>
      <trkpt lat="46.196497734636068" lon="10.877791028469801">
        <ele>2088.703125</ele>
      </trkpt>
      <trkpt lat="46.196376448497176" lon="10.877791028469801">
        <ele>2091.33203125</ele>
      </trkpt>
      <trkpt lat="46.196349458768964" lon="10.877647614106536">
        <ele>2089.671875</ele>
      </trkpt>
      <trkpt lat="46.196282068267465" lon="10.877611823379993">
        <ele>2090.66796875</ele>
      </trkpt>
      <trkpt lat="46.196201266720891" lon="10.877611823379993">
        <ele>2091.96484375</ele>
      </trkpt>
      <trkpt lat="46.196106970310211" lon="10.877737300470471">
        <ele>2095.61328125</ele>
      </trkpt>
      <trkpt lat="46.196066485717893" lon="10.877916505560279">
        <ele>2100.15234375</ele>
      </trkpt>
      <trkpt lat="46.195985684171319" lon="10.87802404537797">
        <ele>2104.359375</ele>
      </trkpt>
      <trkpt lat="46.195837408304214" lon="10.878041982650757">
        <ele>2107.39453125</ele>
      </trkpt>
      <trkpt lat="46.195729617029428" lon="10.87797031737864">
        <ele>2107.3984375</ele>
      </trkpt>
      <trkpt lat="46.195675721392035" lon="10.878077857196331">
        <ele>2111.1328125</ele>
      </trkpt>
      <trkpt lat="46.195594919845462" lon="10.878167459741235">
        <ele>2114.8359375</ele>
      </trkpt>
      <trkpt lat="46.195514034479856" lon="10.878185397014022">
        <ele>2115.8671875</ele>
      </trkpt>
      <trkpt lat="46.19547363370657" lon="10.878292936831713">
        <ele>2117.6171875</ele>
      </trkpt>
      <trkpt lat="46.19547363370657" lon="10.878490163013339">
        <ele>2120.39453125</ele>
      </trkpt>
      <trkpt lat="46.195514034479856" lon="10.878651430830359">
        <ele>2123.12890625</ele>
      </trkpt>
      <trkpt lat="46.195594919845462" lon="10.878615640103817">
        <ele>2121.71484375</ele>
      </trkpt>
      <trkpt lat="46.195594919845462" lon="10.878741117194295">
        <ele>2125.87109375</ele>
      </trkpt>
      <trkpt lat="46.19540624320507" lon="10.879009924829006">
        <ele>2134.12109375</ele>
      </trkpt>
      <trkpt lat="46.195258051156998" lon="10.879278816282749">
        <ele>2140.546875</ele>
      </trkpt>
      <trkpt lat="46.195096364244819" lon="10.87933262810111">
        <ele>2142.80859375</ele>
      </trkpt>
      <trkpt lat="46.195015478879213" lon="10.879350565373898">
        <ele>2144.62109375</ele>
      </trkpt>
      <trkpt lat="46.195015478879213" lon="10.879476042464375">
        <ele>2147.6328125</ele>
      </trkpt>
      <trkpt lat="46.194907687604427" lon="10.879476042464375">
        <ele>2149.18359375</ele>
      </trkpt>
      <trkpt lat="46.194799896329641" lon="10.879350565373898">
        <ele>2149.0859375</ele>
      </trkpt>
      <trkpt lat="46.194651620462537" lon="10.879260879009962">
        <ele>2151.33203125</ele>
      </trkpt>
      <trkpt lat="46.19451692327857" lon="10.879242941737175">
        <ele>2155.69140625</ele>
      </trkpt>
      <trkpt lat="46.194341741502285" lon="10.879135401919484">
        <ele>2159.67578125</ele>
      </trkpt>
      <trkpt lat="46.194247445091605" lon="10.879027862101793">
        <ele>2160.72265625</ele>
      </trkpt>
      <trkpt lat="46.194206960499287" lon="10.878902385011315">
        <ele>2160.34765625</ele>
      </trkpt>
      <trkpt lat="46.194112664088607" lon="10.878884447738528">
        <ele>2163.421875</ele>
      </trkpt>
      <trkpt lat="46.194045273587108" lon="10.878884447738528">
        <ele>2165.79296875</ele>
      </trkpt>
      <trkpt lat="46.194004872813821" lon="10.878884447738528">
        <ele>2167.21484375</ele>
      </trkpt>
      <trkpt lat="46.193964472040534" lon="10.878866510465741">
        <ele>2168.34375</ele>
      </trkpt>
      <trkpt lat="46.193950977176428" lon="10.878920322284102">
        <ele>2169.8046875</ele>
      </trkpt>
      <trkpt lat="46.193964472040534" lon="10.879135401919484">
        <ele>2173.00390625</ele>
      </trkpt>
      <trkpt lat="46.193964472040534" lon="10.879242941737175">
        <ele>2174.859375</ele>
      </trkpt>
      <trkpt lat="46.193923987448215" lon="10.879278816282749">
        <ele>2176.91015625</ele>
      </trkpt>
      <trkpt lat="46.193735394626856" lon="10.879135401919484">
        <ele>2181.73046875</ele>
      </trkpt>
      <trkpt lat="46.193560212850571" lon="10.879027862101793">
        <ele>2186.140625</ele>
      </trkpt>
      <trkpt lat="46.193519812077284" lon="10.87922508828342">
        <ele>2190.93359375</ele>
      </trkpt>
      <trkpt lat="46.193452421575785" lon="10.879368418827653">
        <ele>2195.78515625</ele>
      </trkpt>
      <trkpt lat="46.193358125165105" lon="10.879422230646014">
        <ele>2199.98828125</ele>
      </trkpt>
      <trkpt lat="46.193263744935393" lon="10.879511833190918">
        <ele>2204.828125</ele>
      </trkpt>
      <trkpt lat="46.193169448524714" lon="10.879422230646014">
        <ele>2206.7890625</ele>
      </trkpt>
      <trkpt lat="46.193088563159108" lon="10.879601519554853">
        <ele>2211.8125</ele>
      </trkpt>
      <trkpt lat="46.192926876246929" lon="10.879691122099757">
        <ele>2216.41015625</ele>
      </trkpt>
      <trkpt lat="46.192832579836249" lon="10.879798661917448">
        <ele>2218.7265625</ele>
      </trkpt>
      <trkpt lat="46.192913381382823" lon="10.8799600135535">
        <ele>2217.99609375</ele>
      </trkpt>
      <trkpt lat="46.192926876246929" lon="10.880264695733786">
        <ele>2219.84765625</ele>
      </trkpt>
      <trkpt lat="46.192886475473642" lon="10.880515649914742">
        <ele>2224.109375</ele>
      </trkpt>
      <trkpt lat="46.192846074700356" lon="10.880712792277336">
        <ele>2229.515625</ele>
      </trkpt>
      <trkpt lat="46.192792179062963" lon="10.880820415914059">
        <ele>2234.0859375</ele>
      </trkpt>
      <trkpt lat="46.19276518933475" lon="10.880892081186175">
        <ele>2236.84375</ele>
      </trkpt>
      <trkpt lat="46.192576512694359" lon="10.88103549554944">
        <ele>2244.2734375</ele>
      </trkpt>
      <trkpt lat="46.192482216283679" lon="10.881214700639248">
        <ele>2248.76171875</ele>
      </trkpt>
      <trkpt lat="46.192347519099712" lon="10.88132232427597">
        <ele>2252.10546875</ele>
      </trkpt>
      <trkpt lat="46.192239644005895" lon="10.881519466638565">
        <ele>2256.4765625</ele>
      </trkpt>
      <trkpt lat="46.192185748368502" lon="10.88166288100183">
        <ele>2259.8125</ele>
      </trkpt>
      <trkpt lat="46.192118441686034" lon="10.881788358092308">
        <ele>2262.4375</ele>
      </trkpt>
      <trkpt lat="46.192010650411248" lon="10.881877960637212">
        <ele>2262.6015625</ele>
      </trkpt>
      <trkpt lat="46.191956670954823" lon="10.882075102999806">
        <ele>2267.65234375</ele>
      </trkpt>
      <trkpt lat="46.191956670954823" lon="10.882272329181433">
        <ele>2271.4375</ele>
      </trkpt>
    </trkseg>
  </trk>

</gpx>